Date StartTime U_cm/s V_cm/s W_cm/s Ustd_cm/s Vstd_cm/s Wstd_cm/s Uvar_(cm/s)^2 Vvar_(cm/s)^2 Wvar_(cm/s)^2 KE_(m/s)^2 TurbulentKE_(m/s)^2 HorizWindSpeed_cm/s FrictionSpeec_cm/s DragCoef SpeedOfSound_m/s SonicTemperature_C Pressure_mb 
04/01/2014  00:00:00     -525.997      -55.904      -37.160      130.704      112.741       64.814    17083.502    12710.580     4200.873       15.758        1.700      528.959       58.150        0.012      332.970        1.977      850.984
04/01/2014  00:01:00     -493.903     -135.481      -53.305      168.957      137.567       75.724    28546.362    18924.551     5734.199       15.916        2.660      512.148       63.059        0.015      332.945        1.935      850.984
04/01/2014  00:02:00     -417.739     -125.019      -26.473      167.546      154.832       70.032    28071.612    23973.085     4904.484       12.388        2.847      436.046       65.689        0.023      332.967        1.969      851.047
04/01/2014  00:03:00     -558.804      -45.188      -45.856      257.035      221.209       91.596    66066.790    48933.546     8389.765       21.987        6.170      560.628      101.156        0.033      332.948        1.939      851.063
04/01/2014  00:04:00     -632.330     -123.910      -45.808      186.819      173.816       83.182    34901.410    30211.843     6919.317       24.465        3.602      644.356       83.364        0.017      332.943        1.931      851.098
04/01/2014  00:05:00     -449.346     -118.515      -25.485      156.424      157.871       69.666    24468.609    24923.274     4853.283       13.542        2.712      464.713       57.229        0.015      332.915        1.885      851.172
04/01/2014  00:06:00     -450.178      -87.396      -43.273      189.571      160.904       72.220    35937.230    25890.099     5215.680       13.959        3.352      458.583       77.860        0.029      332.909        1.874      851.232
04/01/2014  00:07:00     -304.981       -7.779      -21.328       97.093       91.078       57.543     9427.098     8295.131     3311.146        5.728        1.052      305.080       49.433        0.026      332.864        1.802      851.198
04/01/2014  00:08:00     -343.414      -24.056      -27.947      203.292      123.712       72.987    41327.637    15304.698     5327.053        9.061        3.098      344.255       79.631        0.054      332.827        1.741      851.146
04/01/2014  00:09:00     -469.217      -96.153       -8.230      192.666      163.827       82.585    37120.176    26839.189     6820.339       15.011        3.539      478.968       84.827        0.031      332.802        1.701      851.105
04/01/2014  00:10:00     -349.594      -63.994       -5.213      168.311      156.327       84.836    28328.679    24438.122     7197.156        9.314        2.998      355.403       84.234        0.056      332.812        1.715      851.124
04/01/2014  00:11:00     -518.748     -137.759      -21.346      210.109      167.241       82.646    44145.973    27969.653     6830.404       18.372        3.947      536.728       92.509        0.030      332.786        1.671      851.137
04/01/2014  00:12:00     -540.232     -136.086      -32.934      193.992      145.377       91.688    37632.865    21134.587     8406.697       18.930        3.359      557.108       77.375        0.019      332.776        1.654      851.145
04/01/2014  00:13:00     -542.403     -100.459      -27.294      204.676      160.479       84.401    41892.170    25753.607     7123.525       18.989        3.738      551.628       94.293        0.029      332.804        1.702      851.160
04/01/2014  00:14:00     -261.956      -58.201      -15.743      188.814      151.876       81.051    35650.688    23066.210     6569.221        6.876        3.264      268.343       89.577        0.111      332.789        1.676      851.197
04/01/2014  00:15:00     -277.291      -51.299       -8.636      145.698      100.537       53.463    21227.823    10107.644     2858.326        5.689        1.710      281.996       60.147        0.045      332.850        1.778      851.160
04/01/2014  00:16:00     -280.472        0.884      -20.275      195.485      135.403       71.967    38214.243    18333.940     5179.242        7.039        3.086      280.473       89.964        0.103      332.811        1.714      851.100
04/01/2014  00:17:00     -320.033      -63.861       14.269      201.138      151.400       88.535    40456.381    22921.863     7838.373        8.895        3.561      326.342       89.705        0.076      332.903        1.865      851.097
04/01/2014  00:18:00     -418.841      -73.962      -13.424      252.076      160.848       84.258    63542.315    25872.098     7099.410       13.878        4.826      425.321      106.619        0.063      332.864        1.802      851.117
04/01/2014  00:19:00     -468.728      -62.215      -20.934      162.637      182.525       79.591    26450.731    33315.511     6334.691       14.504        3.305      472.839       75.947        0.026      332.795        1.686      851.104
04/01/2014  00:20:00     -358.854     -105.506        1.598      219.511      178.196       91.913    48185.106    31753.777     8448.091       11.413        4.419      374.043       91.485        0.060      332.948        1.939      851.117
04/01/2014  00:21:00     -550.216      -83.287      -25.911      199.426      181.442       91.544    39770.739    32921.096     8380.344       19.569        4.054      556.484       99.966        0.032      333.287        2.499      851.175
04/01/2014  00:22:00     -425.064     -204.289      -16.544      230.023      166.544       88.063    52910.724    27736.809     7755.136       15.553        4.420      471.607      105.923        0.050      333.084        2.164      851.183
04/01/2014  00:23:00     -588.994     -322.845      -21.320      261.190      209.353      109.567    68220.260    43828.589    12004.845       28.780        6.203      671.672      112.786        0.028      333.333        2.575      851.302
04/01/2014  00:24:00     -546.648     -190.097      -16.583      205.749      163.827       96.698    42332.491    26839.382     9350.531       20.686        3.926      578.759       93.597        0.026      333.276        2.482      851.466
04/01/2014  00:25:00     -524.112      -53.223      -32.731      169.835      141.839       80.319    28843.851    20118.381     6451.086       16.699        2.771      526.808       79.381        0.023      332.877        1.821      851.509
04/01/2014  00:26:00     -415.704     -109.705      -44.761      187.051      161.520       81.806    34987.956    26088.710     6692.150       12.729        3.388      429.936       91.401        0.045      332.776        1.655      851.489
04/01/2014  00:27:00     -432.787     -103.815      -24.083      123.124      135.127       69.015    15159.627    18259.258     4763.065       11.841        1.909      445.064       66.535        0.022      332.704        1.536      851.528
04/01/2014  00:28:00     -290.414      -82.131      -34.259      125.879       92.152       65.607    15845.587     8492.059     4304.312        6.044        1.432      301.804       42.944        0.020      332.700        1.530      851.496
04/01/2014  00:29:00      -69.076      -11.819       17.586      141.692       89.253       85.486    20076.720     7966.157     7307.800        2.028        1.768       70.080       87.168        1.547      332.679        1.498      851.431
04/01/2014  00:30:00     -307.210       91.120      -51.888      126.198      153.456       92.046    15926.042    23548.623     8472.408        7.665        2.397      320.439       69.802        0.047      332.632        1.417      851.390
04/01/2014  00:31:00     -339.306      -62.253      -18.256      287.052      150.210       84.030    82398.602    22563.125     7061.042       11.566        5.601      344.969       80.225        0.054      332.612        1.383      851.338
04/01/2014  00:32:00     -288.326      -52.312      -12.896      156.510      143.410       78.382    24495.241    20566.380     6143.811        6.861        2.560      293.034       75.759        0.067      332.611        1.383      851.346
04/01/2014  00:33:00     -236.871      -46.843      -10.187      181.564      147.485       89.670    32965.546    21751.918     8040.797        6.057        3.138      241.459       98.176        0.165      332.616        1.391      851.304
04/01/2014  00:34:00     -506.983      -46.948      -39.903      265.018      136.599       91.494    70234.355    18659.391     8371.176       17.903        4.863      509.152      120.957        0.056      332.581        1.334      851.272
04/01/2014  00:35:00     -262.913      -80.252      -17.219      164.804       93.477       55.579    27160.392     8737.911     3089.006        5.742        1.949      274.888       55.060        0.040      332.589        1.347      851.274
04/01/2014  00:36:00     -450.843      -18.593      -27.796      180.452      136.355       71.024    32562.847    18592.742     5044.450       13.028        2.810      451.226       72.111        0.026      332.567        1.311      851.342
04/01/2014  00:37:00     -418.759      -93.304      -24.569      135.993      160.077       69.164    18494.162    25624.624     4783.714       11.678        2.445      429.028       66.983        0.024      332.554        1.289      851.323
04/01/2014  00:38:00     -387.994      -96.799      -18.404      187.926      141.008       71.771    35316.352    19883.314     5151.108       11.029        3.018      399.887       86.603        0.047      332.537        1.260      851.339
04/01/2014  00:39:00     -257.798     -174.621       -4.858      133.450      127.232       73.772    17808.842    16188.064     5442.276        6.820        1.972      311.372       71.452        0.053      332.523        1.236      851.340
04/01/2014  00:40:00     -295.406     -187.956       -5.151      180.614      165.376       85.262    32621.506    27349.215     7269.540        9.492        3.362      350.132       98.792        0.080      332.547        1.276      851.318
04/01/2014  00:41:00     -288.520     -224.439      -15.744      139.897      124.353       85.436    19571.124    15463.659     7299.264        8.809        2.117      365.536       82.119        0.050      332.564        1.305      851.304
04/01/2014  00:42:00     -181.069     -185.050        2.723      120.528      110.737       69.808    14526.954    12262.646     4873.194        4.934        1.583      258.901       61.955        0.057      332.613        1.386      851.308
04/01/2014  00:43:00     -102.939      -97.500       15.914      100.676       88.797       45.069    10135.735     7884.967     2031.199        2.020        1.003      141.784       53.031        0.140      332.599        1.365      851.289
04/01/2014  00:44:00     -112.304      -65.186       13.180      123.119      102.110       61.521    15158.397    10426.355     3784.796        2.320        1.468      129.852       73.359        0.319      332.542        1.270      851.276
04/01/2014  00:45:00     -336.670      -47.964       -1.877      151.803      150.378       71.206    23044.110    22613.514     5070.239        8.318        2.536      340.069       78.610        0.053      332.625        1.404      851.282
04/01/2014  00:46:00     -380.644     -249.800      -17.845      198.569      147.440       91.648    39429.764    21738.458     8399.305       13.857        3.478      455.291       98.332        0.047      332.917        1.887      851.287
04/01/2014  00:47:00     -266.806      -82.824       -2.121      173.291      146.104       82.191    30029.896    21346.519     6755.288        6.808        2.907      279.366       80.566        0.083      332.945        1.935      851.322
04/01/2014  00:48:00     -372.265     -135.153      -15.421      132.217      103.327       61.117    17481.456    10676.471     3735.252        9.448        1.595      396.039       51.540        0.017      332.769        1.645      851.329
04/01/2014  00:49:00     -475.407      -96.313      -19.500      209.814      149.362       76.950    44021.853    22309.005     5921.378       15.395        3.613      485.065       83.495        0.030      332.600        1.365      851.406
04/01/2014  00:50:00     -250.155      -28.806       -7.322      135.554      105.065       63.867    18374.893    11038.665     4078.960        4.847        1.675      251.808       64.129        0.065      332.568        1.311      851.451
04/01/2014  00:51:00     -182.978      -96.757       -4.178      139.811      107.669       56.813    19547.254    11592.700     3227.714        3.861        1.718      206.986       50.742        0.060      332.551        1.285      851.473
04/01/2014  00:52:00     -394.539     -124.534      -25.743      142.441      111.467       64.174    20289.431    12424.890     4118.292       10.433        1.842      413.726       48.824        0.014      332.440        1.101      851.404
04/01/2014  00:53:00     -225.850      -82.123      -15.627      129.570      104.283       60.777    16788.354    10874.940     3693.818        4.467        1.568      240.317       40.086        0.028      332.424        1.077      851.382
04/01/2014  00:54:00     -325.650     -145.635      -20.402      210.679      164.317       95.599    44385.476    26999.970     9139.174       10.408        4.026      356.732       95.952        0.072      332.445        1.110      851.398
04/01/2014  00:55:00     -262.922      -48.814       -3.215      191.945      120.229       73.829    36842.776    14454.953     5450.721        6.412        2.837      267.415       90.701        0.115      332.472        1.155      851.423
04/01/2014  00:56:00     -290.856      -60.536       -9.293      192.755      133.840       72.592    37154.321    17913.186     5269.558        7.433        3.017      297.089       78.497        0.070      332.441        1.104      851.422
04/01/2014  00:57:00     -303.410      -22.607       -8.826      200.312      128.091       72.734    40125.006    16407.244     5290.169        7.722        3.091      304.251       93.362        0.094      332.476        1.162      851.435
04/01/2014  00:58:00     -473.692     -135.483      -22.772      168.479      140.820       68.307    28385.101    19830.365     4665.861       14.806        2.644      492.686       70.210        0.020      332.509        1.215      851.434
04/01/2014  00:59:00     -359.467      -64.292      -12.931      144.666      128.539       64.856    20928.307    16522.263     4206.269        8.758        2.083      365.171       50.434        0.019      332.499        1.197      851.422
04/01/2014  01:00:00     -467.745      -68.863      -31.421      145.995      113.316       63.815    21314.591    12840.506     4072.395       13.136        1.911      472.787       62.160        0.017      332.483        1.173      851.475
04/01/2014  01:01:00     -357.706      -12.255       -7.555      173.674       97.782       72.560    30162.812     9561.291     5264.938        8.657        2.249      357.916       83.529        0.054      332.491        1.185      851.463
04/01/2014  01:02:00     -453.418     -139.385      -16.157      236.057      134.693       77.245    55722.675    18142.303     5966.719       15.254        3.992      474.358       88.473        0.035      332.528        1.245      851.443
04/01/2014  01:03:00     -464.052     -176.408      -21.825      171.771      153.470       74.898    29505.388    23553.045     5609.696       15.279        2.933      496.451       72.760        0.021      332.535        1.257      851.423
04/01/2014  01:04:00     -435.393      -70.925      -14.753      150.388      128.629       78.738    22616.608    16545.337     6199.655       12.008        2.268      441.132       71.936        0.027      332.509        1.215      851.434
04/01/2014  01:05:00     -428.737      -16.531       -6.523      232.936      162.339       88.207    54259.152    26354.080     7780.561       13.624        4.420      429.055      106.831        0.062      332.505        1.207      851.426
04/01/2014  01:06:00     -460.663      -27.546      -20.042      233.242      145.210       90.794    54401.767    21086.058     8243.497       14.853        4.187      461.486      110.306        0.057      332.533        1.253      851.400
04/01/2014  01:07:00     -465.426     -116.781      -26.670      215.439      174.215       92.149    46413.897    30350.974     8491.370       15.810        4.263      479.853       93.904        0.038      332.566        1.309      851.376
04/01/2014  01:08:00     -349.187      -61.853        3.672      171.237      149.356       80.109    29322.018    22307.223     6417.406        9.190        2.902      354.623       82.149        0.054      332.530        1.250      851.422
04/01/2014  01:09:00     -203.858      -66.620        8.646      139.293      104.118       73.204    19402.607    10840.613     5358.849        4.083        1.780      214.467       71.412        0.111      332.538        1.263      851.438
04/01/2014  01:10:00     -561.724      -48.318      -25.326      258.770      167.667      111.090    66961.834    28112.072    12341.081       21.294        5.371      563.799      120.838        0.046      332.608        1.378      851.452
04/01/2014  01:11:00     -553.147     -181.904      -24.777      223.775      167.598      109.532    50075.223    28089.183    11997.288       21.490        4.508      582.289      115.676        0.039      332.588        1.345      851.470
04/01/2014  01:12:00     -437.014     -213.581      -26.263      193.685      170.949       88.209    37514.021    29223.467     7780.851       15.589        3.726      486.414       75.656        0.024      332.629        1.414      851.504
04/01/2014  01:13:00     -429.255     -238.945       -4.775      288.321      204.078      104.708    83128.852    41647.827    10963.820       18.853        6.787      491.278      139.448        0.081      332.634        1.422      851.594
04/01/2014  01:14:00     -249.186      -99.651        1.630      214.686      169.618      112.662    46090.077    28770.194    12692.698        7.977        4.378      268.373      115.344        0.185      332.675        1.490      851.661
04/01/2014  01:15:00     -483.110     -286.539      -13.659      306.011      209.223      135.253    93642.493    43774.142    18293.395       23.567        7.786      561.694      149.182        0.071      332.737        1.591      851.719
04/01/2014  01:16:00     -403.781     -110.041      -17.358      155.651      189.039       89.148    24227.084    35735.684     7947.353       12.167        3.396      418.507       75.814        0.033      332.689        1.512      851.805
04/01/2014  01:17:00     -282.763     -260.875       -3.907      222.379      190.061      110.070    49452.294    36123.355    12115.418       12.284        4.885      384.721       98.742        0.066      332.732        1.583      851.802
04/01/2014  01:18:00     -249.537     -142.363       -2.946      192.044      153.667       83.333    36881.044    23613.428     6944.369        7.498        3.372      287.291       98.041        0.116      332.735        1.588      851.794
04/01/2014  01:19:00     -174.413      -48.562        1.556      155.806       89.834       62.836    24275.592     8070.078     3948.404        3.453        1.815      181.048       75.360        0.173      332.633        1.421      851.839
04/01/2014  01:20:00     -342.132      -88.390       -3.481      153.057      123.804       64.402    23426.537    15327.492     4147.619        8.388        2.145      353.366       74.456        0.044      332.559        1.296      851.846
04/01/2014  01:21:00     -221.941     -109.485      -17.041      146.266      128.307       68.205    21393.716    16462.737     4651.959        5.201        2.125      247.476       53.633        0.047      332.568        1.311      851.832
04/01/2014  01:22:00     -375.979      -64.461      -23.644      193.144      141.686       75.773    37304.620    20074.996     5741.553       10.459        3.156      381.465       80.755        0.045      332.543        1.271      851.797
04/01/2014  01:23:00     -265.289     -163.790        4.727      167.823      131.401       75.348    28164.691    17266.125     5677.307        7.416        2.555      311.778       84.259        0.073      332.538        1.262      851.747
04/01/2014  01:24:00     -183.562      -45.513      -24.086      102.956       86.650       42.948    10599.892     7508.258     1844.557        2.815        0.998      189.121       15.962        0.007      332.519        1.232      851.764
04/01/2014  01:25:00     -146.891       24.156       -9.259       66.193       89.344       38.744     4381.565     7982.297     1501.125        1.805        0.693      148.864       28.877        0.038      332.475        1.160      851.797
04/01/2014  01:26:00     -111.189      -61.985       17.250      122.016      111.500       59.692    14888.013    12432.332     3563.191        2.369        1.544      127.299       74.974        0.347      332.478        1.165      851.825
04/01/2014  01:27:00     -339.977      -89.363        2.063      200.514      195.383       79.525    40205.741    38174.398     6324.217       10.412        4.235      351.525       78.291        0.050      332.464        1.141      851.798
04/01/2014  01:28:00     -373.103      -79.102      -18.383      280.275      157.164       93.740    78554.248    24700.606     8787.163       12.890        5.602      381.396      124.333        0.106      332.447        1.115      851.819
04/01/2014  01:29:00     -351.071     -136.732       -4.905      190.804      151.253       77.144    36406.091    22877.486     5951.256       10.359        3.262      376.757       79.298        0.044      332.494        1.192      851.862
04/01/2014  01:30:00     -393.192      -32.581       -8.416      178.648      125.592       75.971    31915.171    15773.302     5771.630       10.459        2.673      394.539       85.610        0.047      332.489        1.182      851.887
04/01/2014  01:31:00     -464.893     -157.846      -28.891      138.265      122.488       67.272    19117.256    15003.312     4525.577       14.025        1.932      490.960       72.468        0.022      332.487        1.180      851.867
04/01/2014  01:32:00     -242.344     -101.052      -11.029      129.150      111.103       55.923    16679.644    12343.897     3127.385        5.060        1.608      262.568       50.917        0.038      332.479        1.166      851.867
04/01/2014  01:33:00     -149.233      -77.529        5.314      113.358       57.578       50.284    12850.089     3315.249     2528.529        2.350        0.935      168.171       59.078        0.123      332.473        1.157      851.935
04/01/2014  01:34:00      -62.508      -60.975       31.407       80.990       56.234       52.116     6559.375     3162.221     2716.046        1.052        0.622       87.323       43.631        0.250      332.509        1.217      851.902
04/01/2014  01:35:00     -171.125       12.349       -0.433      148.824      110.545       43.150    22148.695    12220.184     1861.919        3.283        1.812      171.570       55.974        0.106      332.482        1.171      851.915
04/01/2014  01:36:00     -243.035      -78.314        3.083      154.872       98.178       62.546    23985.198     9638.839     3912.051        5.136        1.877      255.341       70.308        0.076      332.516        1.227      851.972
04/01/2014  01:37:00     -432.411        4.670      -21.923      213.400      169.721       87.767    45539.388    28805.254     7703.068       13.475        4.102      432.436       86.800        0.040      332.554        1.290      852.018
04/01/2014  01:38:00     -355.931      -71.362       -5.474      198.603      156.775       70.251    39443.268    24578.459     4935.168       10.037        3.448      363.014       79.110        0.047      332.614        1.389      852.023
04/01/2014  01:39:00     -351.657      -85.869      -11.870      144.748      156.135       79.020    20952.040    24378.077     6244.107        9.137        2.579      361.989       68.659        0.036      332.652        1.451      852.011
04/01/2014  01:40:00     -446.380      -47.868      -26.224      112.575      144.059       74.882    12673.219    20752.862     5607.284       12.063        1.952      448.939       56.782        0.016      332.674        1.487      852.077
04/01/2014  01:41:00     -365.140      -45.751      -25.708      126.714      100.221       65.230    16056.358    10044.229     4254.991        8.321        1.518      367.995       67.101        0.033      332.709        1.544      852.093
04/01/2014  01:42:00     -310.695      -23.758      -10.630      153.751      108.933       55.376    23639.235    11866.347     3066.506        6.788        1.929      311.602       71.123        0.052      332.714        1.550      852.102
04/01/2014  01:43:00     -309.639      -43.328      -20.603      139.470      106.638       60.651    19451.763    11371.634     3678.598        6.633        1.725      312.655       56.542        0.033      332.665        1.473      852.118
04/01/2014  01:44:00     -316.955     -138.937      -18.635      132.613      112.048       65.595    17586.228    12554.750     4302.724        7.727        1.722      346.069       62.673        0.033      332.631        1.417      852.102
04/01/2014  01:45:00     -216.870      -27.346        0.642      146.271       92.099       52.601    21395.238     8482.279     2766.814        4.021        1.632      218.587       62.687        0.082      332.598        1.363      852.100
04/01/2014  01:46:00     -264.639       13.965      -10.584      184.017      112.565       61.377    33862.277    12670.868     3767.143        6.031        2.515      265.007       66.249        0.062      332.549        1.280      852.104
04/01/2014  01:47:00     -472.888      -90.743      -13.504      181.596      163.037       85.861    32976.953    26581.226     7372.179       14.947        3.347      481.515       80.329        0.028      332.599        1.365      852.125
04/01/2014  01:48:00     -285.036      -29.869      -15.988      182.707      107.359       64.791    33381.969    11525.920     4197.814        6.574        2.455      286.596       78.160        0.074      332.608        1.379      852.177
04/01/2014  01:49:00     -267.642     -102.561      -15.656      159.404       86.642       58.106    25409.604     7506.768     3376.305        5.934        1.815      286.620       74.881        0.068      332.605        1.374      852.201
04/01/2014  01:50:00     -224.742      -61.840        6.544      163.579      150.151       63.012    26758.071    22545.216     3970.472        5.381        2.664      233.095       68.412        0.086      332.613        1.385      852.219
04/01/2014  01:51:00     -500.083     -240.166      -15.682      151.800      140.853       78.022    23043.371    19839.518     6087.401       17.848        2.449      554.764       74.940        0.018      332.807        1.706      852.262
04/01/2014  01:52:00     -337.665      -17.690       -7.383      220.100      112.497       80.621    48443.990    12655.535     6499.676        9.098        3.380      338.128      102.966        0.093      332.684        1.505      852.328
04/01/2014  01:53:00     -198.906        6.463       14.344      152.990      124.047       77.679    23406.058    15387.660     6034.097        4.231        2.241      199.011       73.022        0.135      332.615        1.392      852.371
04/01/2014  01:54:00     -338.770     -126.797      -25.797      155.370      141.444       75.345    24139.719    20006.306     5676.905        9.066        2.491      361.722       73.823        0.042      332.707        1.542      852.387
04/01/2014  01:55:00     -188.388     -129.403       12.516      193.050       89.953       74.184    37268.124     8091.611     5503.275        5.162        2.543      228.551       88.813        0.151      332.817        1.725      852.371
04/01/2014  01:56:00     -128.584      -88.424        6.375       98.429      101.691       51.220     9688.184    10341.084     2623.452        2.352        1.133      156.053       51.667        0.110      332.779        1.661      852.375
04/01/2014  01:57:00     -227.057     -105.610        7.888      198.843      105.249       70.697    39538.617    11077.349     4998.030        5.918        2.781      250.416       91.329        0.133      332.674        1.487      852.381
04/01/2014  01:58:00     -231.414      -58.508       -4.458       77.749       99.091       40.762     6044.952     9818.957     1661.569        3.726        0.876      238.696       37.624        0.025      332.651        1.448      852.389
04/01/2014  01:59:00     -209.752      -63.077        0.318      129.612       79.211       57.955    16799.271     6274.314     3358.834        3.720        1.322      219.032       63.803        0.085      332.561        1.302      852.383
04/01/2014  02:00:00     -273.306     -142.204      -11.489      146.161      110.370       62.569    21362.960    12181.492     3914.895        6.625        1.873      308.088       74.176        0.058      332.572        1.320      852.362
04/01/2014  02:01:00     -195.793     -146.659        1.688      112.015      103.336       61.899    12547.378    10678.400     3831.497        4.345        1.353      244.630       57.714        0.056      332.569        1.314      852.347
04/01/2014  02:02:00     -250.420     -152.592       -9.030      110.469       98.427       64.003    12203.430     9687.784     4096.423        5.603        1.299      293.249       54.460        0.034      332.573        1.321      852.361
04/01/2014  02:03:00     -204.321      -55.116      -17.731       90.833       82.723       44.242     8250.649     6843.050     1957.320        3.107        0.853      211.624       48.912        0.053      332.543        1.270      852.344
04/01/2014  02:04:00     -194.192     -116.010      -12.761      111.065       80.264       44.781    12335.481     6442.333     2005.335        3.605        1.039      226.205       48.439        0.046      332.516        1.225      852.284
04/01/2014  02:05:00     -262.108     -103.907      -11.976      105.179       98.437       50.559    11062.662     9689.759     2556.236        5.147        1.165      281.952       47.315        0.028      332.489        1.182      852.292
04/01/2014  02:06:00     -286.782       31.139      -26.455      141.339       84.466       55.483    19976.817     7134.587     3078.384        5.705        1.509      288.467       62.232        0.047      332.465        1.141      852.293
04/01/2014  02:07:00     -187.031        0.583       -0.225      147.939       85.415       59.731    21885.825     7295.696     3567.839        3.386        1.637      187.032       71.272        0.145      332.415        1.062      852.295
04/01/2014  02:08:00     -281.014      -85.592       -8.753      171.543      161.073       67.999    29427.005    25944.470     4623.848        7.317        3.000      293.760       81.928        0.078      332.421        1.071      852.292
04/01/2014  02:09:00     -355.538      -74.913      -13.763      132.571      106.413       64.215    17575.100    11323.701     4123.534        8.261        1.651      363.344       66.618        0.034      332.420        1.068      852.267
04/01/2014  02:10:00     -349.540      -79.920      -21.435      124.272      136.000       65.991    15443.499    18495.878     4354.804        8.365        1.915      358.560       68.353        0.036      332.419        1.066      852.230
04/01/2014  02:11:00     -200.721     -148.823        7.432      118.141      126.380       60.011    13957.285    15971.914     3601.286        4.800        1.677      249.874       60.619        0.059      332.455        1.126      852.226
04/01/2014  02:12:00     -282.072      -94.514       -0.522      162.478      118.624       78.033    26399.057    14071.657     6089.123        6.752        2.328      297.485       84.008        0.080      332.460        1.134      852.187
04/01/2014  02:13:00     -391.427      -26.723      -20.103      229.090      137.110       98.737    52482.403    18799.044     9749.011       11.767        4.052      392.338      118.014        0.090      332.411        1.052      852.155
04/01/2014  02:14:00     -321.896      -27.407       -3.110      221.516      166.086       83.248    49069.270    27584.619     6930.217        9.396        4.179      323.060       92.234        0.082      332.466        1.145      852.151
04/01/2014  02:15:00     -330.844     -185.584      -10.576      182.349      202.836       91.508    33251.247    41142.347     8373.740       11.337        4.138      379.340       87.889        0.054      332.466        1.145      852.145
04/01/2014  02:16:00     -160.079     -170.984       -1.256      157.662      152.986       93.294    24857.229    23404.630     8703.690        5.590        2.848      234.224       90.393        0.149      332.468        1.149      852.139
04/01/2014  02:17:00     -436.526     -224.669      -23.455      232.522      170.310       91.866    54066.591    29005.448     8439.369       16.653        4.576      490.949      108.559        0.049      332.471        1.153      852.085
04/01/2014  02:18:00     -596.110     -146.417      -32.846      196.901      193.909      109.133    38770.195    37600.725    11909.972       23.305        4.414      613.828      101.055        0.027      332.500        1.199      852.086
04/01/2014  02:19:00     -412.803     -110.253      -20.082      263.510      156.126       93.067    69437.760    24375.472     8661.534       14.270        5.124      427.273      114.869        0.072      332.544        1.273      852.167
04/01/2014  02:20:00     -420.797       12.322      -32.444      190.842      134.578       85.290    36420.718    18111.276     7274.411       12.003        3.090      420.977       90.789        0.047      332.542        1.269      852.163
04/01/2014  02:21:00     -534.047      -81.352       -6.525      261.987      188.685       94.382    68637.289    35601.912     8908.054       20.248        5.657      540.207      105.567        0.038      332.524        1.239      852.139
04/01/2014  02:22:00     -508.996      -90.783      -33.069      260.808      158.196       92.017    68020.997    25025.846     8467.119       18.494        5.076      517.028      121.059        0.055      332.486        1.178      852.137
04/01/2014  02:23:00     -522.377     -138.396      -23.032      214.570      167.057       87.337    46040.142    27907.987     7627.736       18.705        4.079      540.399       97.214        0.032      332.444        1.108      852.135
04/01/2014  02:24:00     -390.640      -85.267      -17.349      164.028      161.499       74.673    26905.295    26081.913     5576.046       10.936        2.928      399.838       79.862        0.040      332.418        1.066      852.137
04/01/2014  02:25:00     -452.567     -138.097      -19.603      166.448      183.719       83.631    27705.072    33752.807     6994.096       14.635        3.423      473.168       80.261        0.029      332.415        1.060      852.105
04/01/2014  02:26:00     -418.328      -66.802      -20.255      201.115      170.806       91.500    40447.136    29174.735     8372.260       12.892        3.900      423.628       98.757        0.054      332.430        1.084      852.127
04/01/2014  02:27:00     -404.562       29.209      -27.605      188.108      130.740       72.627    35384.781    17092.894     5274.651       11.151        2.888      405.615       69.714        0.030      332.447        1.113      852.124
04/01/2014  02:28:00     -334.154        8.809      -20.869      165.228      142.907       74.682    27300.379    20422.539     5577.394        8.273        2.665      334.270       76.705        0.053      332.400        1.034      852.123
04/01/2014  02:29:00     -449.230      -90.769      -15.270      146.920      147.298       74.181    21585.378    21696.827     5502.833       12.952        2.439      458.308       57.787        0.016      332.407        1.047      852.124
04/01/2014  02:30:00     -433.149      -36.459      -24.684      134.665      133.929       77.031    18134.530    17937.055     5933.843       11.577        2.100      434.681       63.740        0.022      332.418        1.065      852.113
04/01/2014  02:31:00     -287.270      -74.230      -18.727      217.700      127.645       77.407    47393.461    16293.304     5991.784        7.902        3.484      296.706       91.287        0.095      332.405        1.045      852.111
04/01/2014  02:32:00     -407.994      -34.415      -35.392      160.733      155.981       72.323    25834.967    24330.209     5230.622       11.213        2.770      409.443       76.159        0.035      332.405        1.042      852.140
04/01/2014  02:33:00     -251.272      -30.415       -1.134      182.302      108.902       53.168    33233.891    11859.660     2826.796        5.598        2.396      253.106       56.993        0.051      332.393        1.025      852.130
04/01/2014  02:34:00     -498.957      -26.218      -44.896      218.022      131.626       82.136    47533.588    17325.327     6746.334       16.162        3.580      499.646       88.602        0.031      332.407        1.048      852.113
04/01/2014  02:35:00     -315.072       -7.316      -11.596      136.823      105.501       65.371    18720.513    11130.427     4273.412        6.678        1.706      315.157       60.141        0.036      332.434        1.091      852.123
04/01/2014  02:36:00     -367.394      -64.059      -17.349      122.377       95.674       57.523    14976.163     9153.521     3308.934        8.341        1.372      372.937       54.676        0.021      332.404        1.043      852.136
04/01/2014  02:37:00     -294.388     -106.733       -4.748      143.943      126.324       71.161    20719.531    15957.807     5063.947        6.990        2.087      313.139       71.739        0.052      332.391        1.020      852.142
04/01/2014  02:38:00     -255.091     -111.929      -21.259      129.938       98.667       59.862    16883.905     9735.235     3583.498        5.412        1.510      278.567       50.317        0.033      332.415        1.062      852.135
04/01/2014  02:39:00     -334.680       -4.306      -30.428      129.808       97.530       54.261    16850.042     9512.139     2944.295        7.112        1.465      334.707       54.602        0.027      332.397        1.030      852.154
04/01/2014  02:40:00     -486.708      -79.162      -27.451      192.661      118.383       79.688    37118.418    14014.615     6350.104       15.068        2.874      493.104       85.842        0.030      332.368        0.982      852.145
04/01/2014  02:41:00     -441.092     -143.693       -8.986      150.825      135.531       74.222    22748.141    18368.763     5508.927       13.095        2.331      463.907       68.396        0.022      332.381        1.005      852.134
04/01/2014  02:42:00     -389.299     -106.077      -23.806      196.007      110.414       62.882    38418.596    12191.190     3954.180       10.896        2.728      403.492       75.165        0.035      332.431        1.088      852.151
04/01/2014  02:43:00     -287.819      -51.580      -15.287      128.283      111.936       66.271    16456.456    12529.595     4391.848        5.955        1.669      292.404       58.336        0.040      332.427        1.081      852.136
04/01/2014  02:44:00     -199.945     -146.671        8.959      125.096      105.337       59.515    15649.064    11095.906     3542.047        4.592        1.514      247.972       53.527        0.047      332.395        1.027      852.115
04/01/2014  02:45:00     -202.319      -62.809       -2.123       95.459       85.402       38.611     9112.328     7293.586     1490.778        3.139        0.895      211.844       40.760        0.037      332.383        1.008      852.128
04/01/2014  02:46:00     -203.300      -98.401       -7.211       76.329       60.773       34.707     5826.144     3693.344     1204.606        3.089        0.536      225.862       26.862        0.014      332.374        0.991      852.122
04/01/2014  02:47:00     -241.791      -81.305       -8.500      132.041       86.867       56.735    17434.864     7545.853     3218.885        4.667        1.410      255.095       28.293        0.012      332.420        1.068      852.090
04/01/2014  02:48:00     -355.967        5.494      -21.804      133.903      128.773       54.240    17929.998    16582.537     2941.928        8.233        1.873      356.010       53.970        0.023      332.437        1.096      852.100
04/01/2014  02:49:00     -321.373      -71.379      -23.266      105.508       73.221       50.380    11131.982     5361.291     2538.149        6.397        0.952      329.204       42.099        0.016      332.415        1.061      852.120
04/01/2014  02:50:00     -149.259      -86.419        6.060      108.552      101.109       61.721    11783.548    10223.116     3809.544        2.779        1.291      172.472       70.344        0.166      332.433        1.090      852.110
04/01/2014  02:51:00     -232.877      -23.010       14.259      157.271      121.275       71.677    24734.240    14707.559     5137.544        4.976        2.229      234.011       67.937        0.084      332.433        1.091      852.134
04/01/2014  02:52:00     -286.744      -68.787      -26.330      136.878      111.240       61.051    18735.721    12374.336     3727.226        6.124        1.742      294.879       63.667        0.047      332.470        1.151      852.154
04/01/2014  02:53:00     -116.437      -17.549       17.474       95.434       78.389       46.919     9107.595     6144.842     2201.382        1.581        0.873      117.752       46.798        0.158      332.419        1.068      852.181
04/01/2014  02:54:00     -206.225      -23.371       -8.718       96.326       84.893       41.678     9278.766     7206.886     1737.017        3.068        0.911      207.546       40.736        0.039      332.430        1.086      852.208
04/01/2014  02:55:00     -233.170       -8.250        2.988      135.953      104.653       52.069    18483.129    10952.230     2711.221        4.329        1.607      233.316       51.609        0.049      332.404        1.043      852.214
04/01/2014  02:56:00     -189.037      -84.707        5.851      120.672      106.596       51.410    14561.620    11362.733     2642.961        3.575        1.428      207.148       57.230        0.076      332.453        1.125      852.224
04/01/2014  02:57:00     -229.727      -87.768        2.066      126.041      104.312       65.670    15886.358    10881.046     4312.534        4.577        1.554      245.922       51.757        0.044      332.473        1.155      852.220
04/01/2014  02:58:00     -266.868      -47.834      -12.914      119.683       73.585       49.378    14324.028     5414.757     2438.165        4.792        1.109      271.121       49.740        0.034      332.486        1.176      852.227
04/01/2014  02:59:00     -184.652      -30.151        1.125      126.687       70.791       48.777    16049.642     5011.327     2379.203        2.922        1.172      187.098       58.699        0.098      332.453        1.124      852.247
04/01/2014  03:00:00     -269.348       14.218      -10.881      113.689      103.299       51.807    12925.209    10670.581     2683.949        4.957        1.314      269.723       56.852        0.044      332.484        1.172      852.259
04/01/2014  03:01:00     -273.001      -50.175      -11.578      134.989       90.822       56.904    18222.008     8248.548     3238.057        5.344        1.485      277.574       64.265        0.054      332.482        1.170      852.271
04/01/2014  03:02:00     -305.735       11.377      -24.077      128.537      104.049       51.927    16521.694    10826.258     2696.382        6.211        1.502      305.946       51.494        0.028      332.477        1.163      852.279
04/01/2014  03:03:00     -370.514       39.161      -30.283       92.486      106.973       49.118     8553.673    11443.146     2412.615        8.107        1.120      372.578       45.452        0.015      332.450        1.118      852.270
04/01/2014  03:04:00     -306.252     -123.850      -19.837       77.417       81.702       48.822     5993.356     6675.265     2383.555        6.228        0.753      330.347       28.780        0.008      332.453        1.122      852.268
04/01/2014  03:05:00     -356.196      -94.216      -23.100      115.429       87.330       54.602    13323.901     7626.517     2981.348        8.010        1.197      368.446       58.554        0.025      332.494        1.191      852.286
04/01/2014  03:06:00     -276.268      -21.692      -12.473      122.590       70.952       52.411    15028.250     5034.237     2746.876        4.988        1.140      277.118       58.614        0.045      332.502        1.205      852.277
04/01/2014  03:07:00      -97.542        5.353       -1.426       41.102       38.837       28.604     1689.386     1508.293      818.187        0.678        0.201       97.689       13.639        0.019      332.476        1.163      852.277
04/01/2014  03:08:00     -138.537       61.278      -13.409       48.753       71.722       30.222     2376.878     5144.059      913.392        1.578        0.422      151.485       19.192        0.016      332.430        1.089      852.277
04/01/2014  03:09:00      -58.342      185.485      -28.820       58.217       39.044       26.581     3389.214     1524.461      706.555        2.213        0.281      194.444       21.971        0.013      332.419        1.068      852.291
04/01/2014  03:10:00       22.809      130.643       -6.988       50.083       73.943       44.418     2508.351     5467.591     1972.916        1.379        0.497      132.619       45.567        0.118      332.333        0.927      852.280
04/01/2014  03:11:00      -42.920      194.769      -32.177       92.326       62.171       37.548     8524.144     3865.196     1409.886        2.730        0.690      199.442       29.544        0.022      332.316        0.896      852.269
04/01/2014  03:12:00      -77.090      122.528        6.894       77.303       82.364       47.519     5975.685     6783.866     2258.048        1.801        0.751      144.762       50.647        0.122      332.413        1.058      852.292
04/01/2014  03:13:00     -105.142      131.250      -20.342       47.860       60.932       40.567     2290.586     3712.760     1645.689        1.817        0.382      168.171       32.371        0.037      332.388        1.017      852.318
04/01/2014  03:14:00      -77.353      103.767      -17.300       42.356       59.948       30.827     1794.027     3593.783      950.316        1.169        0.317      129.426       36.422        0.079      332.343        0.943      852.314
04/01/2014  03:15:00      -12.648      132.331       -6.864       39.854       67.708       26.999     1588.370     4584.422      728.969        1.231        0.345      132.934       32.692        0.060      332.331        0.923      852.292
04/01/2014  03:16:00      -42.623       96.573       -0.532       48.002       73.537       40.842     2304.192     5407.668     1668.093        1.026        0.469      105.560       42.155        0.159      332.327        0.918      852.283
04/01/2014  03:17:00      -98.342      100.601       -6.726       50.810       55.249       36.141     2581.644     3052.408     1306.201        1.339        0.347      140.682       23.191        0.027      332.292        0.859      852.277
04/01/2014  03:18:00     -109.907      125.521      -31.862       33.630       37.832       26.401     1130.985     1431.260      697.006        1.605        0.163      166.838       15.641        0.009      332.270        0.823      852.289
04/01/2014  03:19:00      -11.921       95.624       -8.420       34.961       38.342       25.060     1222.274     1470.094      628.021        0.634        0.166       96.364       16.997        0.031      332.328        0.918      852.281
04/01/2014  03:20:00      -77.093      141.127      -15.902       39.796       61.754       33.628     1583.730     3813.583     1130.825        1.632        0.326      160.811       28.948        0.032      332.425        1.078      852.271
04/01/2014  03:21:00      -56.198      145.661      -25.657       39.374       65.393       24.431     1550.345     4276.292      596.863        1.573        0.321      156.126       25.440        0.027      332.316        0.898      852.259
04/01/2014  03:22:00     -103.215      172.253      -25.786       40.976       50.621       36.097     1679.073     2562.529     1303.003        2.327        0.277      200.810       34.080        0.029      332.268        0.818      852.244
04/01/2014  03:23:00      -63.192      153.865      -18.857       58.137       70.178       30.808     3379.889     4924.906      949.135        1.864        0.463      166.336       28.299        0.029      332.287        0.851      852.227
04/01/2014  03:24:00       -6.092      201.005      -29.317       42.810       38.644       27.485     1832.696     1493.378      755.435        2.269        0.204      201.097       23.977        0.014      332.246        0.783      852.216
04/01/2014  03:25:00      -39.705      214.768      -26.230       43.676      114.488       35.966     1907.554    13107.549     1293.576        3.235        0.815      218.407       52.362        0.057      332.313        0.894      852.207
04/01/2014  03:26:00      -89.922      193.771      -27.626       53.565       87.736       38.511     2869.252     7697.531     1483.118        2.922        0.602      213.619       30.630        0.021      332.311        0.888      852.210
04/01/2014  03:27:00      -69.314      150.224      -15.408       55.297       81.130       32.770     3057.721     6581.999     1073.903        1.916        0.536      165.444       30.731        0.035      332.322        0.907      852.234
04/01/2014  03:28:00      -47.376      174.269      -14.935       42.207       53.335       31.373     1781.451     2844.621      984.265        1.922        0.281      180.594       27.647        0.023      332.368        0.983      852.242
04/01/2014  03:29:00      -57.314      121.805      -13.620       43.840       52.295       24.545     1921.988     2734.792      602.450        1.178        0.263      134.616       19.807        0.022      332.455        1.129      852.245
04/01/2014  03:30:00      -80.252      202.965      -24.275       83.657       92.971       36.491     6998.432     8643.699     1331.563        3.260        0.849      218.254       31.650        0.021      332.360        0.970      852.252
04/01/2014  03:31:00     -121.170      132.381      -28.774       57.195       59.173       36.093     3271.249     3501.395     1302.728        2.055        0.404      179.463       38.116        0.045      332.315        0.895      852.259
04/01/2014  03:32:00     -100.442      139.540      -28.712       55.393       42.825       27.805     3068.362     1834.021      773.093        1.803        0.284      171.930       29.926        0.030      332.355        0.963      852.258
04/01/2014  03:33:00      -99.066      163.322      -28.739       77.416       48.061       29.854     5993.217     2309.828      891.261        2.325        0.460      191.018       28.427        0.022      332.329        0.919      852.265
04/01/2014  03:34:00      -88.171      170.168      -20.048       46.079       50.083       36.128     2123.284     2508.327     1305.238        2.153        0.297      191.654       23.234        0.015      332.302        0.874      852.268
04/01/2014  03:35:00     -137.598      186.638      -43.212       52.802       69.563       24.877     2788.027     4838.954      618.842        3.194        0.412      231.877       21.864        0.009      332.384        1.010      852.273
04/01/2014  03:36:00      -89.165       76.801      -21.498       56.102       50.886       21.459     3147.490     2589.377      460.477        1.025        0.310      117.681       29.129        0.061      332.345        0.946      852.260
04/01/2014  03:37:00      -80.882      127.411      -20.612       56.590       53.948       34.830     3202.425     2910.372     1213.160        1.526        0.366      150.915       27.212        0.033      332.358        0.967      852.259
04/01/2014  03:38:00      -55.238      181.817      -19.249       55.746       54.118       33.137     3107.610     2928.784     1098.083        2.181        0.357      190.023       29.280        0.024      332.328        0.919      852.259
04/01/2014  03:39:00      -37.082      205.571      -23.985       42.170      101.194       41.895     1778.341    10240.317     1755.155        2.899        0.689      208.889       53.416        0.065      332.319        0.904      852.243
04/01/2014  03:40:00      -77.148      114.707      -19.714       50.946       75.275       41.351     2595.480     5666.337     1709.875        1.473        0.499      138.237       27.681        0.040      332.402        1.039      852.231
04/01/2014  03:41:00      -96.533      147.961      -26.974       52.470       71.137       35.954     2753.140     5060.428     1292.707        2.052        0.455      176.667       31.099        0.031      332.372        0.989      852.224
04/01/2014  03:42:00     -212.022      143.909      -42.432       91.127      115.802       48.349     8304.070    13410.044     2337.611        4.575        1.203      256.249       37.472        0.021      332.297        0.865      852.223
04/01/2014  03:43:00     -231.909       70.753      -26.751      142.355      115.254       60.657    20264.963    13283.531     3679.302        4.836        1.861      242.462       67.771        0.078      332.247        0.783      852.220
04/01/2014  03:44:00     -189.928      -23.772      -16.484       98.230      102.508       47.007     9649.199    10507.800     2209.630        2.963        1.118      191.410       42.907        0.050      332.264        0.812      852.194
04/01/2014  03:45:00     -234.526      -45.618      -29.229       84.110       90.036       46.702     7074.534     8106.410     2181.031        3.765        0.868      238.921       44.685        0.035      332.252        0.792      852.173
04/01/2014  03:46:00     -144.693       50.371      -16.842      109.526      117.420       64.837    11995.899    13787.533     4203.862        2.687        1.499      153.209       55.962        0.133      332.263        0.811      852.150
04/01/2014  03:47:00     -255.620       86.755      -43.107      119.425      101.680       50.427    14262.406    10338.896     2542.857        5.093        1.357      269.940       52.314        0.038      332.264        0.809      852.126
04/01/2014  03:48:00     -232.312      -77.229      -23.017       99.706       88.626       58.537     9941.257     7854.578     3426.637        4.084        1.061      244.813       48.805        0.040      332.255        0.797      852.110
04/01/2014  03:49:00     -186.550      -85.091      -16.198       86.519       73.500       50.392     7485.483     5402.182     2539.325        2.886        0.771      205.040       35.609        0.030      332.242        0.776      852.098
04/01/2014  03:50:00     -198.206      -57.789      -24.692       66.477       64.361       33.734     4419.234     4142.351     1137.978        2.647        0.485      206.459       31.221        0.023      332.211        0.725      852.068
04/01/2014  03:51:00     -181.034      -83.013       -4.505       94.610       54.549       37.837     8950.960     2975.592     1431.630        2.652        0.668      199.159       35.882        0.032      332.149        0.623      852.005
04/01/2014  03:52:00     -170.706       -5.475      -15.706       74.585       75.618       47.495     5562.869     5718.014     2255.802        2.147        0.677      170.794       40.980        0.058      332.119        0.573      851.976
04/01/2014  03:53:00     -203.387      -34.701      -17.010      120.438      109.941       55.786    14505.367    12087.092     3112.108        3.628        1.485      206.326       37.370        0.033      332.164        0.647      851.963
04/01/2014  03:54:00     -234.822      -46.322      -29.274       71.080       88.652       65.592     5052.431     7859.173     4302.306        3.768        0.861      239.347       23.812        0.010      332.185        0.680      851.950
04/01/2014  03:55:00     -265.291      -85.904      -27.892       99.419       89.345       58.402     9884.184     7982.460     3410.781        4.990        1.064      278.853       47.356        0.029      332.168        0.652      851.959
04/01/2014  03:56:00     -203.401       -5.921      -19.297       99.611       94.364       40.813     9922.304     8904.524     1665.699        3.113        1.025      203.487       40.244        0.039      332.164        0.644      851.953
04/01/2014  03:57:00     -178.579       94.248      -31.704       95.195       91.785       53.010     9062.104     8424.522     2810.095        3.103        1.015      201.924       44.271        0.048      332.209        0.722      851.922
04/01/2014  03:58:00     -183.160      125.853      -33.437      132.770       82.996       58.925    17627.837     6888.317     3472.130        3.924        1.399      222.231       72.528        0.107      332.296        0.866      851.929
04/01/2014  03:59:00     -127.608       33.283      -22.437       91.055      118.755       65.501     8291.089    14102.852     4290.362        2.228        1.334      131.877       54.847        0.173      332.282        0.842      851.921
04/01/2014  04:00:00      -84.743       71.650      -14.652       64.532       78.062       47.140     4164.334     6093.751     2222.172        1.250        0.624      110.973       26.157        0.056      332.251        0.791      851.909
04/01/2014  04:01:00     -125.831       93.271       -9.495      107.110       80.790       56.573    11472.585     6527.058     3200.553        2.291        1.060      156.630       53.311        0.116      332.294        0.861      851.902
04/01/2014  04:02:00     -177.676       73.202      -22.877       84.267      138.231       58.718     7100.863    19107.774     3447.858        3.355        1.483      192.164       54.726        0.081      332.250        0.789      851.911
04/01/2014  04:03:00     -157.934       55.470      -11.429       89.151       70.662       49.791     7947.850     4993.113     2479.136        2.178        0.771      167.392       39.138        0.055      332.206        0.715      851.926
04/01/2014  04:04:00     -281.834      104.149      -41.885       81.388       76.376       55.127     6623.960     5833.262     3039.026        5.376        0.775      300.462       44.344        0.022      332.219        0.736      851.919
04/01/2014  04:05:00     -263.430       79.092      -30.869       99.191       94.646       52.941     9838.876     8957.844     2802.743        4.910        1.080      275.047       55.797        0.041      332.195        0.698      851.897
04/01/2014  04:06:00     -130.883      121.320       -2.476      108.462      103.701       55.168    11763.965    10753.869     3043.529        2.870        1.278      178.463       58.936        0.109      332.187        0.684      851.850
04/01/2014  04:07:00     -154.007       57.450        2.355       86.425       99.172       56.834     7469.213     9835.120     3230.056        2.378        1.027      164.374       53.956        0.108      332.210        0.723      851.871
04/01/2014  04:08:00     -168.883      114.291      -42.149       69.866      113.761       50.825     4881.319    12941.581     2583.196        3.188        1.020      203.921       50.190        0.061      332.237        0.768      851.889
04/01/2014  04:09:00     -110.090       69.898       -8.162       69.760       77.580       40.400     4866.498     6018.697     1632.165        1.479        0.626      130.405       32.379        0.062      332.232        0.760      851.904
04/01/2014  04:10:00     -159.551       73.946      -15.357       73.269      112.346       43.757     5368.321    12621.687     1914.677        2.553        0.995      175.853       37.672        0.046      332.227        0.752      851.931
04/01/2014  04:11:00     -119.880       69.315       -0.145       83.800       64.477       45.396     7022.482     4157.281     2060.771        1.621        0.662      138.477       45.660        0.109      332.230        0.758      851.937
04/01/2014  04:12:00     -136.591      168.948      -21.479       73.251       86.687       44.577     5365.671     7514.689     1987.090        3.126        0.743      217.257       46.164        0.045      332.267        0.818      851.931
04/01/2014  04:13:00     -172.613      199.385      -39.615       50.715       62.013       39.473     2571.989     3845.580     1558.088        3.955        0.399      263.723       30.397        0.013      332.275        0.828      851.929
04/01/2014  04:14:00     -133.529      192.830      -37.300       46.378       56.441       34.329     2150.904     3185.633     1178.478        3.146        0.326      234.549       31.704        0.018      332.337        0.931      851.930
04/01/2014  04:15:00     -106.937      145.119      -21.542       64.540       52.289       35.539     4165.350     2734.096     1263.052        2.056        0.408      180.264       37.107        0.042      332.306        0.882      851.920
04/01/2014  04:16:00     -104.860       92.254       -7.594       70.516       85.695       41.099     4972.492     7343.556     1689.090        1.678        0.700      139.665       30.571        0.048      332.239        0.772      851.930
04/01/2014  04:17:00     -141.052       82.967      -30.156       38.425       50.156       23.758     1476.512     2515.577      564.450        1.612        0.228      163.644       22.420        0.019      332.195        0.700      851.936
04/01/2014  04:18:00     -146.259       26.248      -27.490       74.283       68.073       40.389     5517.925     4633.932     1631.258        1.731        0.589      148.595       40.300        0.074      332.208        0.721      851.955
04/01/2014  04:19:00     -130.369       63.265      -28.103       78.630       74.443       40.129     6182.681     5541.818     1610.371        1.756        0.667      144.909       45.875        0.100      332.192        0.695      851.981
04/01/2014  04:20:00     -146.040        1.408       16.384      104.718      110.554       65.362    10965.804    12222.153     4272.128        2.452        1.373      146.047       62.639        0.184      332.198        0.703      851.977
04/01/2014  04:21:00     -173.722      -11.859      -17.705       70.985       60.349       43.537     5038.840     3642.045     1895.473        2.060        0.529      174.126       39.267        0.051      332.220        0.740      851.972
04/01/2014  04:22:00      -96.344       36.029       -2.780       61.232       93.536       42.595     3749.308     8749.062     1814.372        1.245        0.716      102.860       46.993        0.209      332.207        0.720      851.961
04/01/2014  04:23:00     -114.269      124.473      -14.887       53.938       94.383       40.525     2909.316     8908.108     1642.297        2.111        0.673      168.970       35.215        0.043      332.253        0.795      851.959
04/01/2014  04:24:00     -155.217       48.194      -19.375       74.451       86.789       46.336     5542.976     7532.260     2147.060        2.100        0.761      162.527       41.966        0.067      332.214        0.731      851.972
04/01/2014  04:25:00     -208.062      106.516      -15.129      129.268       75.337       46.008    16710.147     5675.667     2116.754        3.968        1.225      233.742       49.508        0.045      332.244        0.779      851.986
04/01/2014  04:26:00     -180.074       63.361      -23.513       78.588       42.020       28.288     6176.150     1765.676      800.216        2.287        0.437      190.896       25.999        0.019      332.190        0.690      851.985
04/01/2014  04:27:00      -65.260       12.185      -15.661       56.559       52.368       36.535     3198.904     2742.358     1334.817        0.596        0.364       66.388       31.983        0.232      332.143        0.614      851.965
04/01/2014  04:28:00     -163.357      173.182      -28.433       73.796      110.743       48.923     5445.791    12263.987     2393.422        3.879        1.005      238.070       43.775        0.034      332.209        0.721      851.953
04/01/2014  04:29:00     -159.802      131.915      -16.736       70.101       60.815       50.698     4914.208     3698.506     2570.312        2.720        0.559      207.215       26.122        0.016      332.203        0.712      851.934
04/01/2014  04:30:00     -183.050      164.196      -38.042       72.761       64.413       42.474     5294.233     4148.999     1804.033        3.658        0.562      245.902       42.234        0.029      332.249        0.786      851.925
04/01/2014  04:31:00     -152.965      133.487      -14.203       94.118       93.432       65.373     8858.289     8729.591     4273.643        3.164        1.093      203.020       46.858        0.053      332.221        0.741      851.907
04/01/2014  04:32:00     -185.565      193.934      -39.842       75.411       76.894       52.910     5686.888     5912.755     2799.508        4.401        0.720      268.411       44.405        0.027      332.255        0.795      851.897
04/01/2014  04:33:00     -157.773      217.759      -36.777       87.915      113.364       60.461     7729.034    12851.348     3655.495        4.894        1.212      268.907       55.114        0.042      332.303        0.876      851.891
04/01/2014  04:34:00     -194.338      223.469      -39.648       83.204       86.599       58.024     6922.860     7499.416     3366.741        5.353        0.889      296.151       45.565        0.024      332.287        0.849      851.888
04/01/2014  04:35:00     -206.781      253.542      -40.727       74.368      114.373       47.051     5530.655    13081.078     2213.753        6.476        1.041      327.173       52.675        0.026      332.303        0.874      851.914
04/01/2014  04:36:00     -153.819      172.302      -24.533       65.097       87.508       54.471     4237.668     7657.589     2967.139        3.440        0.743      230.972       50.161        0.047      332.277        0.832      851.933
04/01/2014  04:37:00     -189.581      145.380      -29.314       92.516       69.249       44.506     8559.242     4795.416     1980.789        3.663        0.767      238.906       49.228        0.042      332.306        0.879      851.938
04/01/2014  04:38:00     -179.077      144.192      -34.054       78.310       76.890       42.109     6132.439     5912.004     1773.158        3.392        0.691      229.913       39.021        0.029      332.316        0.897      851.941
04/01/2014  04:39:00     -140.075      167.666      -47.494       47.725       59.592       29.582     2277.678     3551.224      875.101        2.834        0.335      218.478       24.456        0.013      332.256        0.797      851.946
04/01/2014  04:40:00     -174.051      131.499      -31.604       83.604       92.582       48.743     6989.696     8571.429     2375.862        3.326        0.897      218.142       45.639        0.044      332.307        0.882      851.945
04/01/2014  04:41:00     -190.868      204.281      -45.746       75.094      108.849       47.276     5639.128    11848.115     2235.033        4.998        0.986      279.573       40.594        0.021      332.336        0.930      851.929
04/01/2014  04:42:00     -169.355      155.774      -31.242       88.488       86.846       44.470     7830.039     7542.259     1977.575        3.563        0.867      230.101       39.749        0.030      332.315        0.895      851.892
04/01/2014  04:43:00     -201.655      186.984      -44.388       65.802       72.673       44.591     4329.905     5281.295     1988.363        4.460        0.580      275.005       40.336        0.022      332.297        0.865      851.846
04/01/2014  04:44:00     -241.031      231.184      -55.220       91.498      108.780       63.741     8371.960    11833.086     4062.894        6.942        1.213      333.979       50.142        0.023      332.322        0.905      851.816
04/01/2014  04:45:00     -181.065      296.761      -43.947       80.284       97.433       54.052     6445.488     9493.256     2921.580        7.082        0.943      347.637       48.656        0.020      332.365        0.977      851.770
04/01/2014  04:46:00     -152.320      221.234      -23.809       86.067      125.331       56.136     7407.608    15707.764     3151.215        4.948        1.313      268.600       59.272        0.049      332.424        1.074      851.724
04/01/2014  04:47:00     -192.556      289.212      -43.889       79.904       80.045       53.737     6384.701     6407.202     2887.689        6.916        0.784      347.450       40.812        0.014      332.396        1.028      851.734
04/01/2014  04:48:00     -233.264      116.917      -32.047      152.001      128.561       75.459    23104.360    16527.930     5694.119        5.721        2.266      260.925       83.941        0.103      332.393        1.024      851.719
04/01/2014  04:49:00     -158.758       22.757      -13.024       77.803      100.602       60.745     6053.325    10120.802     3689.966        2.287        0.993      160.380       47.557        0.088      332.422        1.073      851.699
04/01/2014  04:50:00     -224.333       92.475      -34.971      131.618       98.100       54.576    17323.240     9623.643     2978.545        4.501        1.496      242.646       47.144        0.038      332.423        1.073      851.707
04/01/2014  04:51:00     -200.302      -36.291      -26.014       91.416       84.571       39.551     8356.809     7152.217     1564.265        2.959        0.854      203.563       22.125        0.012      332.405        1.045      851.737
04/01/2014  04:52:00     -264.390      -83.982      -21.481      121.516      116.551       56.845    14766.087    13584.198     3231.354        5.449        1.579      277.407       42.786        0.024      332.320        0.902      851.753
04/01/2014  04:53:00     -110.457      -60.621        0.606      114.588       93.639       47.248    13130.498     8768.304     2232.395        2.000        1.207      125.999       32.304        0.066      332.341        0.938      851.780
04/01/2014  04:54:00     -247.456     -115.844      -22.776       98.641       81.970       40.575     9730.083     6719.136     1646.294        4.663        0.905      273.229       42.492        0.024      332.282        0.841      851.840
04/01/2014  04:55:00     -218.994      -92.792      -20.874       83.208       75.721       43.056     6923.501     5733.683     1853.853        3.575        0.726      237.842       35.891        0.023      332.263        0.809      851.876
04/01/2014  04:56:00     -169.266      -71.565       -9.406       69.132       75.047       43.830     4779.292     5632.122     1921.088        2.309        0.617      183.773       39.338        0.046      332.238        0.771      851.907
04/01/2014  04:57:00      -70.625      -20.169        7.904       79.390       41.365       31.751     6302.846     1711.027     1008.099        0.724        0.451       73.449       33.775        0.211      332.122        0.580      851.941
04/01/2014  04:58:00       -3.689       -0.550       11.745       45.069       32.469       26.694     2031.229     1054.219      712.580        0.197        0.190        3.730       27.633       54.898      332.120        0.577      851.950
04/01/2014  04:59:00       12.017       19.289        4.120       45.148       20.664       17.797     2038.379      426.996      316.744        0.166        0.139       22.726        8.981        0.156      332.135        0.601      851.975
04/01/2014  05:00:00       53.150      -91.926       -3.509       40.352       75.222       33.841     1628.268     5658.301     1145.208        0.986        0.422      106.185       34.592        0.106      332.323        0.911      852.028
04/01/2014  05:01:00      -32.245      -40.046        3.392       75.191       48.128       27.835     5653.643     2316.265      774.779        0.570        0.437       51.414       31.010        0.364      332.249        0.789      852.086
04/01/2014  05:02:00     -103.420      -35.025       -4.355       55.970       46.501       24.433     3132.594     2162.312      596.966        0.892        0.295      109.190       23.442        0.046      332.042        0.447      852.133
04/01/2014  05:03:00     -133.056      -19.207        2.046       70.714       80.605       29.521     5000.487     6497.243      871.501        1.522        0.618      134.435       26.389        0.039      331.917        0.240      852.167
04/01/2014  05:04:00      -96.895      -50.561       -3.399       93.155       61.537       29.599     8677.878     3786.793      876.078        1.265        0.667      109.293       24.837        0.052      332.081        0.511      852.197
04/01/2014  05:05:00      -19.888      -39.582       24.913       39.398       66.191       39.651     1552.227     4381.308     1572.179        0.504        0.375       44.297       37.596        0.720      332.176        0.669      852.185
04/01/2014  05:06:00       35.617       68.011       81.205       56.240       49.572       31.500     3162.922     2457.371      992.279        0.955        0.331       76.773       30.561        0.158      332.111        0.560      852.148
04/01/2014  05:07:00       85.286       95.012       91.846       54.702       46.029       36.954     2992.261     2118.625     1365.592        1.561        0.324      127.675       34.287        0.072      332.071        0.495      852.151
04/01/2014  05:08:00      120.289       89.714       57.260       46.260       40.886       39.648     2140.004     1671.705     1571.981        1.559        0.269      150.061       31.222        0.043      332.010        0.394      852.183
04/01/2014  05:09:00       91.756       51.504       32.080       47.679       45.306       30.401     2273.304     2052.650      924.238        0.867        0.263      105.223       24.824        0.056      331.998        0.375      852.197
04/01/2014  05:10:00      139.464       73.174       23.534       37.388       30.878       33.511     1397.861      953.436     1122.971        1.442        0.174      157.495       22.432        0.020      332.006        0.388      852.197
04/01/2014  05:11:00       81.543       74.060       -1.168       44.863       29.460       27.246     2012.675      867.862      742.349        0.788        0.181      110.155       21.234        0.037      331.999        0.377      852.187
04/01/2014  05:12:00       65.745       49.061        4.609       25.019       37.385       27.428      625.940     1397.661      752.315        0.476        0.139       82.033       21.537        0.069      331.979        0.343      852.186
04/01/2014  05:13:00      118.643       60.912        3.653       37.622       27.484       21.272     1415.423      755.390      452.514        1.021        0.131      133.366       18.242        0.019      331.925        0.255      852.196
04/01/2014  05:14:00      116.833       65.177       -4.766       28.355       27.286       24.431      803.988      744.510      596.878        1.003        0.107      133.784       16.756        0.016      331.923        0.251      852.204
04/01/2014  05:15:00      141.356       63.653       -0.036       31.801       25.034       22.392     1011.305      626.693      501.388        1.309        0.107      155.026       16.785        0.012      331.922        0.248      852.212
04/01/2014  05:16:00      136.290       64.204       -0.259       33.054       24.471       20.641     1092.542      598.833      426.036        1.241        0.106      150.656        8.912        0.003      331.890        0.198      852.208
04/01/2014  05:17:00       83.978       53.704        3.998       39.025       30.861       21.640     1522.928      952.415      468.270        0.645        0.147       99.682       19.197        0.037      331.850        0.131      852.206
04/01/2014  05:18:00       72.861       41.824       15.511       23.495       21.626       20.025      552.035      467.682      401.018        0.436        0.071       84.012       16.209        0.037      331.869        0.162      852.215
04/01/2014  05:19:00       92.576       57.805        0.394       15.532       15.219       14.913      241.234      231.624      222.387        0.630        0.035      109.141        5.253        0.002      331.971        0.330      852.235
04/01/2014  05:20:00       70.235       43.623       -2.350       24.769       17.867       12.228      613.518      319.233      149.524        0.396        0.054       82.680        8.624        0.011      331.985        0.355      852.240
04/01/2014  05:21:00       35.670       22.258        4.397       25.493       17.413       14.317      649.917      303.211      204.988        0.147        0.058       42.045        8.982        0.046      331.999        0.377      852.237
04/01/2014  05:22:00       57.581       49.636        9.598       35.166       23.197       23.305     1236.638      538.103      543.141        0.409        0.116       76.021       16.143        0.045      332.036        0.437      852.224
04/01/2014  05:23:00        9.101      104.685      -11.263       37.126       34.327       15.559     1378.375     1178.373      242.073        0.698        0.140      105.080       15.077        0.021      332.334        0.930      852.216
04/01/2014  05:24:00       20.479       91.948      -11.039       27.381       38.143       18.062      749.739     1454.923      326.239        0.576        0.127       94.201       15.256        0.026      332.445        1.112      852.224
04/01/2014  05:25:00       61.230       50.121       14.846       20.374       19.765       21.335      415.083      390.645      455.193        0.387        0.063       79.128        8.998        0.013      332.408        1.051      852.253
04/01/2014  05:26:00       -8.585       24.727        8.511       21.143       36.766       22.985      447.036     1351.749      528.297        0.154        0.116       26.175       23.123        0.780      332.367        0.984      852.259
04/01/2014  05:27:00      -18.902      -19.455        8.782       33.885       25.644       19.748     1148.204      657.592      389.979        0.150        0.110       27.125       18.381        0.459      332.225        0.750      852.248
04/01/2014  05:28:00      -77.112      -81.578       -9.117       49.747       36.018       22.273     2474.747     1297.323      496.099        0.848        0.213      112.255       21.315        0.036      332.096        0.537      852.231
04/01/2014  05:29:00      -76.924      -17.382        1.225       41.163       31.291       22.673     1694.393      979.112      514.079        0.470        0.159       78.863       23.221        0.087      332.022        0.413      852.231
04/01/2014  05:30:00      -96.044      -65.780       -1.749       30.161       44.187       20.055      909.656     1952.452      402.187        0.841        0.163      116.411       11.637        0.010      332.067        0.488      852.236
04/01/2014  05:31:00      -58.676      -39.841        0.986       46.868       32.437       16.439     2196.601     1052.150      270.240        0.427        0.176       70.924       21.569        0.092      332.113        0.564      852.245
04/01/2014  05:32:00       -7.606      -21.621        9.363       19.580       13.927       15.701      383.358      193.952      246.531        0.072        0.041       22.920       15.849        0.478      332.130        0.594      852.244
04/01/2014  05:33:00      -27.269      -26.026       -8.336       20.784       12.521       10.965      431.969      156.770      120.237        0.110        0.035       37.696        8.388        0.050      332.120        0.576      852.264
04/01/2014  05:34:00      -37.518      -37.605        7.504       38.371       30.220       18.671     1472.301      913.230      348.593        0.281        0.137       53.120       20.292        0.146      332.143        0.615      852.277
04/01/2014  05:35:00      -98.568      -88.180       -6.316       29.884       42.843       20.954      893.061     1835.485      439.075        1.035        0.158      132.254       22.401        0.029      332.111        0.561      852.303
04/01/2014  05:36:00      -97.407      -94.367        1.366       54.172       45.511       29.394     2934.612     2071.280      864.025        1.213        0.293      135.622       27.199        0.040      332.085        0.517      852.321
04/01/2014  05:37:00     -137.487      -98.057       -5.296       49.862       47.751       30.203     2486.264     2280.128      912.210        1.711        0.284      168.872       24.393        0.021      332.063        0.482      852.329
04/01/2014  05:38:00     -105.895      -35.428       -8.612       49.727       48.791       19.251     2472.806     2380.580      370.615        0.888        0.261      111.664       14.756        0.017      332.009        0.393      852.327
04/01/2014  05:39:00      -49.012       -2.901       -3.685       50.186       24.288       19.666     2518.683      589.930      386.769        0.296        0.175       49.098       26.858        0.299      331.947        0.291      852.306
04/01/2014  05:40:00     -122.061       -7.726       -6.920       38.367       24.827       21.514     1472.001      616.374      462.852        0.878        0.128      122.305       20.796        0.029      331.837        0.108      852.282
04/01/2014  05:41:00     -116.418      -61.064        4.167       53.247       46.444       24.730     2835.272     2157.069      611.555        1.145        0.280      131.461       26.431        0.040      331.881        0.181      852.292
04/01/2014  05:42:00      -98.547      -61.270        2.071       36.793       32.591       20.696     1353.704     1062.205      428.316        0.816        0.142      116.041       22.670        0.038      332.020        0.410      852.312
04/01/2014  05:43:00      -65.987      -47.297        0.486       50.044       24.367       16.886     2504.450      593.745      285.154        0.499        0.169       81.187       18.310        0.051      332.097        0.539      852.324
04/01/2014  05:44:00      -60.321      -35.350        5.581       28.618       29.181       20.804      818.978      851.524      432.815        0.351        0.105       69.916       21.388        0.094      332.151        0.629      852.333
04/01/2014  05:45:00      -83.611      -36.080       -0.223       24.759       23.227       15.214      612.991      539.487      231.459        0.484        0.069       91.063       10.265        0.013      332.126        0.586      852.339
04/01/2014  05:46:00      -25.622      -10.446        1.763       15.922       10.000        9.828      253.514      100.002       96.581        0.061        0.023       27.669        5.224        0.036      331.997        0.373      852.330
04/01/2014  05:47:00      -11.482       -6.059       -0.946       11.305        5.349        5.063      127.794       28.611       25.634        0.018        0.009       12.983        2.505        0.037      332.023        0.417      852.302
04/01/2014  05:48:00      -44.044      -22.282       -5.972        6.583        7.066        7.040       43.332       49.933       49.563        0.131        0.007       49.359        4.843        0.010      332.133        0.594      852.293
04/01/2014  05:49:00      -45.309       -4.369        1.249       14.171       19.109        9.757      200.808      365.159       95.196        0.137        0.033       45.519        8.125        0.032      331.985        0.354      852.295
04/01/2014  05:50:00      -46.301      -14.147       -3.594       18.655       22.560        8.597      348.019      508.962       73.913        0.164        0.047       48.414        9.285        0.037      331.885        0.188      852.307
04/01/2014  05:51:00       -7.039      -24.933       10.474       15.969       19.113       13.171      255.005      365.306      173.469        0.079        0.040       25.907       10.680        0.170      332.018        0.407      852.330
04/01/2014  05:52:00      -10.036      -22.006       14.754       33.354       15.799       12.238     1112.473      249.594      149.758        0.116        0.076       24.187       10.854        0.201      332.019        0.409      852.330
04/01/2014  05:53:00      -15.729       10.600       14.137       15.305        8.958       10.096      234.241       80.238      101.925        0.049        0.021       18.968        7.125        0.141      331.965        0.322      852.301
04/01/2014  05:54:00       14.322       37.071       26.168       22.258       19.824       17.358      495.397      392.992      301.294        0.173        0.059       39.741       16.051        0.163      331.914        0.236      852.270
04/01/2014  05:55:00      -28.526        0.578        0.843       33.419       19.460       11.591     1116.854      378.695      134.345        0.122        0.081       28.531        7.182        0.063      332.089        0.525      852.286
04/01/2014  05:56:00      -61.971      -24.556        4.680       40.274       25.077       18.358     1621.968      628.854      336.999        0.353        0.129       66.659       19.802        0.088      332.058        0.473      852.291
04/01/2014  05:57:00       19.462       17.599       27.584       22.116       27.781       20.346      489.139      771.793      413.978        0.156        0.084       26.239       21.383        0.664      332.058        0.475      852.271
04/01/2014  05:58:00      -11.327      -29.464      -19.928       19.641       18.000       18.695      385.758      323.993      349.485        0.123        0.053       31.566       12.839        0.165      332.179        0.673      852.245
04/01/2014  05:59:00      -33.231      -14.612       -1.314       16.511       12.261        8.366      272.607      150.320       69.986        0.091        0.025       36.302        5.503        0.023      332.137        0.604      852.250
04/01/2014  06:00:00       11.328        7.153       18.702        9.313       11.604        7.717       86.732      134.661       59.546        0.041        0.014       13.397        6.484        0.234      332.118        0.572      852.283
04/01/2014  06:01:00      -35.698      -22.506        1.884       33.403       24.091       15.916     1115.732      580.400      253.321        0.187        0.097       42.200       12.546        0.088      332.099        0.540      852.314
04/01/2014  06:02:00      -13.934       -8.628       14.640       27.646       26.408       13.504      764.282      697.404      182.357        0.106        0.082       16.389       16.903        1.064      332.064        0.484      852.331
04/01/2014  06:03:00       -7.247      -11.461        5.323       25.684       30.880       15.405      659.663      953.597      237.321        0.103        0.093       13.560       13.579        1.003      332.049        0.458      852.328
04/01/2014  06:04:00       -1.772       22.282       20.876       25.183       14.658       14.317      634.173      214.855      204.968        0.099        0.053       22.352       13.337        0.356      332.062        0.481      852.323
04/01/2014  06:05:00      -22.059      -14.559        0.863       17.348       10.629       11.691      300.968      112.980      136.689        0.062        0.028       26.430        8.937        0.114      332.094        0.534      852.361
04/01/2014  06:06:00      -22.096      -32.078        4.672       38.825       22.118       15.282     1507.372      489.200      233.548        0.188        0.112       38.952       12.802        0.108      331.985        0.354      852.409
04/01/2014  06:07:00      -28.307      -50.746        9.588       39.411       35.369       29.651     1553.216     1250.967      879.184        0.358        0.184       58.107       14.601        0.063      332.097        0.539      852.452
04/01/2014  06:08:00        6.568      -35.090        4.649       20.348       18.027       15.606      414.050      324.966      243.543        0.114        0.049       35.699        9.776        0.075      332.166        0.652      852.467
04/01/2014  06:09:00       -5.462      -26.505       -1.966       26.223       25.642       14.656      687.624      657.515      214.805        0.115        0.078       27.062        6.596        0.059      332.185        0.683      852.467
04/01/2014  06:10:00       -1.778      -21.022        2.509       15.552       16.766       12.851      241.853      281.113      165.138        0.057        0.034       21.097        8.792        0.174      332.228        0.755      852.467
04/01/2014  06:11:00      -19.141      -21.584        2.597       26.544       20.656       10.328      704.572      426.683      106.659        0.104        0.062       28.849        8.133        0.079      331.984        0.350      852.468
04/01/2014  06:12:00      -51.442      -35.208        7.178       34.039       31.955       15.374     1158.655     1021.109      236.374        0.318        0.121       62.337       10.455        0.028      331.991        0.364      852.474
04/01/2014  06:13:00        4.923       -0.131        2.087       15.757       12.623       15.432      248.297      159.340      238.144        0.034        0.032        4.925        5.746        1.361      332.058        0.475      852.475
04/01/2014  06:14:00       32.310       30.805        9.470       23.960       12.831       18.316      574.092      164.626      335.473        0.158        0.054       44.642       12.210        0.075      332.066        0.487      852.457
04/01/2014  06:15:00       67.283       39.881       30.052       38.962       23.421       21.969     1518.008      548.554      482.638        0.478        0.127       78.214       23.752        0.092      332.001        0.381      852.402
04/01/2014  06:16:00       31.653       43.885       35.991       31.730       27.083       19.023     1006.804      733.509      361.860        0.316        0.105       54.109       12.987        0.058      332.060        0.477      852.350
04/01/2014  06:17:00       28.528        8.929       15.242       36.216       26.320       16.680     1311.587      692.718      278.235        0.170        0.114       29.893       17.171        0.330      332.079        0.509      852.345
04/01/2014  06:18:00      -51.381      -22.594        7.487       35.880       20.670       19.264     1287.382      427.228      371.103        0.265        0.104       56.129       19.304        0.118      331.963        0.316      852.380
04/01/2014  06:19:00      -63.469        4.537        0.932       35.850       16.354       15.477     1285.187      267.454      239.537        0.292        0.090       63.631       19.444        0.093      331.639       -0.215      852.406
04/01/2014  06:20:00      -54.401       19.146       -2.663       11.794       12.190        8.896      139.094      148.589       79.131        0.185        0.018       57.672        4.297        0.006      331.798        0.044      852.398
04/01/2014  06:21:00      -27.036       11.664       -2.899       10.571        6.731        5.140      111.739       45.306       26.415        0.053        0.009       29.445        5.639        0.037      332.031        0.431      852.372
04/01/2014  06:22:00       -1.614        6.149        3.117        7.282        7.615        4.911       53.034       57.993       24.118        0.009        0.007        6.357        4.090        0.414      331.989        0.360      852.368
04/01/2014  06:23:00      -22.239       17.227        1.906       23.333       12.580        8.916      544.409      158.250       79.498        0.079        0.039       28.131        6.864        0.060      331.850        0.133      852.373
04/01/2014  06:24:00      -14.337       14.144        3.979       15.062        7.692        8.358      226.868       59.172       69.848        0.039        0.018       20.139        6.183        0.094      331.665       -0.173      852.377
04/01/2014  06:25:00       28.052       46.733        2.254       15.598       19.777       20.055      243.296      391.112      402.220        0.201        0.052       54.506       16.285        0.089      331.663       -0.177      852.380
04/01/2014  06:26:00       16.425       53.760       -9.883        9.227        8.716        5.316       85.144       75.977       28.262        0.172        0.009       56.214        3.521        0.004      331.778        0.013      852.399
04/01/2014  06:27:00        8.918       26.947       -3.062        9.477       13.645        8.730       89.811      186.180       76.210        0.058        0.018       28.384        7.587        0.071      331.754       -0.027      852.433
04/01/2014  06:28:00        8.767        8.443        4.206       11.472       16.274        6.617      131.611      264.830       43.785        0.030        0.022       12.171        5.049        0.172      331.733       -0.062      852.451
04/01/2014  06:29:00       -6.539       44.211       -5.262       20.374       14.954       18.058      415.083      223.612      326.081        0.149        0.048       44.692       13.364        0.089      331.838        0.111      852.465
04/01/2014  06:30:00      -15.738       -9.175       -3.779       12.821       13.127        5.323      164.377      172.323       28.338        0.036        0.018       18.217        3.786        0.043      331.800        0.048      852.475
04/01/2014  06:31:00      -51.406      -26.155       -6.219       12.065       10.477        7.622      145.573      109.766       58.098        0.184        0.016       57.677        7.350        0.016      331.746       -0.039      852.496
04/01/2014  06:32:00      -57.950      -22.228       -3.505       11.564       16.368        7.879      133.733      267.922       62.085        0.216        0.023       62.066        4.989        0.006      331.631       -0.228      852.526
04/01/2014  06:33:00      -41.522       -5.987       -1.958        8.371       13.492        8.079       70.066      182.037       65.272        0.104        0.016       41.952        4.142        0.010      331.562       -0.343      852.552
04/01/2014  06:34:00      -37.266       -2.722       -8.299        7.794        5.916        5.406       60.742       34.997       29.227        0.079        0.006       37.365        2.523        0.005      331.596       -0.287      852.566
04/01/2014  06:35:00      -41.812        2.863       -6.528        7.790        6.380        6.624       60.682       40.705       43.875        0.097        0.007       41.910        3.506        0.007      331.633       -0.227      852.575
04/01/2014  06:36:00      -34.570       -2.093       -1.631       10.923        8.896        6.775      119.310       79.131       45.899        0.072        0.012       34.633        4.432        0.016      331.743       -0.047      852.588
04/01/2014  06:37:00      -44.949        2.482       -3.941       12.220        9.965        6.978      149.326       99.303       48.689        0.117        0.015       45.017        4.965        0.012      331.770        0.000      852.598
04/01/2014  06:38:00      -28.185       18.918      -11.415        8.555        8.271        5.331       73.193       68.403       28.423        0.073        0.009       33.945        3.109        0.008      331.758       -0.019      852.597
04/01/2014  06:39:00      -24.638       25.065        1.107       19.201       13.329       13.209      368.663      177.674      174.477        0.098        0.036       35.146       14.975        0.182      331.736       -0.056      852.569
04/01/2014  06:40:00       13.477       34.624       -2.708       14.091       15.413       10.361      198.568      237.564      107.357        0.097        0.027       37.154        8.687        0.055      331.958        0.310      852.562
04/01/2014  06:41:00      -37.179       18.416       -8.098       19.895       15.179       11.193      395.814      230.392      125.290        0.127        0.038       41.490        7.190        0.030      331.789        0.031      852.594
04/01/2014  06:42:00      -63.138       21.051       -9.343       17.366       12.076        9.058      301.591      145.828       82.048        0.252        0.026       66.555        4.073        0.004      331.622       -0.244      852.640
04/01/2014  06:43:00      -21.101       34.997       -3.352       16.230       28.322       10.139      263.419      802.119      102.791        0.142        0.058       40.866        7.320        0.032      331.595       -0.288      852.652
04/01/2014  06:44:00        8.569      123.776      -14.213       19.044       29.403       15.372      362.665      864.554      236.306        0.853        0.073      124.072        9.406        0.006      331.771        0.000      852.626
04/01/2014  06:45:00       30.924      135.479      -19.261       19.356       24.857       15.909      374.664      617.889      253.087        1.046        0.062      138.964        7.962        0.003      331.823        0.087      852.604
04/01/2014  06:46:00       63.734       76.465      -11.576       43.065       49.272       24.883     1854.627     2427.757      619.167        0.747        0.245       99.543       21.118        0.045      331.716       -0.088      852.609
04/01/2014  06:47:00       64.258       47.082        3.900       38.444       32.530       29.302     1477.914     1058.219      858.624        0.488        0.170       79.661       21.038        0.070      331.638       -0.216      852.654
04/01/2014  06:48:00       54.189       21.454       18.111       18.744       15.654       18.338      351.340      245.035      336.270        0.233        0.047       58.281        9.862        0.029      331.546       -0.368      852.707
04/01/2014  06:49:00       28.519       47.298       -3.311       26.472       48.268       16.709      700.750     2329.826      279.174        0.318        0.165       55.231       17.689        0.103      331.578       -0.315      852.750
04/01/2014  06:50:00       58.731       45.329       11.002       25.958       19.986       19.981      673.801      399.421      399.244        0.355        0.074       74.190       11.535        0.024      331.568       -0.333      852.748
04/01/2014  06:51:00      100.946       79.037       14.205       51.095       33.238       22.868     2610.741     1104.764      522.958        1.044        0.212      128.207       12.627        0.010      331.557       -0.352      852.714
04/01/2014  06:52:00      157.840       88.996       12.803       48.807       40.950       38.499     2382.170     1676.920     1482.139        1.927        0.277      181.201       18.677        0.011      331.519       -0.414      852.656
04/01/2014  06:53:00      158.143       85.352       16.665       64.615       51.700       39.898     4175.037     2672.891     1591.824        2.050        0.422      179.706       18.352        0.010      331.506       -0.437      852.620
04/01/2014  06:54:00      130.363       63.031       17.004       63.564       37.267       30.780     4040.397     1388.858      947.384        1.382        0.319      144.802       14.832        0.010      331.490       -0.462      852.675
04/01/2014  06:55:00       58.826       31.467        1.886       45.209       23.926       19.504     2043.821      572.455      380.395        0.372        0.150       66.714       18.462        0.077      331.468       -0.499      852.782
04/01/2014  06:56:00       21.551        1.720       10.130       19.314       22.719       22.208      373.034      516.150      493.200        0.098        0.069       21.620        9.186        0.181      331.606       -0.270      852.829
04/01/2014  06:57:00       79.656       48.983       34.155       45.587       31.330       34.767     2078.146      981.549     1208.738        0.709        0.213       93.511       33.968        0.132      331.600       -0.281      852.817
04/01/2014  06:58:00      141.209       55.613        1.277       42.616       36.857       32.067     1816.098     1358.465     1028.320        1.362        0.210      151.766       24.289        0.026      331.619       -0.250      852.761
04/01/2014  06:59:00      156.772       86.251       17.345       53.492       55.351       35.769     2861.376     3063.773     1279.406        1.976        0.360      178.932       34.057        0.036      331.585       -0.306      852.659
04/01/2014  07:00:00      181.876       98.203        4.531       67.186       52.182       39.241     4513.906     2722.973     1539.869        2.576        0.439      206.695       39.640        0.037      331.505       -0.440      852.532
04/01/2014  07:01:00      128.778       91.536        6.875       65.574       53.341       40.157     4299.936     2845.263     1612.624        1.688        0.438      157.995       26.745        0.029      331.454       -0.522      852.466
04/01/2014  07:02:00       36.374       65.185       -7.523       53.806       42.861       36.278     2895.096     1837.065     1316.071        0.584        0.302       74.647       26.058        0.122      331.475       -0.488      852.507
04/01/2014  07:03:00      -41.915       78.000      -30.492       65.464       93.912       23.359     4285.547     8819.463      545.659        1.121        0.683       88.549       30.142        0.116      331.602       -0.277      852.621
04/01/2014  07:04:00     -105.852      -49.914      -10.241       55.349       34.073       22.206     3063.521     1160.996      493.124        0.926        0.236      117.030       18.835        0.026      331.679       -0.148      852.719
04/01/2014  07:05:00      -60.807       -1.335       -4.839       45.462       58.752       24.146     2066.799     3451.799      583.030        0.491        0.305       60.821       17.854        0.086      331.755       -0.025      852.728
04/01/2014  07:06:00       38.137       43.131       13.068       39.160       20.656       18.911     1533.473      426.651      357.621        0.290        0.116       57.573       11.218        0.038      331.765       -0.009      852.669
04/01/2014  07:07:00      106.110       69.132        6.379       26.562       23.351       22.332      705.540      545.249      498.723        0.891        0.087      126.644       17.539        0.019      331.778        0.013      852.576
04/01/2014  07:08:00      121.622       80.676       17.814       35.527       27.900       35.401     1262.184      778.393     1253.264        1.246        0.165      145.947       14.413        0.010      331.788        0.029      852.526
04/01/2014  07:09:00       57.178       67.400       56.465       65.023       51.470       35.729     4227.968     2649.190     1276.592        0.958        0.408       88.386       24.018        0.074      331.891        0.198      852.551
04/01/2014  07:10:00       17.598       62.103       55.653       44.185       46.303       37.937     1952.318     2143.969     1439.194        0.640        0.277       64.548       31.813        0.243      331.912        0.233      852.621
04/01/2014  07:11:00      -22.384       41.932        0.139       22.475       22.471       20.499      505.137      504.944      420.219        0.184        0.072       47.533       13.550        0.081      331.860        0.147      852.690
04/01/2014  07:12:00      -80.363       17.113       -8.905       25.204       27.985       15.477      635.227      783.178      239.527        0.424        0.083       82.165        7.636        0.009      331.924        0.252      852.738
04/01/2014  07:13:00     -120.078      -24.655       -8.664       25.942       23.216       16.522      672.983      538.989      272.966        0.829        0.074      122.583       15.817        0.017      331.906        0.222      852.769
04/01/2014  07:14:00      -69.720      -49.871        3.914       49.637       25.493       20.422     2463.871      649.882      417.075        0.545        0.177       85.721       20.833        0.059      331.994        0.367      852.802
04/01/2014  07:15:00      -36.699      -66.529        1.102       25.877       19.085       17.842      669.607      364.252      318.336        0.356        0.068       75.979       14.872        0.038      332.019        0.411      852.810
04/01/2014  07:16:00      -13.597      -16.458       -4.491       22.548       13.169       14.880      508.400      173.435      221.421        0.069        0.045       21.348       11.688        0.300      332.059        0.477      852.809
04/01/2014  07:17:00      -30.146        0.959        6.616       20.755       21.931       17.192      430.781      480.975      295.550        0.108        0.060       30.162       11.146        0.137      332.091        0.529      852.796
04/01/2014  07:18:00      -17.787       25.685       45.406       11.946       20.148       18.469      142.695      405.953      341.099        0.196        0.044       31.243       16.248        0.270      332.209        0.723      852.790
04/01/2014  07:19:00       -2.590       28.524       45.353       17.971       25.634       12.169      322.954      657.085      148.083        0.200        0.056       28.641       12.586        0.193      332.261        0.808      852.778
04/01/2014  07:20:00       16.086       40.218       57.380       28.614       33.527       23.195      818.772     1124.029      538.006        0.382        0.124       43.316       21.786        0.253      332.199        0.708      852.774
04/01/2014  07:21:00       48.756       41.481       33.766       31.422       27.332       26.147      987.352      747.042      683.645        0.383        0.121       64.014       19.085        0.089      332.186        0.685      852.767
04/01/2014  07:22:00       32.457       36.984       15.689       21.788       16.890       19.285      474.708      285.272      371.925        0.190        0.057       49.207       11.317        0.053      332.153        0.632      852.766
04/01/2014  07:23:00       32.287       38.406       -1.503       19.561       22.813       17.481      382.638      520.419      305.599        0.186        0.060       50.174       15.040        0.090      332.099        0.540      852.800
04/01/2014  07:24:00       10.597        2.550       12.184       14.685        5.443        7.499      215.651       29.624       56.241        0.028        0.015       10.899        2.587        0.056      332.225        0.751      852.827
04/01/2014  07:25:00      -11.301       17.533       -8.597       11.132        9.876        6.166      123.931       97.536       38.022        0.038        0.013       20.860        4.524        0.047      332.203        0.713      852.843
04/01/2014  07:26:00      -11.870        5.137        9.450        9.666        7.472        8.150       93.432       55.836       66.419        0.024        0.011       12.934        7.507        0.337      332.475        1.162      852.850
04/01/2014  07:27:00       11.928       51.556        0.329       14.189       29.308       14.948      201.328      858.932      223.456        0.204        0.064       52.918       15.558        0.086      332.265        0.814      852.840
04/01/2014  07:28:00       40.627       45.090        4.296       27.118       23.669       18.316      735.412      560.220      335.485        0.267        0.082       60.694       13.942        0.053      332.271        0.825      852.829
04/01/2014  07:29:00       92.865       73.442        1.507       41.933       29.933       25.205     1758.367      895.989      635.310        0.865        0.164      118.397       16.727        0.020      332.181        0.676      852.819
04/01/2014  07:30:00      129.217       71.591       -0.065       46.450       35.145       30.747     2157.636     1235.192      945.369        1.308        0.217      147.724       20.426        0.019      332.101        0.544      852.815
04/01/2014  07:31:00      130.609       91.944        7.199       41.381       26.173       22.908     1712.411      685.016      524.763        1.424        0.146      159.726       13.537        0.007      332.067        0.488      852.812
04/01/2014  07:32:00       99.450       54.062        8.484       30.056       25.260       27.165      903.354      638.044      737.934        0.758        0.114      113.195        4.953        0.002      332.024        0.418      852.826
04/01/2014  07:33:00       97.833       66.828       12.739       29.088       23.311       28.333      846.105      543.410      802.776        0.820        0.110      118.479       18.818        0.025      331.956        0.306      852.839
04/01/2014  07:34:00       41.530       53.451       -6.483       36.222       30.407       14.578     1312.056      924.602      212.524        0.354        0.122       67.689       16.388        0.059      331.991        0.363      852.857
04/01/2014  07:35:00       24.985       50.337        1.450       23.981       22.193       21.311      575.084      492.545      454.174        0.234        0.076       56.196       17.757        0.100      332.045        0.453      852.863
04/01/2014  07:36:00       54.082       70.239        0.694       28.988       30.904       29.836      840.295      955.066      890.208        0.527        0.134       88.647       21.244        0.057      332.093        0.531      852.852
04/01/2014  07:37:00       61.972       29.328        8.051       35.497       24.935       23.016     1260.016      621.769      529.721        0.359        0.121       68.561       18.124        0.070      332.225        0.749      852.837
04/01/2014  07:38:00       58.899       35.375        6.473       34.779       24.678       25.714     1209.597      609.007      661.206        0.362        0.124       68.706       23.174        0.114      332.348        0.952      852.835
04/01/2014  07:39:00       79.694       40.806        0.014       34.330       31.720       25.124     1178.534     1006.140      631.226        0.542        0.141       89.534       16.406        0.034      332.237        0.769      852.842
04/01/2014  07:40:00       57.684       28.800        6.014       30.843       30.088       25.041      951.313      905.275      627.075        0.334        0.124       64.474       17.305        0.072      332.247        0.786      852.851
04/01/2014  07:41:00       28.489       33.791       -0.144       15.323       21.353       18.251      234.788      455.938      333.083        0.149        0.051       44.198        8.767        0.039      332.215        0.733      852.873
04/01/2014  07:42:00       45.390       35.822       -1.643       20.057       16.182       12.416      402.266      261.843      154.146        0.208        0.041       57.823        9.868        0.029      332.099        0.542      852.893
04/01/2014  07:43:00       38.725       15.985        4.053       11.704       13.065       12.058      136.992      170.704      145.384        0.111        0.023       41.895        3.811        0.008      332.242        0.777      852.912
04/01/2014  07:44:00       68.588       46.081        1.232       31.921       23.073       20.098     1018.957      532.362      403.936        0.439        0.098       82.630       13.274        0.026      332.204        0.716      852.904
04/01/2014  07:45:00       76.584       39.089       11.300       35.875       43.606       34.681     1287.036     1901.505     1202.769        0.596        0.220       85.983       14.046        0.027      332.358        0.969      852.904
04/01/2014  07:46:00       70.660       63.227        9.594       29.328       25.102       31.585      860.130      630.134      997.641        0.578        0.124       94.818       19.966        0.044      332.314        0.896      852.910
04/01/2014  07:47:00       47.420       49.969        1.900       39.178       39.543       25.448     1534.929     1563.621      647.595        0.425        0.187       68.888       20.349        0.087      332.298        0.870      852.929
04/01/2014  07:48:00       41.076       63.700        0.618       29.842       31.742       23.739      890.519     1007.572      563.526        0.410        0.123       75.795       19.594        0.067      332.271        0.825      852.958
04/01/2014  07:49:00       16.210       57.402        3.721       26.280       31.387       19.424      690.660      985.135      377.294        0.281        0.103       59.646       17.245        0.084      332.292        0.861      852.991
04/01/2014  07:50:00       12.126       60.563        3.100       23.983       24.119       20.130      575.183      581.716      405.216        0.269        0.078       61.765       15.444        0.063      332.353        0.960      853.005
04/01/2014  07:51:00       51.469       61.674       -0.810       24.977       26.899       19.953      623.839      723.566      398.102        0.410        0.087       80.329       18.549        0.053      332.275        0.831      853.008
04/01/2014  07:52:00        2.365       68.977        4.498       24.080       41.581       25.047      579.865     1728.938      627.376        0.386        0.147       69.018       26.031        0.142      332.540        1.269      853.020
04/01/2014  07:53:00       67.690       41.593        8.658       23.655       18.777       22.013      559.564      352.581      484.564        0.389        0.070       79.448       11.974        0.023      332.461        1.140      853.024
04/01/2014  07:54:00       80.389       60.635        7.746       38.222       35.625       30.467     1460.954     1269.128      928.231        0.693        0.183      100.693       21.238        0.044      332.456        1.130      853.030
04/01/2014  07:55:00       45.091       80.800       -4.044       28.153       25.423       27.434      792.578      646.327      752.613        0.538        0.110       92.530       19.519        0.044      332.319        0.905      853.049
04/01/2014  07:56:00       91.657       53.788        9.505       18.913       19.756       19.841      357.714      390.280      393.661        0.626        0.057      106.275       11.673        0.012      332.255        0.799      853.076
04/01/2014  07:57:00       76.942       66.433        9.170       42.328       31.859       30.316     1791.681     1015.006      919.075        0.707        0.186      101.653       14.795        0.021      332.371        0.990      853.100
04/01/2014  07:58:00       99.359       54.385       25.788       38.605       33.567       34.546     1490.359     1126.772     1193.426        0.865        0.191      113.269       23.100        0.042      332.416        1.065      853.104
04/01/2014  07:59:00       90.979       67.619       35.125       45.875       28.686       41.359     2104.552      822.914     1710.556        0.936        0.232      113.356       34.563        0.093      332.375        0.996      853.101
04/01/2014  08:00:00       61.351       70.935       53.571       67.733       52.501       58.790     4587.822     2756.397     3456.271        1.123        0.540       93.786       53.295        0.323      332.527        1.249      853.085
04/01/2014  08:01:00       48.092       70.674       69.648       63.517       47.453       51.889     4034.363     2251.742     2692.439        1.057        0.449       85.485       50.001        0.342      332.547        1.281      853.083
04/01/2014  08:02:00       65.268      121.070      123.334       76.305       63.575       47.790     5822.503     4041.835     2283.865        2.314        0.607      137.543       44.871        0.106      332.492        1.188      853.079
04/01/2014  08:03:00       70.597       99.786      131.775       70.667       68.184       46.972     4993.843     4649.057     2206.381        2.208        0.592      122.234       44.540        0.133      332.421        1.071      853.070
04/01/2014  08:04:00      101.155      169.696      130.914       71.478       61.652       55.983     5109.103     3801.028     3134.061        3.410        0.602      197.558       49.044        0.062      332.282        0.840      853.065
04/01/2014  08:05:00       77.228      118.867      122.548       80.068       76.574       58.836     6410.816     5863.578     3461.626        2.542        0.787      141.751       58.289        0.169      332.302        0.873      853.054
04/01/2014  08:06:00       53.729       90.003      101.400       68.477       72.764       46.063     4689.146     5294.584     2121.828        1.669        0.605      104.821       46.029        0.193      332.477        1.163      853.069
04/01/2014  08:07:00      108.270       90.019       56.696       52.669       54.487       55.814     2774.039     2968.834     3115.189        1.595        0.443      140.804       45.587        0.105      332.410        1.053      853.110
04/01/2014  08:08:00      127.350       73.098       37.041       66.816       52.532       46.598     4464.408     2759.599     2171.358        1.616        0.470      146.837       33.995        0.054      332.378        1.000      853.117
04/01/2014  08:09:00       60.362       47.695       40.071       54.202       43.158       47.018     2937.809     1862.631     2210.667        0.727        0.351       76.932       35.381        0.212      332.579        1.333      853.128
04/01/2014  08:10:00       90.514       79.638       52.877       58.274       43.065       43.902     3395.802     1854.570     1927.352        1.225        0.359      120.561       36.246        0.090      332.448        1.116      853.133
04/01/2014  08:11:00       88.434       60.598       74.357       52.420       49.728       43.901     2747.874     2472.868     1927.258        1.208        0.357      107.204       35.564        0.110      332.543        1.273      853.134
04/01/2014  08:12:00       61.991       75.057       85.802       66.544       52.282       51.011     4428.118     2733.389     2602.075        1.330        0.488       97.347       45.877        0.222      332.538        1.266      853.144
04/01/2014  08:13:00       92.251       50.749       58.516       62.572       47.543       44.343     3915.265     2260.350     1966.266        1.132        0.407      105.289       42.816        0.165      332.613        1.388      853.136
04/01/2014  08:14:00      110.434       57.882       35.782       73.397       54.404       43.863     5387.148     2959.840     1923.953        1.355        0.514      124.684       26.255        0.044      332.507        1.213      853.130
04/01/2014  08:15:00      107.776       62.725       18.891       70.998       55.441       31.470     5040.685     3073.712      990.360        1.250        0.455      124.700       24.581        0.039      332.526        1.245      853.154
04/01/2014  08:16:00       82.373       54.337       16.009       56.402       42.792       38.536     3181.196     1831.153     1485.004        0.824        0.325       98.680       25.135        0.065      332.750        1.614      853.172
04/01/2014  08:17:00       94.030       42.213        3.880       39.283       33.749       26.484     1543.177     1138.973      701.421        0.701        0.169      103.071       10.357        0.010      332.717        1.562      853.199
04/01/2014  08:18:00      145.591       98.334       29.152       51.076       42.217       46.979     2608.734     1782.266     2207.020        1.916        0.330      175.688       30.797        0.031      332.599        1.366      853.212
04/01/2014  08:19:00      160.840      101.257       16.922       64.743       31.945       32.581     4191.613     1020.488     1061.524        2.134        0.314      190.059       15.853        0.007      332.540        1.266      853.235
04/01/2014  08:20:00      132.020      102.292        7.265       68.829       44.586       49.574     4737.455     1987.923     2457.536        1.856        0.459      167.011       23.229        0.019      332.679        1.498      853.255
04/01/2014  08:21:00      132.542       59.052       43.550       66.156       54.454       52.238     4376.557     2965.220     2728.778        1.651        0.504      145.102       43.927        0.092      332.782        1.668      853.283
04/01/2014  08:22:00      106.771       40.238        8.704       71.331       43.457       41.892     5088.177     1888.486     1754.976        1.091        0.437      114.102       29.285        0.066      333.084        2.166      853.298
04/01/2014  08:23:00      124.777       59.339       60.245      113.930       55.217       52.054    12980.074     3048.960     2709.626        2.073        0.937      138.168       45.634        0.109      333.144        2.265      853.305
04/01/2014  08:24:00       69.960       80.401       79.273       74.763       59.966       42.072     5589.504     3595.967     1770.052        1.430        0.548      106.578       39.158        0.135      333.033        2.083      853.296
04/01/2014  08:25:00       66.490       30.252       37.957       58.130       64.535       48.799     3379.127     4164.775     2381.367        0.835        0.496       73.048       43.561        0.356      332.977        1.990      853.281
04/01/2014  08:26:00        6.749       98.907      118.217       35.681       47.949       36.718     1273.100     2299.096     1348.196        1.436        0.246       99.137       29.721        0.090      333.073        2.149      853.257
04/01/2014  08:27:00      159.968       89.397       57.920       91.298       68.751       58.428     8335.319     4726.726     3413.803        2.670        0.824      183.253       58.442        0.102      332.876        1.822      853.241
04/01/2014  08:28:00       55.594       74.447       82.385       84.186       65.090       66.905     7087.262     4236.764     4476.280        1.561        0.790       92.915       57.111        0.378      333.106        2.202      853.211
04/01/2014  08:29:00       98.127       92.037       24.076       69.180       50.160       68.458     4785.827     2516.058     4686.486        1.533        0.599      134.535       44.142        0.108      333.166        2.302      853.197
04/01/2014  08:30:00      139.408       94.007       14.649       94.971       77.668       48.996     9019.512     6032.283     2400.560        2.297        0.873      168.143       33.820        0.040      333.116        2.219      853.193
04/01/2014  08:31:00      208.209      144.910       16.178       62.210       52.932       45.819     3870.100     2801.797     2099.399        3.669        0.439      253.672       26.563        0.011      332.842        1.762      853.191
04/01/2014  08:32:00      145.161       89.266       22.581       58.152       45.485       42.200     3381.704     2068.878     1780.824        1.839        0.362      170.411       32.447        0.036      332.930        1.911      853.217
04/01/2014  08:33:00       73.941       60.478       31.372       63.851       53.267       41.742     4076.948     2837.324     1742.401        0.938        0.433       95.524       31.714        0.110      333.197        2.353      853.226
04/01/2014  08:34:00       61.045       61.851        6.372       34.566       41.807       33.298     1194.842     1747.850     1108.739        0.582        0.203       86.903       26.511        0.093      333.050        2.110      853.204
04/01/2014  08:35:00       94.553       89.480       58.942       63.362       43.932       43.980     4014.738     1930.048     1934.212        1.415        0.394      130.180       37.947        0.085      333.472        2.808      853.181
04/01/2014  08:36:00       69.484       98.041       37.123       81.804       60.957       65.891     6691.834     3715.701     4341.607        1.528        0.737      120.167       52.770        0.193      333.396        2.681      853.149
04/01/2014  08:37:00       91.082       76.922       44.120       85.132       60.107       48.508     7247.403     3612.804     2353.001        1.468        0.661      119.218       49.800        0.174      333.542        2.925      853.136
04/01/2014  08:38:00      191.341      118.924       18.938       60.099       44.014       45.921     3611.869     1937.227     2108.762        2.938        0.383      225.287       31.027        0.019      333.108        2.205      853.142
04/01/2014  08:39:00      139.980      114.963        5.543       63.973       53.175       48.135     4092.542     2827.621     2316.997        2.104        0.462      181.138       26.811        0.022      333.209        2.372      853.154
04/01/2014  08:40:00       90.319       46.539       33.891       73.287       61.044       42.752     5371.039     3726.367     1827.735        1.120        0.546      101.604       27.524        0.073      333.524        2.894      853.169
04/01/2014  08:41:00       76.080      100.610       88.999       92.072       59.092       58.406     8477.270     3491.923     3411.289        1.960        0.769      126.136       48.722        0.149      333.492        2.841      853.199
04/01/2014  08:42:00      185.221      119.545        4.143       73.843       44.670       48.867     5452.754     1995.397     2388.031        2.922        0.492      220.449       38.842        0.031      332.938        1.925      853.231
04/01/2014  08:43:00      111.919       49.370       12.432       73.784       51.311       43.245     5444.100     2632.780     1870.141        1.253        0.497      122.325       17.195        0.020      333.079        2.159      853.256
04/01/2014  08:44:00       82.368      -63.494       29.412       58.659      118.280       46.201     3440.919    13990.135     2134.537        1.562        0.978      104.000       43.637        0.176      333.461        2.791      853.272
04/01/2014  08:45:00       61.342       56.264       95.936       50.582      102.931       61.416     2558.532    10594.696     3771.904        1.653        0.846       83.238       73.630        0.782      333.661        3.122      853.275
04/01/2014  08:46:00      104.364       73.378       88.556       71.704       67.122       51.404     5141.417     4505.343     2642.333        1.820        0.614      127.578       46.623        0.134      333.385        2.665      853.279
04/01/2014  08:47:00       93.447      131.395       92.293       87.804       53.469       60.873     7709.456     2858.960     3705.537        2.439        0.714      161.236       67.649        0.176      333.306        2.533      853.277
04/01/2014  08:48:00      108.615       86.382       13.549       48.753       46.963       40.282     2376.865     2205.485     1622.655        1.282        0.310      138.777       11.793        0.007      333.165        2.301      853.274
04/01/2014  08:49:00      137.065       80.206       33.246       66.173       31.787       35.937     4378.915     1010.402     1291.482        1.650        0.334      158.808       34.980        0.049      333.303        2.528      853.241
04/01/2014  08:50:00       62.485      108.844      108.324      107.333       59.514       46.006    11520.274     3541.918     2116.539        2.233        0.859      125.504       33.766        0.072      333.680        3.152      853.225
04/01/2014  08:51:00      133.866      131.986      111.387       77.124       69.766       75.892     5948.130     4867.236     5759.616        3.216        0.829      187.990       40.992        0.048      333.255        2.448      853.221
04/01/2014  08:52:00      116.032      136.623      118.114      123.179       97.493       66.653    15173.087     9504.950     4442.582        3.759        1.456      179.246       64.421        0.129      333.244        2.430      853.211
04/01/2014  08:53:00       87.014       66.160       85.875       78.905       65.932       47.690     6225.923     4347.049     2274.336        1.608        0.642      109.309       31.230        0.082      333.671        3.138      853.211
04/01/2014  08:54:00       72.509       28.385       91.468       86.055       80.604       59.242     7405.394     6496.996     3509.599        1.592        0.871       77.867       56.324        0.523      333.723        3.222      853.205
04/01/2014  08:55:00       16.428       63.701      134.168       57.649       89.569       61.557     3323.405     8022.620     3789.236        1.873        0.757       65.785       57.074        0.753      333.864        3.457      853.183
04/01/2014  08:56:00       45.818       31.406       95.592       73.769       86.186       50.235     5441.821     7428.090     2523.562        1.381        0.770       55.549       39.623        0.509      333.937        3.579      853.179
04/01/2014  08:57:00       19.659       38.021       84.626       83.466       99.251       70.554     6966.568     9850.759     4977.810        1.539        1.090       42.802       72.415        2.862      333.901        3.521      853.196
04/01/2014  08:58:00       65.783       80.586       80.587       66.688       68.922       45.287     4447.274     4750.246     2050.890        1.428        0.562      104.026       36.459        0.123      333.853        3.440      853.227
04/01/2014  08:59:00      114.626      -61.824       10.697       79.090       85.130       39.570     6255.197     7247.095     1565.789        1.607        0.753      130.236       38.782        0.089      333.600        3.020      853.247
04/01/2014  09:00:00      131.506     -108.654        9.465      111.164       92.179       61.673    12357.419     8496.915     3803.600        2.692        1.233      170.585       65.156        0.146      333.809        3.366      853.260
04/01/2014  09:01:00       52.146       42.628       83.917       61.844       42.675       31.469     3824.658     1821.128      990.277        0.911        0.332       67.353       22.566        0.112      333.863        3.457      853.290
04/01/2014  09:02:00       85.509       26.061       77.697       79.178      140.028       92.742     6269.130    19607.758     8601.117        2.425        1.724       89.392       97.615        1.192      333.715        3.210      853.291
04/01/2014  09:03:00       87.801      -86.135        3.031       77.182      100.439       57.813     5957.075    10087.903     3342.345        1.726        0.969      122.997       52.420        0.182      333.835        3.408      853.312
04/01/2014  09:04:00       73.930       60.618       53.501       55.647       57.082       56.575     3096.622     3258.366     3200.726        1.078        0.478       95.604       40.740        0.182      333.550        2.939      853.338
04/01/2014  09:05:00      131.640       75.368       69.153       77.403       66.251       58.721     5991.231     4389.244     3448.142        2.081        0.691      151.688       51.202        0.114      333.498        2.851      853.331
04/01/2014  09:06:00      100.238       80.004       55.809       35.378       31.863       35.261     1251.584     1015.277     1243.307        1.154        0.176      128.251       23.645        0.034      333.376        2.649      853.333
04/01/2014  09:07:00      127.086       59.555       20.901       87.407       65.134       44.679     7639.944     4242.452     1996.181        1.700        0.694      140.348       26.043        0.034      333.304        2.529      853.334
04/01/2014  09:08:00      101.316       31.019       38.060       60.445       68.566       42.327     3653.632     4701.336     1791.585        1.141        0.507      105.958       36.975        0.122      333.480        2.823      853.333
04/01/2014  09:09:00      162.107       92.919       51.444       81.520       71.589       52.635     6645.532     5125.018     2770.412        2.605        0.727      186.849       42.881        0.053      333.583        2.991      853.327
04/01/2014  09:10:00      132.939      133.735      108.107       81.600       59.349       59.615     6658.593     3522.329     3553.900        3.049        0.687      188.568       38.070        0.041      333.302        2.526      853.305
04/01/2014  09:11:00      107.973      105.501       72.137       72.693       57.042       74.926     5284.324     3253.780     5613.918        2.107        0.708      150.960       68.031        0.203      333.390        2.673      853.300
04/01/2014  09:12:00      100.828      110.755      128.607       86.971       92.256       71.311     7563.987     8511.114     5085.299        3.006        1.058      149.776       64.506        0.185      333.538        2.916      853.280
04/01/2014  09:13:00       83.742      112.358      107.570      103.009       81.812       59.005    10610.762     6693.192     3481.633        2.599        1.039      140.132       49.038        0.122      333.706        3.195      853.291
04/01/2014  09:14:00       75.601       85.618      131.664       91.517       79.837       55.140     8375.365     6373.938     3040.440        2.408        0.889      114.219       52.622        0.212      333.764        3.291      853.299
04/01/2014  09:15:00       80.844      128.213      115.897       70.696       58.112       44.768     4997.880     3376.999     2004.202        2.339        0.519      151.573       31.902        0.044      333.835        3.409      853.310
04/01/2014  09:16:00      196.427      123.561       23.236       76.662       71.237       55.618     5877.075     5074.646     3093.324        3.422        0.702      232.058       34.023        0.021      333.756        3.275      853.332
04/01/2014  09:17:00       62.160       95.838       95.283       99.494       72.449       65.121     9899.080     5248.835     4240.697        2.075        0.969      114.231       48.214        0.178      333.952        3.603      853.336
04/01/2014  09:18:00       57.202       66.333       14.745       76.517       68.616       44.862     5854.903     4708.107     2012.609        1.023        0.629       87.590       35.665        0.166      333.872        3.472      853.362
04/01/2014  09:19:00      177.945      162.150        4.774       92.057       57.821       63.522     8474.557     3343.234     4035.062        3.691        0.793      240.743       42.201        0.031      333.588        2.998      853.365
04/01/2014  09:20:00      133.159      105.777       44.731       66.879       50.510       62.373     4472.784     2551.235     3890.448        2.092        0.546      170.059       42.573        0.063      333.710        3.202      853.363
04/01/2014  09:21:00      116.607       75.804       34.441       76.917       55.159       49.318     5916.258     3042.464     2432.235        1.596        0.570      139.081       39.574        0.081      333.693        3.174      853.364
04/01/2014  09:22:00      156.870      113.893       95.935      142.357       80.270       87.638    20265.551     6443.305     7680.343        4.058        1.719      193.855       82.828        0.183      333.959        3.612      853.348
04/01/2014  09:23:00      198.805      162.402       29.355      103.696       74.914       74.088    10752.859     5612.180     5488.973        4.430        1.093      256.706       41.160        0.026      333.524        2.892      853.384
04/01/2014  09:24:00       98.434       99.600        8.665       71.790       66.524       50.975     5153.761     4425.393     2598.401        1.593        0.609      140.034       34.809        0.062      333.767        3.297      853.389
04/01/2014  09:25:00      134.961       75.233       30.609      114.200       92.851       59.072    13041.747     8621.378     3489.544        2.498        1.258      154.514       49.089        0.101      333.896        3.510      853.382
04/01/2014  09:26:00      248.435      204.440       26.209      137.610      101.184       78.765    18936.516    10238.273     6203.883        6.978        1.769      321.738       47.262        0.022      333.449        2.767      853.369
04/01/2014  09:27:00      266.779      169.151        8.026      108.198       75.607       66.181    11706.810     5716.421     4379.909        6.082        1.090      315.885       40.718        0.017      333.532        2.905      853.374
04/01/2014  09:28:00      116.461      127.199        6.153      104.379       98.183       66.006    10894.992     9639.910     4356.822        2.733        1.245      172.461       54.607        0.100      333.506        2.863      853.390
04/01/2014  09:29:00      111.898       85.331       20.361      114.706       67.918       66.339    13157.575     4612.887     4400.893        2.119        1.109      140.722       34.194        0.059      333.751        3.269      853.394
04/01/2014  09:30:00      155.343      116.167       40.408      132.331       83.491       60.548    17511.427     6970.668     3666.064        3.370        1.407      193.974       32.221        0.028      333.743        3.256      853.398
04/01/2014  09:31:00      102.928       88.714       20.643       76.374       58.788       43.429     5832.952     3456.019     1886.106        1.503        0.559      135.883       34.172        0.063      333.779        3.316      853.402
04/01/2014  09:32:00      225.985      134.142       15.413       89.897       73.117       53.483     8081.522     5346.098     2860.483        4.279        0.814      262.799       28.945        0.012      333.796        3.342      853.430
04/01/2014  09:33:00      130.191      126.787       97.261      147.002       93.472       76.147    21609.643     8737.108     5798.360        3.931        1.807      181.727       71.034        0.153      334.096        3.840      853.455
04/01/2014  09:34:00      276.597      184.766       37.345       76.039       73.200       66.371     5781.907     5358.183     4405.047        6.379        0.777      332.633        9.678        0.001      333.414        2.708      853.489
04/01/2014  09:35:00      161.396       93.979       45.327       81.644       82.204       50.519     6665.772     6757.525     2552.122        2.645        0.799      186.764       31.479        0.028      333.478        2.818      853.513
04/01/2014  09:36:00      112.031       77.546       25.569       56.361       41.129       46.319     3176.607     1691.631     2145.446        1.311        0.351      136.251       36.507        0.072      333.730        3.236      853.523
04/01/2014  09:37:00      112.769       83.760       62.884       98.509       58.025       57.787     9703.969     3366.899     3339.345        2.005        0.821      140.473       58.461        0.173      333.933        3.571      853.541
04/01/2014  09:38:00       95.810       85.205       75.269       90.260       72.209       68.533     8146.947     5214.115     4696.706        2.008        0.903      128.216       54.672        0.182      333.729        3.235      853.535
04/01/2014  09:39:00       -1.315       11.376       16.657       37.087       33.527       26.060     1375.474     1124.048      679.123        0.179        0.159       11.452        9.988        0.761      333.931        3.570      853.530
04/01/2014  09:40:00       42.009       53.486       14.365       33.479       37.042       26.526     1120.845     1372.113      703.643        0.401        0.160       68.011       19.355        0.081      334.046        3.761      853.523
04/01/2014  09:41:00       97.198       54.221       25.374       49.399       32.230       38.259     2440.287     1038.787     1463.783        0.899        0.247      111.299       26.893        0.058      333.802        3.355      853.522
04/01/2014  09:42:00       86.137       61.535       47.012       41.181       39.121       41.577     1695.854     1530.461     1728.688        0.918        0.248      105.859       24.100        0.052      333.876        3.478      853.518
04/01/2014  09:43:00      115.077      100.628       65.325       86.016       55.822       63.592     7398.789     3116.062     4043.982        2.109        0.728      152.868       56.244        0.135      334.122        3.885      853.506
04/01/2014  09:44:00      164.399       41.542       20.958      105.840       84.396       67.900    11202.101     7122.628     4610.379        2.606        1.147      169.567       45.210        0.071      334.108        3.861      853.486
04/01/2014  09:45:00      135.245      143.351      115.860       78.323       79.651       67.378     6134.450     6344.338     4539.737        3.464        0.851      197.080       51.720        0.069      333.996        3.674      853.484
04/01/2014  09:46:00       92.078      -29.600       54.295       74.721      113.678       84.597     5583.181    12922.706     7156.713        1.898        1.283       96.718       90.359        0.873      334.262        4.117      853.491
04/01/2014  09:47:00       73.363      -25.611       39.260       82.771      105.721       52.514     6851.113    11177.000     2757.754        1.418        1.039       77.705       57.795        0.553      334.310        4.197      853.498
04/01/2014  09:48:00       88.572       35.680       -4.198       77.137       49.422       36.491     5950.147     2442.569     1331.612        0.943        0.486       95.489       24.177        0.064      333.913        3.539      853.528
04/01/2014  09:49:00       50.522       33.656       28.544       45.521       44.755       27.448     2072.130     2002.985      753.400        0.466        0.241       60.706        6.993        0.013      334.775        4.971      853.543
04/01/2014  09:50:00       71.546       83.051       13.652       75.247       45.137       37.855     5662.092     2037.339     1433.008        1.067        0.457      109.618       32.532        0.088      334.134        3.908      853.551
04/01/2014  09:51:00      174.397      114.819       20.191       76.767       64.585       51.015     5893.158     4171.180     2602.540        2.833        0.633      208.801       27.013        0.017      333.720        3.217      853.542
04/01/2014  09:52:00      101.536       83.877        8.414       60.597       40.380       38.297     3671.962     1630.557     1466.696        1.209        0.338      131.700       23.713        0.032      334.082        3.821      853.538
04/01/2014  09:53:00       60.208       28.219       -4.559       46.100       44.881       30.775     2125.221     2014.316      947.105        0.476        0.254       66.493        4.170        0.004      334.009        3.698      853.538
04/01/2014  09:54:00      103.082       59.978       18.212       60.685       42.151       36.524     3682.613     1776.680     1334.017        1.067        0.340      119.261       22.335        0.035      334.121        3.883      853.535
04/01/2014  09:55:00       93.376       90.004       52.233       64.379       65.058       70.143     4144.693     4232.505     4920.072        1.642        0.665      129.691       57.788        0.199      334.311        4.198      853.513
04/01/2014  09:56:00       30.610       17.459       49.486       60.385       75.243       55.586     3646.330     5661.536     3089.804        0.804        0.620       35.239       43.655        1.535      334.487        4.491      853.502
04/01/2014  09:57:00       98.022       85.574      108.552       88.817       86.389       71.587     7888.430     7463.085     5124.671        2.459        1.024      130.120       63.714        0.240      334.358        4.274      853.507
04/01/2014  09:58:00       97.820      -22.475       23.688       94.162       89.341       60.797     8866.525     7981.825     3696.257        1.559        1.027      100.369       49.246        0.241      334.300        4.179      853.516
04/01/2014  09:59:00       91.016      -29.586       75.921      104.527      143.695       90.374    10925.910    20648.233     8167.502        2.732        1.987       95.704      105.704        1.220      334.431        4.397      853.542
04/01/2014  10:00:00      157.419     -156.765       -7.665       60.331      102.767       54.981     3639.780    10560.963     3022.951        3.332        0.861      222.162       54.942        0.061      333.999        3.678      853.590
04/01/2014  10:01:00       50.191       47.231       70.640       50.155       31.197       38.768     2515.569      973.270     1502.931        0.736        0.250       68.919       24.765        0.129      334.073        3.804      853.585
04/01/2014  10:02:00       31.420       46.027       27.481       29.828       25.512       27.191      889.720      650.876      739.373        0.307        0.114       55.729       21.643        0.151      334.073        3.805      853.573
04/01/2014  10:03:00       46.861       15.876       23.204       38.319       34.643       31.258     1468.369     1200.111      977.060        0.332        0.182       49.477       19.793        0.160      334.292        4.169      853.576
04/01/2014  10:04:00       60.209       38.309       17.975       81.840       49.786       41.795     6697.752     2478.666     1746.800        0.817        0.546       71.364       30.332        0.181      334.496        4.506      853.560
04/01/2014  10:05:00      152.288       96.620      113.638      114.657      123.662       75.731    13146.270    15292.288     5735.255        3.980        1.709      180.352       45.944        0.065      334.354        4.269      853.536
04/01/2014  10:06:00      220.250      131.444       82.838      151.491      103.976       78.336    22949.543    10810.927     6136.500        5.627        1.995      256.491       62.215        0.059      334.270        4.129      853.522
04/01/2014  10:07:00      197.087      151.923      113.844      148.242      120.347       86.074    21975.677    14483.338     7408.728        5.937        2.193      248.845       81.040        0.106      334.273        4.135      853.491
04/01/2014  10:08:00      152.379       78.119      119.816      152.183      146.591      105.560    23159.796    21488.792    11142.828        4.972        2.790      171.236       92.499        0.292      334.436        4.405      853.484
04/01/2014  10:09:00       63.269       17.886       63.834       65.658      121.910       72.036     4310.951    14862.013     5189.212        1.638        1.218       65.748       43.162        0.431      334.614        4.701      853.495
04/01/2014  10:10:00        8.071       45.263       74.929       34.062       57.080       45.113     1160.232     3258.070     2035.213        0.709        0.323       45.977       38.323        0.695      334.689        4.828      853.522
04/01/2014  10:11:00      195.055      123.423       58.339      131.873       97.184       56.556    17390.503     9444.708     3198.608        4.335        1.502      230.824       59.819        0.067      334.089        3.828      853.539
04/01/2014  10:12:00      180.835      118.622       -6.804       61.043       46.247       48.967     3726.266     2138.751     2397.749        2.754        0.413      216.269       28.049        0.017      333.753        3.271      853.558
04/01/2014  10:13:00      171.616      130.070       55.477       69.244       68.306       73.037     4794.688     4665.756     5334.388        3.212        0.740      215.337       49.661        0.053      334.064        3.786      853.551
04/01/2014  10:14:00      130.721       83.332       73.433      119.692       95.041       70.996    14326.161     9032.861     5040.427        2.891        1.420      155.024       61.562        0.158      334.134        3.905      853.581
04/01/2014  10:15:00       -1.046      -17.765       35.721       21.716       56.173       27.164      471.591     3155.455      737.890        0.298        0.218       17.796       31.859        3.205      334.800        5.011      853.581
04/01/2014  10:16:00        3.371      -24.071       16.112       40.458       39.535       27.005     1636.885     1563.014      729.277        0.239        0.196       24.306       18.626        0.587      334.780        4.979      853.598
04/01/2014  10:17:00       -6.928      -85.047      -13.738       51.652       52.399       26.904     2667.935     2745.678      723.827        0.680        0.307       85.328       15.140        0.031      334.505        4.523      853.610
04/01/2014  10:18:00       13.781       23.544       56.308       37.458       39.202       25.319     1403.137     1536.783      641.032        0.375        0.179       27.281       18.498        0.460      335.101        5.512      853.612
04/01/2014  10:19:00      107.324       56.036       47.833      113.927       75.556       86.184    12979.300     5708.710     7427.675        2.153        1.306      121.072       78.275        0.418      334.319        4.211      853.609
04/01/2014  10:20:00      158.959      123.399       14.183       86.593       51.747       44.122     7498.295     2677.724     1946.712        2.641        0.606      201.234       19.532        0.009      334.046        3.757      853.605
04/01/2014  10:21:00       67.622      100.370       -2.245       63.514       56.809       35.550     4034.035     3227.300     1263.795        1.159        0.426      121.024       27.999        0.054      334.195        4.007      853.606
04/01/2014  10:22:00      116.387       64.632       15.520       90.732       60.498       44.337     8232.257     3659.986     1965.764        1.591        0.693      133.129       21.226        0.025      334.175        3.972      853.592
04/01/2014  10:23:00       60.602      145.610       -8.789       61.768      101.593       47.453     3815.292    10321.112     2251.777        2.067        0.819      157.718       53.413        0.115      334.256        4.107      853.565
04/01/2014  10:24:00      122.962      106.977       98.861       95.138       80.363       81.055     9051.205     6458.243     6569.990        2.920        1.104      162.984       46.913        0.083      334.552        4.598      853.569
04/01/2014  10:25:00       72.549      165.826      145.075      101.890       78.195       93.681    10381.486     6114.408     8776.164        3.954        1.264      181.002       85.668        0.224      334.393        4.330      853.575
04/01/2014  10:26:00      126.288       66.447       41.623       81.122       72.554       61.150     6580.844     5264.123     3739.352        1.884        0.779      142.702       48.502        0.116      334.697        4.840      853.585
04/01/2014  10:27:00       50.381       41.635       32.602       53.276       57.445       47.712     2838.302     3299.979     2276.426        0.687        0.421       65.359       33.571        0.264      334.632        4.733      853.592
04/01/2014  10:28:00       48.209       81.653       67.287       66.715       57.324       55.330     4450.910     3286.051     3061.378        1.216        0.540       94.823       49.645        0.274      334.609        4.694      853.588
04/01/2014  10:29:00      102.591      197.156      192.724       84.334       73.747       54.982     7112.149     5438.618     3023.062        5.105        0.779      222.251       53.059        0.057      334.413        4.363      853.578
04/01/2014  10:30:00      111.881       78.482      103.169       99.334       80.040       67.492     9867.299     6406.325     4555.173        2.507        1.041      136.663       50.880        0.139      334.401        4.347      853.604
04/01/2014  10:31:00       83.159      -80.680       -1.986       51.135       73.827       42.725     2614.747     5450.420     1825.388        1.166        0.495      115.865       44.872        0.150      334.325        4.223      853.624
04/01/2014  10:32:00        0.829      -62.642      -13.195       22.821       15.368       18.167      520.790      236.166      330.034        0.259        0.054       62.648       12.005        0.037      333.989        3.667      853.620
04/01/2014  10:33:00       77.501      -35.444       11.728       40.391       33.155       27.608     1631.419     1099.244      762.229        0.545        0.175       85.221       23.422        0.076      334.456        4.440      853.605
04/01/2014  10:34:00       30.176       75.983       79.657       48.463       60.290       40.253     2348.655     3634.873     1620.340        1.032        0.380       81.755       24.358        0.089      334.687        4.825      853.597
04/01/2014  10:35:00       18.481       51.866       72.232       40.657       36.604       32.973     1652.967     1339.853     1087.206        0.616        0.204       55.060       27.286        0.246      334.777        4.973      853.606
04/01/2014  10:36:00        6.898        4.720       25.088       44.106       41.642       37.188     1945.306     1734.081     1382.959        0.288        0.253        8.359       32.122       14.768      334.849        5.093      853.609
04/01/2014  10:37:00       22.084      -95.674       -1.981       54.467       68.384       43.194     2966.648     4676.341     1865.742        0.958        0.475       98.190       40.171        0.167      334.942        5.248      853.601
04/01/2014  10:38:00       17.114      -98.813       14.243       40.992       67.064       59.634     1680.307     4497.595     3556.266        1.000        0.487      100.284       42.077        0.176      335.059        5.442      853.609
04/01/2014  10:39:00        8.784      -85.502      -26.675       42.938       48.743       40.185     1843.692     2375.917     1614.799        0.697        0.292       85.952       21.878        0.065      334.854        5.102      853.613
04/01/2014  10:40:00       23.137      -22.972       13.124       73.155       46.025       37.541     5351.700     2118.326     1409.337        0.506        0.444       32.605       40.506        1.543      334.595        4.672      853.611
04/01/2014  10:41:00      169.478     -137.459       -3.333       88.094      110.542       49.432     7760.494    12219.584     2443.556        3.502        1.121      218.215       60.170        0.076      334.563        4.615      853.550
04/01/2014  10:42:00      133.554     -141.870        9.439       99.889      137.399       82.533     9977.881    18878.421     6811.683        3.685        1.783      194.843       87.046        0.200      334.931        5.226      853.513
04/01/2014  10:43:00       52.314       40.918       99.561       78.656       95.214       72.500     6186.841     9065.656     5256.194        1.741        1.025       66.415       73.581        1.227      334.998        5.340      853.528
04/01/2014  10:44:00       41.351      -93.317      -14.172       58.852       47.833       35.348     3463.562     2287.999     1249.515        0.881        0.350      102.069       31.141        0.093      334.122        3.885      853.560
04/01/2014  10:45:00       41.158       18.935       55.164       59.578       54.600       42.921     3549.561     2981.164     1842.227        0.673        0.419       45.304       35.452        0.612      334.654        4.770      853.541
04/01/2014  10:46:00       50.210       75.571       87.393       61.013       64.917       50.927     3722.580     4214.197     2593.573        1.320        0.527       90.730       49.506        0.298      334.678        4.810      853.531
04/01/2014  10:47:00       49.340       17.759        8.423       34.427       62.825       42.378     1185.208     3946.990     1795.904        0.487        0.346       52.439       35.026        0.446      334.148        3.931      853.530
04/01/2014  10:48:00      108.886       58.399        5.491       48.517       28.964       28.085     2353.860      838.928      788.763        0.964        0.199      123.558       18.392        0.022      334.142        3.918      853.520
04/01/2014  10:49:00       60.852       64.891       18.013       49.589       51.919       29.173     2459.067     2695.532      851.051        0.712        0.300       88.960       20.953        0.055      334.476        4.473      853.510
04/01/2014  10:50:00        0.690      -16.599       12.407       26.685       79.483       27.188      712.102     6317.559      739.211        0.410        0.388       16.613       25.599        2.374      334.721        4.881      853.518
04/01/2014  10:51:00        3.417       19.606        1.261       22.826       37.950       23.886      521.018     1440.220      570.565        0.146        0.127       19.901       12.958        0.424      334.645        4.755      853.507
04/01/2014  10:52:00       -7.869       -2.212       17.622       20.064       14.198       15.970      402.566      201.594      255.044        0.062        0.043        8.174       13.018        2.537      335.207        5.687      853.502
04/01/2014  10:53:00       81.096       61.606       15.664       60.443       44.812       34.654     3653.371     2008.105     1200.897        0.874        0.343      101.842       25.805        0.064      334.978        5.306      853.508
04/01/2014  10:54:00      112.843       85.067       18.234       79.861       62.722       58.197     6377.712     3934.106     3386.920        1.700        0.685      141.315       38.672        0.075      334.641        4.747      853.512
04/01/2014  10:55:00       74.019      109.877      -10.133       71.068       53.047       43.776     5050.688     2813.995     1916.314        1.372        0.489      132.483       28.286        0.046      334.355        4.271      853.522
04/01/2014  10:56:00       25.787      163.267       -7.969       63.948      100.759       45.440     4089.287    10152.390     2064.821        2.184        0.815      165.291       48.414        0.086      334.418        4.374      853.526
04/01/2014  10:57:00       38.929      106.373      -10.912       45.301       48.411       31.263     2052.161     2343.641      977.406        0.916        0.269      113.272       19.513        0.030      334.517        4.542      853.530
04/01/2014  10:58:00       77.895       70.758        6.040       46.424       52.427       39.030     2155.169     2748.641     1523.339        0.877        0.321      105.235       33.286        0.100      334.683        4.818      853.530
04/01/2014  10:59:00       91.505      101.905        6.603       75.944       46.019       45.100     5767.453     2117.707     2034.024        1.436        0.496      136.959       33.621        0.060      334.613        4.700      853.525
04/01/2014  11:00:00      177.357      113.001       16.299       71.910       61.365       52.528     5171.117     3765.686     2759.178        2.809        0.585      210.297       27.625        0.017      334.447        4.422      853.517
04/01/2014  11:01:00       96.929       97.203       12.823       74.364       62.736       47.933     5530.014     3935.782     2297.619        1.538        0.588      137.272       33.130        0.058      334.412        4.366      853.505
04/01/2014  11:02:00      110.878       97.665        7.762       56.976       30.808       53.299     3246.260      949.131     2840.786        1.446        0.352      147.758       25.382        0.030      334.429        4.394      853.508
04/01/2014  11:03:00      101.581       83.521        5.240       47.794       35.997       39.248     2284.239     1295.806     1540.406        1.122        0.256      131.508       21.975        0.028      334.557        4.609      853.503
04/01/2014  11:04:00       85.214       57.318       32.948       49.845       33.087       38.208     2484.544     1094.743     1459.842        0.833        0.252      102.697       22.366        0.047      334.461        4.450      853.487
04/01/2014  11:05:00      132.504      136.679       77.307       94.942       67.929       76.317     9014.044     4614.298     5824.354        3.083        0.973      190.364       62.264        0.107      334.639        4.741      853.479
04/01/2014  11:06:00      111.942       96.291       69.927       52.008       46.381       52.187     2704.865     2151.207     2723.522        1.713        0.379      147.659       43.148        0.085      334.394        4.337      853.469
04/01/2014  11:07:00      199.259      133.548       23.191       78.800       71.577       50.594     6209.396     5123.235     2559.788        3.598        0.695      239.873       25.132        0.011      334.420        4.377      853.456
04/01/2014  11:08:00      230.652      153.971       29.589       69.628       77.058       64.124     4848.041     5937.950     4111.845        4.634        0.745      277.322       37.212        0.018      334.477        4.471      853.440
04/01/2014  11:09:00      184.158      121.391       30.892       94.735       56.237       46.793     8974.773     3162.578     2189.620        3.196        0.716      220.567       46.398        0.044      334.579        4.641      853.447
04/01/2014  11:10:00      162.334      117.528        8.982       91.963       62.071       45.289     8457.262     3852.839     2051.116        2.730        0.718      200.412       23.591        0.014      334.459        4.442      853.463
04/01/2014  11:11:00       80.062      121.012        8.753       72.550      113.730       59.605     5263.488    12934.528     3552.720        2.144        1.088      145.099       54.184        0.139      334.719        4.876      853.452
04/01/2014  11:12:00      106.311      172.190      -34.392       72.057       53.088       40.703     5192.241     2818.288     1656.735        2.590        0.483      202.365       24.246        0.014      334.314        4.203      853.457
04/01/2014  11:13:00       65.558      173.146      -18.823       38.116       48.742       41.458     1452.851     2375.757     1718.800        2.009        0.277      185.141       30.476        0.027      334.399        4.344      853.446
04/01/2014  11:14:00       40.605       80.308      -32.258       73.503       77.466       35.656     5402.655     6000.904     1271.372        1.090        0.634       89.989       28.119        0.098      334.372        4.300      853.447
04/01/2014  11:15:00        1.559       10.589        0.521       57.268       38.385       31.228     3279.609     1473.445      975.209        0.292        0.286       10.704       29.276        7.481      334.716        4.872      853.429
04/01/2014  11:16:00       44.970       39.212        6.939       40.429       31.478       32.372     1634.514      990.880     1047.960        0.364        0.184       59.665       15.069        0.064      335.016        5.370      853.416
04/01/2014  11:17:00       76.346       96.890       61.752       57.253       50.018       38.302     3277.852     2501.826     1467.037        1.314        0.362      123.355       26.743        0.047      334.919        5.208      853.411
04/01/2014  11:18:00       34.119       62.550       76.837       54.683       77.386       54.894     2990.218     5988.602     3013.323        1.148        0.600       71.251       53.725        0.569      335.112        5.532      853.405
04/01/2014  11:19:00       38.491       70.089      114.877       62.308       79.295       50.432     3882.240     6287.644     2543.365        1.615        0.636       79.963       56.313        0.496      334.747        4.922      853.381
04/01/2014  11:20:00       35.277       98.346      149.792       70.803       67.529       56.336     5013.052     4560.099     3173.693        2.305        0.637      104.481       44.724        0.183      335.025        5.383      853.324
04/01/2014  11:21:00       61.270       25.378       96.256       85.168      109.753       77.945     7253.598    12045.638     6075.483        1.951        1.269       66.317       85.662        1.668      334.905        5.186      853.308
04/01/2014  11:22:00       18.210       47.481       64.163       62.170       59.998       47.422     3865.104     3599.762     2248.862        0.821        0.486       50.854       33.803        0.442      334.957        5.272      853.319
04/01/2014  11:23:00       39.022      -54.759       24.192       54.587      102.297       47.237     2979.762    10464.672     2231.314        1.039        0.784       67.240       41.658        0.384      335.037        5.404      853.324
04/01/2014  11:24:00       68.436       35.239      112.012       91.294      159.394       92.719     8334.573    25406.351     8596.822        3.040        2.117       76.976      112.086        2.120      335.035        5.400      853.318
04/01/2014  11:25:00      159.759       80.053      112.042       89.957      100.112       89.915     8092.269    10022.363     8084.668        3.534        1.310      178.694       69.528        0.151      334.761        4.943      853.302
04/01/2014  11:26:00      164.971       89.636       77.815      124.726       84.393       72.346    15556.665     7122.231     5233.894        3.460        1.396      187.750       72.177        0.148      334.809        5.024      853.273
04/01/2014  11:27:00      131.256       94.133       98.494      110.100      106.512       79.717    12122.034    11344.700     6354.855        3.280        1.491      161.522       74.634        0.214      334.945        5.249      853.267
04/01/2014  11:28:00       69.631       64.761       86.897       80.363       68.661       56.576     6458.165     4714.347     3200.799        1.548        0.719       95.092       43.848        0.213      335.174        5.632      853.284
04/01/2014  11:29:00      -17.290      -16.326       60.424       39.328       85.852       59.658     1546.682     7370.553     3559.096        0.834        0.624       23.780       61.164        6.616      335.544        6.248      853.312
04/01/2014  11:30:00       27.624      -87.272       24.854       52.268       74.538       53.288     2731.934     5555.955     2839.618        1.006        0.556       91.539       49.813        0.296      335.394        5.999      853.357
04/01/2014  11:31:00       34.871        5.998       37.441       41.074       47.690       31.419     1687.113     2274.371      987.150        0.380        0.247       35.383       26.380        0.556      335.368        5.954      853.384
04/01/2014  11:32:00       39.511      -19.180       25.834       45.654       59.972       37.345     2084.323     3596.629     1394.615        0.483        0.354       43.921       29.921        0.464      335.303        5.848      853.384
04/01/2014  11:33:00       13.152      -79.580       11.751       50.804      100.827       35.105     2581.071    10166.134     1232.342        1.031        0.699       80.660       41.217        0.261      335.293        5.831      853.404
04/01/2014  11:34:00       -7.788        5.387       55.581       46.674       60.498       45.458     2178.446     3660.059     2066.456        0.554        0.395        9.470       32.407       11.711      335.379        5.972      853.415
04/01/2014  11:35:00       20.718        0.283       67.069       61.617       72.113       55.036     3796.635     5200.217     3028.912        0.847        0.601       20.720       53.958        6.782      335.452        6.095      853.422
04/01/2014  11:36:00       44.546       23.709       99.349       69.493      117.289       65.188     4829.281    13756.611     4249.411        1.762        1.142       50.463       75.942        2.265      335.202        5.679      853.419
04/01/2014  11:37:00       77.785      105.230      127.599       73.616       87.359       61.431     5419.280     7631.632     3773.819        2.511        0.841      130.858       63.695        0.237      334.948        5.256      853.411
04/01/2014  11:38:00       75.934      -45.253       47.572       76.918       85.592       59.683     5916.333     7325.926     3562.069        1.344        0.840       88.395       52.632        0.355      335.365        5.952      853.382
04/01/2014  11:39:00       19.889       37.320       93.363       45.640      101.134       59.643     2083.045    10228.045     3557.237        1.318        0.793       42.289       45.955        1.181      335.333        5.896      853.362
04/01/2014  11:40:00       57.075     -131.872      -14.429       59.133       45.144       31.810     3496.720     2037.948     1011.893        1.370        0.327      143.694       27.312        0.036      334.907        5.190      853.408
04/01/2014  11:41:00      120.028      -67.469       32.576       58.896       57.751       44.245     3468.730     3335.161     1957.594        1.439        0.438      137.691       41.470        0.091      335.248        5.756      853.432
04/01/2014  11:42:00      -34.895       -3.127       20.662       58.478       29.611       33.624     3419.663      876.819     1130.586        0.354        0.271       35.035       37.856        1.168      335.687        6.487      853.470
04/01/2014  11:43:00     -100.490      -41.256       11.591       77.584       79.679       53.200     6019.325     6348.724     2830.198        1.356        0.760      108.629       46.160        0.181      335.314        5.865      853.490
04/01/2014  11:44:00     -107.648     -150.466      -13.496      109.413       47.723       36.098    11971.191     2277.439     1303.073        2.498        0.778      185.008       24.811        0.018      335.091        5.493      853.498
04/01/2014  11:45:00     -165.079     -143.870      -21.573      168.948      113.466       73.173    28543.495    12874.541     5354.274        4.758        2.339      218.974        7.070        0.001      335.121        5.542      853.472
04/01/2014  11:46:00     -411.709     -243.082      -15.164      145.806      115.708       67.322    21259.394    13388.277     4532.185       13.399        1.959      478.114       71.752        0.023      334.927        5.220      853.438
04/01/2014  11:47:00     -206.544      -74.324       12.015      158.998      118.993       66.048    25280.463    14159.381     4362.388        4.606        2.190      219.509       75.797        0.119      335.245        5.750      853.470
04/01/2014  11:48:00     -254.659      -85.197       -9.583      109.034      100.490       48.372    11888.483    10098.230     2339.844        4.826        1.216      268.533       47.412        0.031      334.948        5.255      853.513
04/01/2014  11:49:00     -219.515      -41.494        5.168      130.516       74.597       48.825    17034.323     5564.770     2383.906        3.745        1.249      223.403       50.427        0.051      335.109        5.522      853.498
04/01/2014  11:50:00     -147.960      -91.057       16.257      146.826       98.090       62.068    21557.864     9621.597     3852.415        3.273        1.752      173.734       69.915        0.162      335.242        5.744      853.498
04/01/2014  11:51:00     -153.229     -160.616        4.434      136.879       98.135       59.324    18735.867     9630.487     3519.337        4.058        1.594      221.984       65.233        0.086      335.192        5.661      853.523
04/01/2014  11:52:00     -132.447      -72.631      -13.471      101.444       70.667       38.207    10290.938     4993.887     1459.807        1.987        0.837      151.054       33.976        0.051      335.090        5.492      853.504
04/01/2014  11:53:00     -135.640     -146.257       -4.000      145.503      107.250       46.168    21171.020    11502.610     2131.485        3.730        1.740      199.472       42.129        0.045      335.056        5.435      853.516
04/01/2014  11:54:00     -322.031       -9.819       20.949      208.311      146.233      100.720    43393.398    21384.017    10144.565        8.957        3.746      322.181      112.092        0.121      335.097        5.502      853.501
04/01/2014  11:55:00     -339.454     -301.639      -15.163      252.624      162.274      102.553    63819.086    26332.761    10517.213       15.354        5.033      454.109      113.248        0.062      334.880        5.141      853.481
04/01/2014  11:56:00     -304.954     -290.030        5.860      199.774      179.818      102.037    39909.666    32334.375    10411.628       12.989        4.133      420.850      115.630        0.075      334.645        4.750      853.457
04/01/2014  11:57:00     -348.485     -171.635      -29.918      182.842      170.162       68.439    33431.123    28954.958     4683.911       10.942        3.353      388.459       74.344        0.037      334.704        4.849      853.440
04/01/2014  11:58:00     -356.544     -106.244       -6.985      223.060      151.739       80.462    49755.955    23024.591     6474.204       10.884        3.963      372.037       96.947        0.068      334.937        5.237      853.415
04/01/2014  11:59:00     -495.083      -40.416      -24.532      166.480      164.340       90.541    27715.500    27007.604     8197.606       15.512        3.146      496.730       82.656        0.028      334.801        5.009      853.408
04/01/2014  12:00:00     -432.329     -148.509      -11.477      197.443      172.468       94.545    38983.744    29745.114     8938.733       14.337        3.883      457.124       94.480        0.043      334.915        5.201      853.434
04/01/2014  12:01:00     -202.179      -93.749       19.867      175.975      171.201      104.153    30967.034    29309.793    10847.775        6.058        3.556      222.857      103.759        0.217      335.077        5.470      853.414
04/01/2014  12:02:00     -232.075     -118.175       -9.696      159.822      162.650       74.917    25542.919    26455.041     5612.493        6.275        2.881      260.431       73.996        0.081      335.031        5.393      853.441
04/01/2014  12:03:00     -101.720     -237.213       11.897       77.258      141.295       54.066     5968.752    19964.373     2923.135        4.780        1.443      258.103       47.622        0.034      334.960        5.275      853.448
04/01/2014  12:04:00     -100.201     -221.253      -10.685      153.192       97.505       67.292    23467.639     9507.250     4528.272        4.830        1.875      242.885       41.068        0.029      335.249        5.756      853.436
04/01/2014  12:05:00     -218.352     -215.444       14.652      147.418      140.807       80.832    21732.178    19826.592     6533.775        7.119        2.405      306.747       71.235        0.054      335.097        5.502      853.464
04/01/2014  12:06:00     -106.716     -118.414       26.601      152.873      147.482       61.900    23370.204    21750.831     3831.615        3.753        2.448      159.406       68.301        0.184      335.130        5.559      853.495
04/01/2014  12:07:00     -122.933      -48.664       12.454       93.223       53.961       40.576     8690.449     2911.749     1646.429        1.544        0.662      132.214       40.872        0.096      335.072        5.462      853.454
04/01/2014  12:08:00      -74.772     -158.165      -16.476       77.967      102.380       53.066     6078.920    10481.700     2815.968        2.512        0.969      174.949       46.968        0.072      335.098        5.504      853.445
04/01/2014  12:09:00      -86.539     -163.803      -11.694       81.163      121.746       46.253     6587.395    14822.184     2139.318        2.900        1.177      185.257       32.314        0.030      334.957        5.271      853.419
04/01/2014  12:10:00     -161.776     -181.588        4.150      113.741      149.175       49.004    12937.077    22253.321     2401.427        4.837        1.880      243.199       51.760        0.045      334.922        5.211      853.397
04/01/2014  12:11:00     -191.028     -212.726       17.663      164.394      136.217       89.306    27025.429    18554.980     7975.598        6.780        2.678      285.909      101.731        0.127      334.715        4.867      853.390
04/01/2014  12:12:00     -299.639     -103.851      -11.785      141.098      110.530       71.560    19908.710    12216.851     5120.851        6.897        1.862      317.125       65.564        0.043      335.007        5.354      853.392
04/01/2014  12:13:00     -187.192     -107.540      -12.252      143.804       99.908       64.395    20679.688     9981.621     4146.678        4.078        1.740      215.884       77.570        0.129      335.035        5.400      853.417
04/01/2014  12:14:00     -463.082     -132.168      -25.520      170.255      145.461       64.677    28986.917    21158.929     4183.171       14.344        2.716      481.574       63.996        0.018      334.798        5.005      853.376
04/01/2014  12:15:00     -449.180     -129.362      -16.560      116.562      106.646       58.054    13586.668    11373.344     3370.262       12.355        1.417      467.437       56.929        0.015      334.624        4.715      853.356
04/01/2014  12:16:00     -177.578      -28.017        9.495      133.028      142.985       62.758    17696.343    20444.776     3938.573        3.724        2.104      179.775       65.223        0.132      334.937        5.235      853.349
04/01/2014  12:17:00     -201.691      -80.543      -20.462      131.640      112.166       70.721    17329.162    12581.322     5001.409        4.124        1.746      217.179       68.639        0.100      335.029        5.390      853.347
04/01/2014  12:18:00     -317.810      -92.654      -16.227      234.721      120.818       73.857    55093.764    14596.923     5454.848        9.248        3.757      331.041      100.307        0.092      334.933        5.231      853.320
04/01/2014  12:19:00     -302.929       20.238      -34.830      135.639      152.766       60.780    18397.816    23337.462     3694.216        6.940        2.271      303.604       55.330        0.033      334.908        5.188      853.333
04/01/2014  12:20:00     -413.852      -80.794       -5.754      263.103      146.770       79.032    69222.993    21541.317     6246.135       13.740        4.851      421.664       95.412        0.051      335.115        5.533      853.363
04/01/2014  12:21:00     -649.396     -240.269      -31.253      261.871      242.040      118.155    68576.404    58583.337    13960.515       31.074        7.056      692.419      123.012        0.032      334.438        4.407      853.348
04/01/2014  12:22:00     -427.794     -146.489       -3.521      227.186      180.676      108.860    51613.601    32643.847    11850.494       15.027        4.805      452.180      117.068        0.067      334.414        4.368      853.400
04/01/2014  12:23:00     -591.150     -210.947      -20.351      246.651      177.079      105.460    60836.674    31357.103    11121.873       24.882        5.166      627.660      111.158        0.031      334.234        4.068      853.422
04/01/2014  12:24:00     -386.542      -88.028      -18.361      200.263      124.885       80.696    40105.113    15596.142     6511.812       10.984        3.111      396.439       97.885        0.061      334.421        4.379      853.463
04/01/2014  12:25:00     -343.371     -254.205        6.400      211.463      162.159       98.986    44716.411    26295.429     9798.265       13.167        4.041      427.229      105.259        0.061      334.424        4.384      853.442
04/01/2014  12:26:00     -486.858     -359.268       -8.044      250.010      199.978      124.729    62505.147    39991.200    15557.381       24.209        5.903      605.065      142.612        0.056      334.217        4.040      853.413
04/01/2014  12:27:00     -393.653     -254.707      -18.246      205.181      188.781       97.962    42099.156    35638.420     9596.585       15.374        4.367      468.870       86.307        0.034      334.227        4.056      853.457
04/01/2014  12:28:00     -263.967     -175.853      -10.502      157.011      131.374       79.789    24652.581    17259.170     6366.290        7.449        2.414      317.180       82.344        0.067      334.335        4.236      853.480
04/01/2014  12:29:00     -296.456      -92.917        2.079      198.702      154.071       98.519    39482.305    23737.991     9705.936        8.471        3.646      310.676      110.484        0.126      334.455        4.435      853.472
04/01/2014  12:30:00     -296.852     -198.842        5.925      214.073      206.580      104.465    45827.088    42675.354    10913.034       11.354        4.971      357.295      107.619        0.091      334.414        4.367      853.439
04/01/2014  12:31:00     -269.755     -162.204        7.371      195.198      165.112       81.356    38102.398    27261.939     6618.744        8.554        3.599      314.766       85.357        0.074      334.455        4.436      853.422
04/01/2014  12:32:00     -342.914     -118.851      -10.235      195.613      133.092       83.341    38264.261    17713.494     6945.785        9.736        3.146      362.926       90.175        0.062      334.562        4.611      853.435
04/01/2014  12:33:00     -122.492     -112.838       23.236      152.415      154.484       74.497    23230.451    23865.164     5549.736        4.045        2.632      166.543       72.302        0.188      334.720        4.876      853.449
04/01/2014  12:34:00     -302.086     -108.824       -0.150      179.115      136.402       68.531    32082.015    18605.381     4696.450        7.923        2.769      321.089       63.722        0.039      334.699        4.841      853.431
04/01/2014  12:35:00     -401.433     -293.567      -13.752      140.435      132.157       77.812    19722.109    17465.412     6054.738       14.537        2.162      497.323       71.407        0.021      334.581        4.644      853.439
04/01/2014  12:36:00     -322.398     -169.779      -17.076      146.937      131.948       70.557    21590.587    17410.211     4978.336        8.851        2.199      364.370       67.985        0.035      334.624        4.715      853.451
04/01/2014  12:37:00     -395.817     -236.254      -28.005      174.511      142.917       80.419    30454.169    20425.144     6467.187       13.530        2.867      460.963       64.687        0.020      334.584        4.649      853.460
04/01/2014  12:38:00     -361.585     -169.182      -11.819      162.499      120.572       74.687    26405.783    14537.544     5578.170       10.300        2.326      399.207       76.693        0.037      334.533        4.564      853.477
04/01/2014  12:39:00     -395.105     -178.388      -21.284      151.001      157.139       69.802    22801.166    24692.569     4872.379       12.036        2.618      433.509       56.223        0.017      334.471        4.461      853.494
04/01/2014  12:40:00     -320.094     -144.105      -16.705      202.356      149.577       82.823    40947.993    22373.245     6859.662        9.683        3.509      351.036       89.389        0.065      334.507        4.521      853.530
04/01/2014  12:41:00     -349.736      -77.545       -2.326      165.284      157.218       84.314    27318.896    24717.368     7108.897        9.373        2.957      358.230       83.288        0.054      334.501        4.512      853.514
04/01/2014  12:42:00     -493.634     -194.347      -30.087      123.464      101.110       60.442    15243.392    10223.252     3653.249       15.573        1.456      530.514       54.728        0.011      334.330        4.228      853.480
04/01/2014  12:43:00     -266.790        6.474       11.981      136.343      111.290       68.644    18589.332    12385.571     4711.937        5.352        1.784      266.868       72.258        0.073      334.633        4.731      853.459
04/01/2014  12:44:00     -183.434     -131.858       16.603      119.101      112.702       72.140    14185.098    12701.765     5204.127        4.169        1.605      225.909       77.532        0.118      334.789        4.991      853.438
04/01/2014  12:45:00     -288.805     -259.185       -9.611      162.851      131.589       74.160    26520.350    17315.626     5499.634       10.000        2.467      388.053       77.184        0.040      334.573        4.631      853.406
04/01/2014  12:46:00     -165.669      -50.298       17.323      167.880      104.392       66.287    28183.772    10897.697     4393.907        3.687        2.174      173.136       84.299        0.237      334.988        5.322      853.390
04/01/2014  12:47:00     -126.389      -84.842       26.699      145.205       97.282       53.906    21084.597     9463.794     2905.807        2.866        1.673      152.225       67.059        0.194      335.062        5.446      853.379
04/01/2014  12:48:00     -167.649     -103.343       -0.505      133.042      112.096       56.148    17700.300    12565.481     3152.566        3.610        1.671      196.941       65.230        0.110      334.945        5.251      853.377
04/01/2014  12:49:00     -292.913     -116.846       -3.488      122.280      141.340       61.707    14952.450    19976.984     3807.744        6.909        1.937      315.359       57.750        0.034      334.936        5.234      853.373
04/01/2014  12:50:00     -226.681     -201.752        9.678      172.403      163.550       71.294    29722.778    26748.457     5082.876        7.686        3.078      303.461       82.519        0.074      334.998        5.338      853.411
04/01/2014  12:51:00     -247.532     -233.851        8.412      158.290      150.954       79.146    25055.857    22787.142     6264.026        8.506        2.705      340.526       80.055        0.055      334.834        5.064      853.415
04/01/2014  12:52:00     -233.085     -312.964      -14.729      189.068      173.911       90.476    35746.768    30245.105     8185.903       11.332        3.709      390.225       72.851        0.035      334.658        4.772      853.447
04/01/2014  12:53:00     -417.144     -312.557       -6.630      154.852      146.289       89.646    23979.055    21400.527     8036.424       16.257        2.671      521.250       81.934        0.025      334.469        4.457      853.475
04/01/2014  12:54:00     -334.972     -231.844        5.287      196.720      146.526       88.043    38698.809    21469.788     7751.614       11.694        3.396      407.379       94.747        0.054      334.434        4.401      853.480
04/01/2014  12:55:00     -230.001     -159.834       14.024      156.257      132.948       77.483    24416.236    17675.226     6003.544        6.336        2.405      280.085       89.049        0.101      334.434        4.402      853.500
04/01/2014  12:56:00     -314.505     -122.740       -6.171      181.972      134.504       83.807    33113.927    18091.263     7023.686        8.611        2.911      337.607       94.678        0.079      334.501        4.511      853.465
04/01/2014  12:57:00     -453.534     -278.640      -17.379      275.998      193.252      102.605    76174.827    37346.315    10527.771       20.382        6.202      532.291      119.697        0.051      334.374        4.301      853.422
04/01/2014  12:58:00     -309.602     -400.289      -11.718      146.541      164.796       86.116    21474.233    27157.753     7415.958       15.612        2.802      506.048       70.505        0.019      334.396        4.337      853.527
04/01/2014  12:59:00     -282.789     -362.986      -20.157      164.853      190.275       82.011    27176.359    36204.596     6725.879       14.111        3.505      460.140       95.552        0.043      334.328        4.225      853.611
04/01/2014  13:00:00      -68.914     -180.574      -24.558      150.178      109.333       72.998    22553.435    11953.776     5328.722        3.889        1.992      193.277       63.406        0.108      334.517        4.539      853.588
04/01/2014  13:01:00     -196.344     -258.523        6.229      216.844      175.978       88.232    47021.470    30968.168     7784.941        9.558        4.289      324.631       83.769        0.067      334.442        4.415      853.611
04/01/2014  13:02:00     -133.716     -344.241      -12.283      198.816      161.726      109.060    39527.956    26155.287    11894.142       10.704        3.879      369.299       74.980        0.041      334.372        4.298      853.598
04/01/2014  13:03:00     -189.535     -227.838       25.171      161.199      177.808       80.727    25985.121    31615.661     6516.882        7.628        3.206      296.367       78.164        0.070      334.459        4.441      853.580
04/01/2014  13:04:00     -198.305     -158.653      -11.890       91.846      121.568       57.860     8435.624    14778.776     3347.732        4.559        1.328      253.960       44.339        0.030      334.507        4.522      853.534
04/01/2014  13:05:00     -127.538     -143.964        2.279       72.331       90.502       59.107     5231.704     8190.582     3493.612        2.695        0.846      192.332       34.555        0.032      334.615        4.701      853.506
04/01/2014  13:06:00     -117.801     -109.448       15.407      102.272       81.070       59.617    10459.594     6572.360     3554.233        2.334        1.029      160.798       54.231        0.114      334.743        4.915      853.507
04/01/2014  13:07:00     -259.293     -183.354      -11.800      119.584      118.941       72.982    14300.216    14146.932     5326.397        6.738        1.689      317.571       70.944        0.050      334.394        4.334      853.523
04/01/2014  13:08:00     -132.932     -125.673      -19.465      115.575       91.223       51.567    13357.600     8321.593     2659.148        2.909        1.217      182.933       44.702        0.060      334.459        4.442      853.493
04/01/2014  13:09:00       23.697      -34.612        9.962       44.821       92.656       39.962     2008.886     8585.115     1596.944        0.702        0.610       41.947       54.385        1.681      334.671        4.798      853.460
04/01/2014  13:10:00      -22.214      -14.878        8.089       72.903       95.999       44.291     5314.904     9215.887     1961.683        0.863        0.825       26.736       29.522        1.219      334.745        4.919      853.435
04/01/2014  13:11:00     -110.304     -222.652      -19.560       65.748      119.246       45.909     4322.774    14219.550     2107.635        4.138        1.032      248.477       34.578        0.019      334.458        4.441      853.456
04/01/2014  13:12:00      -95.343     -149.107      -14.022      108.357      121.778       48.979    11741.249    14829.821     2398.913        3.024        1.448      176.983       35.774        0.041      334.387        4.322      853.450
04/01/2014  13:13:00      -63.664      -53.749       10.237       84.286       47.123       33.942     7104.210     2220.550     1152.086        0.876        0.524       83.319       39.992        0.230      334.584        4.653      853.431
04/01/2014  13:14:00      -86.326     -118.831       -8.697       69.538       68.522       36.740     4835.514     4695.281     1349.815        1.626        0.544      146.878       23.117        0.025      334.609        4.693      853.432
04/01/2014  13:15:00      -87.172      -71.029       -6.402       73.046       59.745       35.287     5335.757     3569.423     1245.151        1.142        0.508      112.446       13.690        0.015      334.902        5.181      853.429
04/01/2014  13:16:00      -23.292      -26.759       10.066       63.381       46.700       42.710     4017.177     2180.887     1824.181        0.469        0.401       35.477       28.817        0.660      335.479        6.141      853.416
04/01/2014  13:17:00       41.730      -67.787       20.151       86.463       67.101       38.871     7475.852     4502.567     1510.954        1.011        0.674       79.602       36.171        0.206      335.321        5.878      853.388
04/01/2014  13:18:00      -35.350      -16.709       15.936       55.277       45.558       32.853     3055.547     2075.571     1079.343        0.400        0.311       39.100       20.371        0.271      335.512        6.193      853.368
04/01/2014  13:19:00      -63.366      -78.902       19.380       76.170       91.482       42.638     5801.822     8369.027     1818.025        1.330        0.799      101.197       37.949        0.141      335.510        6.192      853.360
04/01/2014  13:20:00       46.921      -47.663       20.472       89.718      112.851       60.765     8049.391    12735.419     3692.340        1.468        1.224       66.883       71.900        1.156      335.602        6.343      853.347
04/01/2014  13:21:00      -64.721      -60.177       41.018       98.123      100.307       62.351     9628.056    10061.422     3887.659        1.653        1.179       88.375       69.101        0.611      335.362        5.944      853.357
04/01/2014  13:22:00       -4.665      -86.291       54.758       96.731      114.649      107.933     9356.962    13144.360    11649.586        2.230        1.708       86.417       76.187        0.777      335.664        6.448      853.328
04/01/2014  13:23:00      -14.039     -139.195       33.600       63.133      178.350       92.550     3985.762    31808.665     8565.420        3.252        2.218      139.901      107.270        0.588      335.635        6.396      853.320
04/01/2014  13:24:00      -92.371     -164.174       -6.391      154.751      117.371       84.644    23947.999    13776.019     7164.577        4.020        2.244      188.376       36.403        0.037      335.351        5.926      853.365
04/01/2014  13:25:00     -151.305     -212.748      -38.038      142.115      138.104       89.941    20196.803    19072.756     8089.420        5.847        2.368      261.065       79.855        0.094      335.343        5.912      853.349
04/01/2014  13:26:00      -54.288      -33.635       10.857       85.222       78.211       48.200     7262.862     6116.968     2323.222        0.995        0.785       63.863       39.219        0.377      336.133        7.232      853.296
04/01/2014  13:27:00     -120.018     -142.577        3.629      216.077      123.961       84.747    46689.149    15366.206     7182.101        5.198        3.462      186.366       79.169        0.180      335.714        6.528      853.297
04/01/2014  13:28:00      -79.251     -132.187       27.188      185.747      126.249       87.103    34501.774    15938.814     7587.007        4.125        2.901      154.124       65.213        0.179      335.627        6.385      853.256
04/01/2014  13:29:00      -33.332     -114.253      -20.308      102.387      114.367       62.383    10483.142    13079.731     3891.641        2.101        1.373      119.016       58.882        0.245      335.269        5.791      853.245
04/01/2014  13:30:00     -289.923     -164.265        5.034      183.133      137.137       65.130    33537.608    18806.568     4241.912        8.381        2.829      333.224       62.842        0.036      335.165        5.616      853.226
04/01/2014  13:31:00     -230.289     -289.406       -3.551      205.899      208.365       94.321    42394.207    43415.936     8896.363       11.574        4.735      369.850      111.964        0.092      335.382        5.976      853.218
04/01/2014  13:32:00     -153.223     -283.467      -17.641      186.770      188.959       95.289    34882.903    35705.411     9079.955        9.189        3.983      322.228       74.364        0.053      335.428        6.053      853.235
04/01/2014  13:33:00     -296.372     -244.114       12.280      219.128      204.171       99.191    48017.181    41685.605     9838.903       12.354        4.977      383.964      100.344        0.068      335.539        6.236      853.213
04/01/2014  13:34:00     -462.099     -256.538       -2.596      251.844      241.433      110.140    63425.442    58289.939    12130.871       20.657        6.692      528.534      117.730        0.050      335.254        5.764      853.196
04/01/2014  13:35:00     -275.469     -513.800      -26.178      196.224      289.566      103.930    38503.746    83848.306    10801.527       23.683        6.658      582.987       68.473        0.014      335.107        5.520      853.242
04/01/2014  13:36:00     -281.142     -201.689        3.697      197.239      138.042       87.550    38903.280    19055.557     7664.927        9.267        3.281      346.005       95.909        0.077      335.257        5.769      853.247
04/01/2014  13:37:00     -406.512     -193.531      -10.654      178.043      177.970       76.014    31699.340    31673.493     5778.106       13.597        3.458      450.229       66.870        0.022      335.142        5.577      853.217
04/01/2014  13:38:00     -336.460     -277.366       -8.470      237.701      189.848      102.994    56501.564    36042.077    10607.703       14.666        5.158      436.047       98.933        0.051      335.273        5.795      853.200
04/01/2014  13:39:00     -307.358     -276.702      -13.634      200.403      192.555       95.063    40161.488    37077.371     9036.946       12.873        4.314      413.561      103.065        0.062      335.194        5.664      853.193
04/01/2014  13:40:00     -487.568     -344.051       -1.528      247.036      214.555      117.476    61026.602    46033.646    13800.583       23.845        6.043      596.736      126.098        0.045      335.181        5.642      853.158
04/01/2014  13:41:00     -485.478     -286.166      -23.716      216.072      179.613       91.185    46687.068    32260.776     8314.774       20.269        4.363      563.542      109.024        0.037      335.401        6.007      853.167
04/01/2014  13:42:00     -247.342     -142.603        9.355      176.201      187.508       95.007    31046.814    35159.245     9026.389        7.840        3.762      285.506       82.260        0.083      335.386        5.984      853.181
04/01/2014  13:43:00     -370.475     -320.867      -36.416      157.647      201.133       90.385    24852.444    40454.443     8169.530       15.749        3.674      490.110       88.487        0.033      335.487        6.151      853.130
04/01/2014  13:44:00     -231.497     -159.494      -14.787      148.708      121.550       68.476    22114.015    14774.510     4689.027        6.040        2.079      281.121       66.912        0.057      335.805        6.682      853.127
04/01/2014  13:45:00     -139.540     -226.517       -9.866       99.483      159.176       57.772     9896.910    25337.140     3337.639        5.472        1.929      266.048       51.353        0.037      335.738        6.570      853.129
04/01/2014  13:46:00     -396.485     -234.728      -20.266      187.250      149.637       70.479    35062.489    22391.338     4967.248       13.755        3.121      460.758       86.843        0.036      335.601        6.343      853.078
04/01/2014  13:47:00     -310.156     -311.405       10.887      190.695      184.226       93.467    36364.554    33939.136     8736.078       13.615        3.952      439.511      104.520        0.057      335.550        6.256      853.069
04/01/2014  13:48:00     -215.139     -261.883        3.219      162.856      181.787       80.476    26522.183    33046.548     6476.345        9.045        3.302      338.922       87.494        0.067      335.583        6.310      853.051
04/01/2014  13:49:00     -215.170     -172.176        7.631      160.608      138.724       70.719    25794.881    19244.352     5001.112        6.301        2.502      275.577       65.014        0.056      335.763        6.611      853.006
04/01/2014  13:50:00     -202.282     -156.304       23.616      163.923      133.909       69.534    26870.825    17931.608     4834.960        5.776        2.482      255.635       66.040        0.067      335.666        6.447      852.991
04/01/2014  13:51:00     -210.524     -253.733       -9.582      125.826      165.903       65.504    15832.279    27523.786     4290.796        7.821        2.382      329.698       68.772        0.044      335.432        6.060      852.997
04/01/2014  13:52:00     -189.845     -296.806       -7.724      114.874      160.784       65.611    13196.070    25851.430     4304.783        8.376        2.168      352.328       54.913        0.024      335.492        6.159      852.985
04/01/2014  13:53:00     -192.681     -343.637        9.961      181.935      154.030       86.517    33100.211    23725.242     7485.265       10.980        3.216      393.970       89.316        0.051      335.557        6.268      852.953
04/01/2014  13:54:00     -197.170     -223.786       -0.889      175.296      147.404       70.622    30728.627    21728.019     4987.486        7.319        2.872      298.255       62.848        0.044      335.397        6.001      852.908
04/01/2014  13:55:00     -206.481     -209.279       17.440      149.842      151.616       80.894    22452.614    22987.382     6543.824        6.935        2.599      293.993       86.897        0.087      335.800        6.673      852.861
04/01/2014  13:56:00     -401.758     -283.991       -9.126      193.146      153.815       88.275    37305.281    23658.934     7792.547       15.544        3.438      491.996       84.245        0.029      335.477        6.134      852.832
04/01/2014  13:57:00     -243.003     -236.791        5.767      200.504      123.892       76.184    40201.837    15349.137     5804.026        8.824        3.068      339.294       85.322        0.063      335.347        5.918      852.840
04/01/2014  13:58:00     -383.880     -262.783      -16.010      189.673      145.383       77.070    35975.669    21136.236     5939.710       13.985        3.153      465.208       81.458        0.031      335.442        6.076      852.784
04/01/2014  13:59:00     -301.565     -170.784        4.391      176.965      142.697       78.482    31316.570    20362.389     6159.366        8.897        2.892      346.567       87.596        0.064      335.702        6.508      852.791
04/01/2014  14:00:00      -49.271     -243.359      -37.690      101.216      154.729       55.058    10244.596    23941.136     3031.376        5.014        1.861      248.296       37.102        0.022      335.569        6.288      852.790
04/01/2014  14:01:00     -175.756      -46.242        4.601      153.801      116.268       61.013    23654.766    13518.261     3722.570        3.696        2.045      181.737       55.794        0.094      336.158        7.270      852.755
04/01/2014  14:02:00     -407.202     -221.050      -19.892      271.602      199.541      112.251    73767.680    39816.418    12600.332       17.060        6.309      463.332      123.453        0.071      335.764        6.612      852.726
04/01/2014  14:03:00     -592.587     -308.889      -14.878      306.129      238.087      116.023    93715.095    56685.574    13461.350       30.529        8.193      668.260      142.502        0.045      335.782        6.643      852.699
04/01/2014  14:04:00     -683.833     -524.797      -20.292      310.509      274.340      127.153    96415.718    75262.633    16167.764       46.561        9.392      861.997      143.576        0.028      335.586        6.315      852.661
04/01/2014  14:05:00     -481.218     -247.270      -15.447      257.309      179.149      115.222    66207.888    32094.239    13276.211       20.224        5.579      541.030      126.447        0.055      335.741        6.574      852.737
04/01/2014  14:06:00     -394.868     -324.599        4.733      238.915      215.970      108.067    57080.154    46643.204    11678.520       18.833        5.770      511.161      104.731        0.042      335.698        6.501      852.694
04/01/2014  14:07:00     -406.165     -200.702      -34.166      249.315      161.804       91.328    62157.896    26180.499     8340.765       15.153        4.834      453.047       99.871        0.049      335.817        6.700      852.688
04/01/2014  14:08:00     -350.257     -248.749      -16.096      183.774      154.454       93.967    33772.936    23855.999     8829.799       12.562        3.323      429.600       95.758        0.050      335.742        6.576      852.693
04/01/2014  14:09:00     -391.039     -244.137       20.842      213.679      163.584      102.432    45658.914    26759.863    10492.330       14.791        4.146      460.993      101.852        0.049      335.878        6.802      852.626
04/01/2014  14:10:00     -433.567     -191.607      -18.769      156.277      131.356       72.107    24422.480    17254.303     5199.442       13.595        2.344      474.018       67.191        0.020      336.086        7.148      852.637
04/01/2014  14:11:00     -513.524       28.850       -7.112      284.306      208.969      115.796    80829.769    43668.223    13408.697       20.122        6.895      514.334      137.357        0.071      336.114        7.195      852.647
04/01/2014  14:12:00     -430.487     -313.278        0.611      245.123      206.982       89.998    60085.479    42841.427     8099.686       19.722        5.551      532.412      112.809        0.045      336.076        7.131      852.647
04/01/2014  14:13:00     -494.379     -339.820       -2.929      256.986      183.177      107.925    66041.616    33553.842    11647.706       23.555        5.562      599.907      120.642        0.040      336.025        7.047      852.623
04/01/2014  14:14:00     -262.933     -211.199       27.027      218.833      175.907       83.199    47887.894    30943.160     6922.109       10.009        4.288      337.252      109.811        0.106      336.444        7.747      852.693
04/01/2014  14:15:00     -387.161     -125.846       12.389      252.617      155.475       97.881    63815.161    24172.322     9580.650       13.171        4.878      407.100      110.329        0.073      336.351        7.592      852.678
04/01/2014  14:16:00     -437.312     -211.752        2.607      192.009      175.113       85.545    36867.285    30664.702     7317.946       15.545        3.742      485.881       97.020        0.040      336.005        7.013      852.679
04/01/2014  14:17:00     -352.060     -248.622        7.455      225.351      152.078       82.157    50782.998    23127.573     6749.813       13.322        4.033      430.997      104.797        0.059      336.080        7.140      852.700
04/01/2014  14:18:00     -268.840     -228.146      -16.612      189.430      122.941       71.843    35883.624    15114.467     5161.381        9.037        2.808      352.599       64.050        0.033      336.161        7.274      852.716
04/01/2014  14:19:00     -441.215     -261.452      -24.611      302.758      195.235      107.608    91662.470    38116.544    11579.481       20.247        7.068      512.863      135.794        0.070      336.010        7.023      852.685
04/01/2014  14:20:00     -427.044     -114.509      -22.922      291.045      193.175       79.524    84707.115    37316.412     6324.100       16.215        6.417      442.130      118.373        0.072      336.033        7.061      852.685
04/01/2014  14:21:00     -280.059     -290.220        4.642      250.847      140.165       96.466    62924.129    19646.120     9305.752       12.726        4.594      403.312       98.450        0.060      335.904        6.845      852.693
04/01/2014  14:22:00     -441.026     -249.970      -20.471      194.714      134.839       99.567    37913.682    18181.558     9913.617       16.170        3.300      506.941       95.590        0.036      336.007        7.016      852.678
04/01/2014  14:23:00     -346.813     -239.875      -19.722      161.306      136.211       84.041    26019.775    18553.454     7062.948       11.491        2.582      421.687       89.858        0.045      336.281        7.476      852.668
04/01/2014  14:24:00     -401.816     -308.823      -18.786      175.510      194.722      100.137    30803.663    37916.519    10027.375       16.795        3.937      506.782       87.504        0.030      336.113        7.194      852.645
04/01/2014  14:25:00     -358.056     -321.585       -2.112      218.455      195.137      114.147    47722.530    38078.502    13029.600       16.521        4.942      481.270      116.965        0.059      335.989        6.987      852.616
04/01/2014  14:26:00     -338.945     -164.543       -6.567      269.415      197.500       98.978    72584.496    39006.393     9796.652       13.167        6.069      376.773      113.419        0.091      336.299        7.505      852.624
04/01/2014  14:27:00     -225.896     -165.166       -8.587      161.618      137.862       77.834    26120.440    19006.008     6058.165        6.477        2.559      279.837       89.655        0.103      336.411        7.692      852.639
04/01/2014  14:28:00     -433.481      -62.109       -8.596      230.841      147.762       91.970    53287.375    21833.537     8458.499       13.769        4.179      437.908      107.508        0.060      336.181        7.309      852.645
04/01/2014  14:29:00     -329.662      -99.525       -2.249      241.868      140.629       81.698    58500.109    19776.642     6674.515       10.175        4.248      344.358       93.041        0.073      336.065        7.116      852.657
04/01/2014  14:30:00     -495.008     -296.995      -22.316      271.255      194.687      100.101    73579.134    37902.910    10020.164       22.759        6.075      577.268      121.585        0.044      335.984        6.979      852.665
04/01/2014  14:31:00     -279.246     -133.147      -11.167      180.100      183.047       63.273    32435.991    33506.376     4003.411        8.287        3.497      309.364       57.728        0.035      335.971        6.957      852.696
04/01/2014  14:32:00     -264.552     -239.640       17.825      208.336      170.862       90.820    43404.003    29193.723     8248.315       10.427        4.042      356.953       84.932        0.057      335.927        6.883      852.660
04/01/2014  14:33:00     -244.287     -192.758        3.935      210.016      152.932       87.211    44106.629    23388.246     7605.773        8.596        3.755      311.178      109.411        0.124      336.130        7.222      852.633
04/01/2014  14:34:00     -349.592     -166.726       -9.847      192.819      151.250       84.832    37179.156    22876.486     7196.525       10.867        3.363      387.314       94.801        0.060      336.122        7.210      852.628
04/01/2014  14:35:00     -381.849      -76.601      -11.850      195.455      177.590       76.568    38202.549    31538.338     5862.659       11.370        3.780      389.456       85.331        0.048      335.907        6.852      852.663
04/01/2014  14:36:00     -651.632     -102.775      -31.170      258.421      215.948       91.866    66781.655    46633.517     8439.394       27.898        6.093      659.687      117.593        0.032      335.482        6.142      852.618
04/01/2014  14:37:00     -363.880     -165.937       -6.226      162.552      135.528       79.725    26423.286    18367.880     6356.071       10.555        2.557      399.930       73.292        0.034      336.051        7.091      852.592
04/01/2014  14:38:00     -330.022     -149.732      -19.140      133.516      128.061       78.993    17826.624    16399.541     6239.933        8.608        2.023      362.400       64.503        0.032      336.148        7.253      852.614
04/01/2014  14:39:00     -319.330       37.067       -7.790      159.993      118.286       79.248    25597.667    13991.498     6280.170        7.463        2.293      321.474       78.181        0.059      336.367        7.619      852.614
04/01/2014  14:40:00     -123.680      -32.982        8.938      126.227      101.279       52.636    15933.235    10257.527     2770.566        2.271        1.448      128.002       53.925        0.177      336.552        7.930      852.623
04/01/2014  14:41:00     -166.605      -81.960       12.100      170.524       76.204       60.866    29078.487     5807.014     3704.708        3.660        1.930      185.674       73.889        0.158      336.510        7.859      852.632
04/01/2014  14:42:00     -467.209     -137.628      -13.503      204.131      160.981       92.772    41669.309    25914.914     8606.613       15.678        3.810      487.058      101.969        0.044      336.057        7.101      852.623
04/01/2014  14:43:00     -429.773     -191.174      -21.273      166.242      173.841       74.862    27636.515    30220.858     5604.381       14.257        3.173      470.375       71.728        0.023      335.907        6.849      852.605
04/01/2014  14:44:00     -523.827     -155.709       -6.664      233.264      190.134      103.984    54411.970    36150.846    10812.767       20.001        5.069      546.479      113.937        0.043      335.965        6.947      852.585
04/01/2014  14:45:00     -330.083     -237.303       -4.538      227.072      148.225       92.389    51561.535    21970.679     8535.792       12.366        4.103      406.531      103.219        0.064      336.152        7.259      852.608
04/01/2014  14:46:00     -295.092     -261.346       -5.185      198.681      162.013       83.000    39473.965    26248.238     6889.022       11.400        3.631      394.184      105.112        0.071      335.841        6.740      852.677
04/01/2014  14:47:00     -291.790     -221.769       -2.426      155.344      145.345       80.310    24131.791    21125.149     6449.749        9.301        2.585      366.501       79.361        0.047      335.944        6.911      852.641
04/01/2014  14:48:00     -349.055     -280.075       10.124      196.031      165.987      107.949    38428.045    27551.536    11652.936       13.899        3.882      447.528      107.888        0.058      336.156        7.265      852.598
04/01/2014  14:49:00     -573.078     -358.114      -11.529      251.932      194.793       99.854    63469.493    37944.130     9970.917       28.407        5.569      675.770      120.588        0.032      335.837        6.734      852.598
04/01/2014  14:50:00     -391.220     -118.323        4.755      186.302      117.132       88.716    34708.582    13719.802     7870.562       11.168        2.815      408.722       97.559        0.057      336.119        7.203      852.625
04/01/2014  14:51:00     -497.350     -311.843        0.833      219.646      157.469       77.124    48244.533    24796.627     5948.152       21.178        3.949      587.028       90.596        0.024      335.854        6.761      852.631
04/01/2014  14:52:00     -396.621     -205.496      -10.069      217.232      110.273       72.913    47189.864    12160.028     5316.248       13.214        3.233      446.696       75.662        0.029      335.713        6.527      852.626
04/01/2014  14:53:00     -425.814     -282.764       -1.195      224.891      183.277       89.604    50575.870    33590.368     8028.952       17.672        4.610      511.149      110.810        0.047      335.680        6.471      852.588
04/01/2014  14:54:00     -271.547     -244.151       -1.967      199.895      124.021       78.790    39958.138    15381.165     6207.918        9.744        3.077      365.168       78.613        0.046      336.051        7.091      852.584
04/01/2014  14:55:00     -180.051     -289.158       -4.750      182.142      161.887       75.204    33175.829    26207.312     5655.704        9.053        3.252      340.633       85.649        0.063      335.979        6.971      852.561
04/01/2014  14:56:00     -280.639     -311.638       -2.643      207.298      184.423       94.969    42972.599    34011.711     9019.066       13.093        4.300      419.376      106.296        0.064      335.892        6.827      852.535
04/01/2014  14:57:00     -325.008     -230.265        1.625      177.879      164.325       80.531    31640.896    27002.636     6485.208       11.188        3.256      398.311       98.990        0.062      335.860        6.771      852.509
04/01/2014  14:58:00     -367.911     -264.139       -2.140      173.122      146.016       89.139    29971.169    21320.663     7945.712       13.217        2.962      452.910       96.699        0.046      335.952        6.926      852.486
04/01/2014  14:59:00     -331.451     -168.561       -7.796      135.656      118.872       72.707    18402.609    14130.591     5286.300        8.807        1.891      371.850       63.844        0.029      336.282        7.477      852.489
04/01/2014  15:00:00     -385.850      -37.984      -24.042      194.050      148.065       73.363    37655.300    21923.129     5382.116       10.792        3.248      387.715       80.830        0.043      336.322        7.543      852.473
04/01/2014  15:01:00     -371.734     -127.659      -15.173      214.569      118.618       70.478    46039.744    14070.335     4967.171       10.988        3.254      393.043       93.027        0.056      336.490        7.825      852.476
04/01/2014  15:02:00     -180.129     -122.414        5.484      174.427      136.300       85.455    30424.777    18577.732     7302.530        5.187        2.815      217.788      100.538        0.213      336.330        7.557      852.471
04/01/2014  15:03:00     -272.728     -180.896        0.704      179.303      171.365       89.171    32149.464    29365.988     7951.537        8.827        3.473      327.267       86.573        0.070      336.210        7.358      852.441
04/01/2014  15:04:00     -140.625      -84.164        9.081      150.434      120.273       82.313    22630.296    14465.712     6775.369        3.540        2.194      163.887       76.859        0.220      336.706        8.186      852.417
04/01/2014  15:05:00     -170.748     -140.193        8.268      198.470      158.677       96.101    39390.354    25178.298     9235.416        6.133        3.690      220.928      115.416        0.273      336.389        7.656      852.441
04/01/2014  15:06:00     -141.818     -129.570       -3.745      156.634      118.783       70.018    24534.291    14109.367     4902.573        4.022        2.177      192.095       64.451        0.113      336.099        7.174      852.455
04/01/2014  15:07:00     -336.795     -255.314      -26.867      269.940      216.157      119.219    72867.797    46723.976    14213.200       15.654        6.690      422.630       83.144        0.039      336.063        7.110      852.419
04/01/2014  15:08:00     -139.528     -119.018       23.400      153.347      168.948       89.668    23515.430    28543.337     8040.354        4.713        3.005      183.394       83.535        0.207      336.293        7.495      852.392
04/01/2014  15:09:00     -536.670      -98.040      -34.119      182.481      156.250       81.037    33299.323    24414.142     6566.974       18.152        3.214      545.551       71.178        0.017      335.832        6.726      852.376
04/01/2014  15:10:00     -443.121     -110.112      -25.506      150.602      141.061       75.034    22681.027    19898.075     5630.127       12.866        2.410      456.597       81.687        0.032      335.949        6.920      852.349
04/01/2014  15:11:00     -398.536     -120.137       -2.409      158.845      133.984       65.337    25231.687    17951.827     4268.910       11.035        2.373      416.249       62.924        0.023      335.895        6.830      852.333
04/01/2014  15:12:00     -375.889      -84.351      -27.296      188.599      140.355       80.801    35569.444    19699.471     6528.727       10.546        3.090      385.238       80.275        0.043      336.004        7.012      852.328
04/01/2014  15:13:00     -346.960     -224.299      -14.173      154.724      126.179       85.554    23939.503    15921.175     7319.507       10.903        2.359      413.148       73.190        0.031      336.085        7.147      852.332
04/01/2014  15:14:00     -276.761     -110.018       -7.258      161.665      139.760       74.753    26135.537    19532.779     5588.056        6.999        2.563      297.826       83.369        0.078      336.272        7.460      852.292
04/01/2014  15:15:00     -351.556      -34.728       -4.936      225.532      131.668       84.330    50864.888    17336.540     7111.588       10.005        3.766      353.267      100.984        0.082      336.283        7.477      852.275
04/01/2014  15:16:00     -603.386     -143.254      -45.966      283.085      162.574      101.722    80137.019    26430.193    10347.346       25.179        5.846      620.159      122.155        0.039      335.971        6.956      852.210
04/01/2014  15:17:00     -633.173     -138.322      -21.487      251.660      177.478       95.768    63332.599    31498.518     9171.549       26.223        5.200      648.105      112.359        0.030      336.022        7.042      852.194
04/01/2014  15:18:00     -514.504     -194.783      -13.463      274.410      222.800      116.900    75300.808    49639.665    13665.632       22.069        6.930      550.141      128.332        0.054      336.104        7.178      852.232
04/01/2014  15:19:00     -546.413     -164.013       -8.754      236.608      249.646       93.486    55983.207    62323.071     8739.714       22.627        6.352      570.497      116.812        0.042      335.944        6.910      852.224
04/01/2014  15:20:00     -401.451      -54.147      -18.896      169.054      130.090       84.898    28579.353    16923.318     7207.654       10.857        2.636      405.086       86.757        0.046      336.336        7.564      852.262
04/01/2014  15:21:00     -430.325     -309.713      -19.099      243.063      192.649      103.786    59079.444    37113.484    10771.537       19.419        5.348      530.190      104.429        0.039      336.113        7.194      852.218
04/01/2014  15:22:00     -299.934     -191.965        6.027      218.847      196.985      103.020    47894.197    38803.017    10613.025       11.206        4.866      356.105      100.754        0.080      336.001        7.007      852.250
04/01/2014  15:23:00     -280.569      -67.237      -10.892      204.023      158.189       82.983    41625.275    25023.637     6886.177        7.843        3.677      288.513       84.555        0.086      336.241        7.406      852.268
04/01/2014  15:24:00     -472.939      -21.092      -28.600      198.999      152.584       78.586    39600.612    23282.026     6175.698       14.698        3.453      473.409       86.728        0.034      336.098        7.169      852.237
04/01/2014  15:25:00     -459.631      -55.447      -28.915      170.832      150.280       77.380    29183.563    22584.196     5987.681       13.645        2.888      462.963       89.702        0.038      336.098        7.168      852.215
04/01/2014  15:26:00     -389.904     -201.965        9.155      270.342      227.809      101.190    73084.745    51897.155    10239.500       16.403        6.761      439.107      117.516        0.072      336.393        7.661      852.232
04/01/2014  15:27:00     -477.908     -309.107      -18.650      212.470      162.417       92.981    45143.376    26379.178     8645.394       20.221        4.008      569.160       82.322        0.021      335.904        6.844      852.233
04/01/2014  15:28:00     -430.874     -194.455      -15.675      139.027      160.989       81.729    19328.433    25917.580     6679.691       13.781        2.596      472.721       80.122        0.029      336.205        7.348      852.255
04/01/2014  15:29:00     -460.048     -226.590       -4.938      235.428      176.100       92.675    55426.359    31011.328     8588.694       17.900        4.751      512.823      111.199        0.047      336.183        7.311      852.255
04/01/2014  15:30:00     -287.866     -197.453       -7.360      181.307      139.317       90.264    32872.183    19409.275     8147.616        9.116        3.021      349.077      108.471        0.097      336.188        7.318      852.262
04/01/2014  15:31:00     -422.968     -194.412      -20.895      239.681      175.669      114.539    57447.058    30859.518    13119.221       15.926        5.071      465.508      117.934        0.064      336.009        7.020      852.241
04/01/2014  15:32:00     -306.878     -234.974      -11.609      237.393      195.417      116.935    56355.604    38187.959    13673.893       12.885        5.411      386.506      141.528        0.134      336.144        7.247      852.264
04/01/2014  15:33:00     -286.902      -93.787        0.523      111.024      116.017       64.763    12326.414    13459.930     4194.242        6.054        1.499      301.842       53.480        0.031      336.152        7.258      852.261
04/01/2014  15:34:00     -212.891      -56.038        1.964      151.495      147.324       65.598    22950.737    21704.410     4303.111        4.870        2.448      220.143       65.989        0.090      336.589        7.988      852.277
04/01/2014  15:35:00     -405.998     -214.931      -13.329      212.926      156.460       81.048    45337.687    24479.768     6568.844       14.378        3.819      459.380       96.768        0.044      335.990        6.989      852.259
04/01/2014  15:36:00     -329.351      -53.013      -11.237      103.444      112.858       59.271    10700.740    12736.839     3513.053        6.917        1.348      333.590       52.314        0.025      336.208        7.351      852.227
04/01/2014  15:37:00     -434.983       14.735      -13.251      259.776      169.617      108.752    67483.480    28769.807    11827.095       14.882        5.404      435.232      132.514        0.093      336.307        7.517      852.221
04/01/2014  15:38:00     -463.838     -287.201      -32.323      183.604      147.266       82.632    33710.287    21687.201     6828.031       18.044        3.111      545.555       72.068        0.017      336.120        7.204      852.198
04/01/2014  15:39:00     -351.706      -80.372      -10.035      283.512      190.897       92.074    80378.792    36441.564     8477.684       12.775        6.265      360.773      109.663        0.092      336.270        7.456      852.190
04/01/2014  15:40:00     -589.473       45.823      -62.756      186.603      139.556       86.221    34820.849    19475.781     7434.027       20.761        3.087      591.251       92.249        0.024      336.057        7.099      852.178
04/01/2014  15:41:00     -473.455      -18.704      -39.079      208.648      160.533       90.768    43533.785    25770.873     8238.879       15.177        3.877      473.824       96.486        0.041      336.274        7.463      852.168
04/01/2014  15:42:00     -633.023     -156.247      -38.629      228.583      145.588       93.909    52250.084    21195.822     8818.959       25.443        4.113      652.021      107.682        0.027      335.851        6.757      852.177
04/01/2014  15:43:00     -569.602     -103.721      -52.356      208.710      145.566       73.203    43559.981    21189.493     5358.723       20.401        3.505      578.969       92.835        0.026      335.915        6.863      852.169
04/01/2014  15:44:00     -464.226      -71.789      -12.196      245.026      147.853       85.275    60037.679    21860.535     7271.812       15.497        4.459      469.744      114.665        0.060      336.150        7.257      852.148
04/01/2014  15:45:00     -482.006     -101.384       -9.577      190.996      184.434       91.371    36479.384    34015.792     8348.739       16.076        3.942      492.553      103.534        0.044      336.234        7.396      852.145
04/01/2014  15:46:00     -445.308      -74.272      -18.838      163.524      131.624       81.492    26740.216    17324.783     6640.980       12.743        2.535      451.459       81.489        0.033      336.478        7.805      852.129
04/01/2014  15:47:00     -289.206     -227.639       14.735      219.748      140.574      102.827    48289.370    19761.024    10573.338       10.713        3.931      368.048      109.555        0.089      336.348        7.586      852.136
04/01/2014  15:48:00     -137.459      -97.438       11.486      170.642      125.236       79.830    29118.606    15683.934     6372.866        3.984        2.559      168.491       91.073        0.292      336.589        7.988      852.148
04/01/2014  15:49:00     -262.610      -93.984        9.182      206.535      141.715       76.409    42656.597    20083.270     5838.342        7.322        3.429      278.922       94.398        0.115      336.391        7.659      852.136
04/01/2014  15:50:00     -317.581     -194.120      -14.459      198.469      191.107       89.889    39390.109    36521.807     8080.074       11.135        4.200      372.210      100.092        0.072      336.541        7.910      852.129
04/01/2014  15:51:00     -307.302     -226.757      -10.527      168.910      151.712       87.536    28530.497    23016.604     7662.524       10.258        2.960      381.907       86.495        0.051      336.288        7.485      852.144
04/01/2014  15:52:00     -472.599     -185.733      -25.070      278.726      155.003       99.752    77687.958    24025.998     9950.367       18.505        5.583      507.786      104.693        0.043      336.004        7.012      852.142
04/01/2014  15:53:00     -697.758     -196.472      -36.089      246.274      216.300      118.050    60650.642    46785.691    13935.822       32.405        6.069      724.892      125.257        0.030      335.903        6.844      852.104
04/01/2014  15:54:00     -441.894     -100.660       -6.432      247.523      184.795      105.021    61267.851    34149.357    11029.396       15.592        5.322      453.214      122.740        0.073      336.160        7.272      852.143
04/01/2014  15:55:00     -458.138      -79.617      -25.284      158.585      169.694       80.071    25149.336    28796.102     6411.364       13.860        3.018      465.005       68.069        0.021      335.925        6.881      852.133
04/01/2014  15:56:00     -174.959       -5.322        9.556      155.567      132.818       73.865    24200.979    17640.496     5455.970        3.900        2.365      175.040       75.072        0.184      336.448        7.754      852.093
04/01/2014  15:57:00     -161.190      -65.197       -0.639      149.481      120.935       68.665    22344.471    14625.374     4714.841        3.595        2.084      173.876       81.205        0.218      336.500        7.843      852.056
04/01/2014  15:58:00     -289.421     -134.862        6.274      264.498      235.820       93.575    69959.415    55610.935     8756.356       11.813        6.716      319.299      116.552        0.133      336.482        7.811      852.042
04/01/2014  15:59:00     -349.444      -84.360      -11.664      235.644      211.140      101.233    55528.140    44580.156    10248.117       11.984        5.518      359.482       99.313        0.076      336.163        7.279      852.044
04/01/2014  16:00:00     -322.671      -69.069       -6.823      200.314      175.715      102.458    40125.654    30875.630    10497.548        9.520        4.075      329.981       91.744        0.077      336.167        7.284      852.074
04/01/2014  16:01:00     -277.401       81.596       -4.467      188.242      130.399       85.160    35434.916    17003.891     7252.256        7.165        2.985      289.153       87.854        0.092      336.285        7.481      852.054
04/01/2014  16:02:00     -219.404      -95.711        3.646      215.635      159.361       95.150    46498.359    25395.798     9053.496        6.911        4.047      239.371      110.456        0.213      336.272        7.461      852.061
04/01/2014  16:03:00     -256.410     -201.697       16.735      202.810      179.006       92.940    41131.949    32043.285     8637.818        9.424        4.091      326.233       93.332        0.082      336.208        7.353      852.073
04/01/2014  16:04:00     -414.963     -106.673      -21.258      209.485      165.078       91.086    43883.917    27250.735     8296.737       13.171        3.972      428.454       88.013        0.042      336.084        7.145      852.046
04/01/2014  16:05:00     -385.832      -92.173      -30.499      178.421      117.241       61.487    31833.962    13745.475     3780.615       10.382        2.468      396.689       57.883        0.021      336.354        7.597      852.055
04/01/2014  16:06:00     -404.869     -112.129       -0.260      212.441      128.476       75.671    45131.337    16506.016     5726.043       12.191        3.368      420.109       88.270        0.044      336.195        7.331      852.065
04/01/2014  16:07:00     -484.875     -271.127      -17.623      212.093      165.931       88.340    44983.624    27532.946     7803.921       19.461        4.016      555.530       94.622        0.029      335.977        6.967      852.078
04/01/2014  16:08:00     -331.881       35.877       -9.623      208.355      157.142       80.080    43411.633    24693.547     6412.813        9.301        3.726      333.815       98.135        0.086      336.241        7.409      852.031
04/01/2014  16:09:00     -309.885      -48.758      -10.691      199.015      112.843       65.711    39606.772    12733.487     4317.970        7.758        2.833      313.697       81.756        0.068      336.275        7.465      852.041
04/01/2014  16:10:00     -630.815      -10.392      -40.746      179.669      158.748       79.354    32281.115    25201.067     6297.006       23.172        3.189      630.901       82.655        0.017      336.082        7.143      852.007
04/01/2014  16:11:00     -321.680     -174.254       -3.059      225.659      150.107       80.180    50921.839    22532.188     6428.788       10.685        3.994      365.845       83.141        0.052      336.251        7.425      852.005
04/01/2014  16:12:00     -475.690     -280.232      -24.387      259.709      162.249       87.000    67448.518    26324.895     7569.017       20.335        5.067      552.097       81.962        0.022      336.028        7.053      852.034
04/01/2014  16:13:00     -243.084     -184.366        3.535      231.511      184.890      106.793    53597.336    34184.256    11404.647        9.612        4.959      305.091      114.309        0.140      336.177        7.301      852.038
04/01/2014  16:14:00     -432.401     -191.440      -13.153      260.465      190.945       94.523    67842.083    36460.050     8934.669       16.849        5.662      472.885      112.810        0.057      336.256        7.433      852.029
04/01/2014  16:15:00     -424.914     -317.768      -19.551      282.739      233.305      123.280    79941.339    54431.197    15197.954       21.571        7.479      530.593      149.524        0.079      336.011        7.024      852.034
04/01/2014  16:16:00     -404.351     -262.744        1.287      217.474      162.607       99.372    47294.758    26441.142     9874.809       15.806        4.181      482.218       98.899        0.042      336.061        7.106      851.997
04/01/2014  16:17:00     -449.254     -112.273      -19.872      215.882      178.602       88.918    46604.838    31898.722     7906.386       15.060        4.320      463.071      105.027        0.051      336.332        7.559      851.954
04/01/2014  16:18:00     -290.296     -113.822        6.833      256.430      227.467      124.564    65756.122    51741.071    15516.078       11.512        6.651      311.812      119.255        0.146      336.310        7.524      851.982
04/01/2014  16:19:00     -348.971     -248.043      -12.320      158.082      121.856       83.538    24989.981    14848.864     6978.533       11.513        2.341      428.143       84.337        0.039      336.065        7.114      852.009
04/01/2014  16:20:00     -182.334      -53.974       11.356      167.899      120.980       61.073    28190.031    14636.234     3729.872        4.141        2.328      190.155       74.090        0.152      336.629        8.056      851.949
04/01/2014  16:21:00     -457.598     -117.171       -9.505      271.337      169.703      106.904    73623.652    28798.967    11428.371       16.851        5.693      472.361      121.860        0.067      336.299        7.505      851.986
04/01/2014  16:22:00     -320.184     -282.649       -4.174      218.303      189.618      110.258    47656.317    35954.979    12156.774       13.908        4.788      427.093      125.002        0.086      336.205        7.348      851.999
04/01/2014  16:23:00     -274.430     -162.462       -9.766      175.326      163.485       74.401    30739.042    26727.182     5535.441        8.239        3.150      318.913       81.955        0.066      336.315        7.531      851.990
04/01/2014  16:24:00     -376.538     -218.620      -10.444      217.948      182.351       84.786    47501.343    33251.760     7188.654       13.880        4.397      435.403       97.315        0.050      336.279        7.473      851.954
04/01/2014  16:25:00     -536.321     -156.888      -27.141      147.392      139.148       71.107    21724.280    19362.146     5056.208       17.956        2.307      558.797       70.172        0.016      335.994        6.995      851.969
04/01/2014  16:26:00     -467.881     -281.762      -10.305      230.707      215.905      110.658    53225.919    46614.887    12245.266       20.522        5.604      546.171      118.339        0.047      336.044        7.077      851.952
04/01/2014  16:27:00     -591.467     -152.153      -21.936      277.890      147.787       97.066    77222.695    21841.130     9421.837       24.095        5.424      610.724      125.978        0.043      336.085        7.149      851.956
04/01/2014  16:28:00     -388.429     -103.549      -23.695      216.036      154.783       92.172    46671.533    23957.852     8495.631       12.063        3.956      401.994      105.409        0.069      336.252        7.426      851.931
04/01/2014  16:29:00     -365.555        7.235      -22.468      169.300      122.206       73.257    28662.493    14934.365     5366.628        9.157        2.448      365.627       76.486        0.044      336.414        7.697      851.963
04/01/2014  16:30:00     -329.341     -166.779      -12.578      196.007      137.600       73.100    38418.924    18933.762     5343.654        9.956        3.135      369.162       82.299        0.050      336.190        7.323      851.982
04/01/2014  16:31:00     -503.749     -246.854      -14.812      183.806      200.893       91.178    33784.560    40358.060     8313.403       19.867        4.123      560.981       86.158        0.024      335.850        6.756      851.982
04/01/2014  16:32:00     -486.410     -290.842      -11.727      231.876      204.126      104.756    53766.680    41667.226    10973.902       21.384        5.320      566.731       93.480        0.027      335.913        6.860      851.989
04/01/2014  16:33:00     -446.723     -291.021       -1.840      287.276      224.919      127.922    82527.474    50588.367    16363.951       21.684        7.474      533.155      133.033        0.062      335.922        6.876      851.974
04/01/2014  16:34:00     -499.407     -191.706      -24.395      265.144      197.125      107.986    70301.437    38858.244    11660.890       20.376        6.041      534.938      117.843        0.049      335.928        6.884      851.961
04/01/2014  16:35:00     -400.787     -369.058      -18.027      228.539      216.068      109.554    52230.035    46685.470    12001.984       20.402        5.546      544.825      114.439        0.044      335.921        6.872      851.968
04/01/2014  16:36:00     -332.250     -230.010        0.818      252.638      199.444      117.061    63826.094    39777.964    13703.171       14.028        5.865      404.098      137.952        0.117      336.173        7.293      851.954
04/01/2014  16:37:00     -427.750     -108.182      -16.756      261.978      197.153      116.251    68632.614    38869.177    13514.230       15.796        6.051      441.219      135.564        0.094      336.025        7.048      851.925
04/01/2014  16:38:00     -430.586     -135.379       -1.362      238.385      177.449       95.468    56827.185    31488.020     9114.145       15.056        4.871      451.366      119.764        0.070      336.081        7.140      851.930
04/01/2014  16:39:00     -314.242     -279.550       -9.187      193.414      197.815      118.821    37409.028    39130.724    14118.536       13.380        4.533      420.591      122.116        0.084      336.141        7.240      852.006
04/01/2014  16:40:00     -366.585     -195.900      -27.261      228.270      185.193      106.479    52107.071    34296.480    11337.867       13.560        4.887      415.646      116.494        0.079      336.007        7.017      852.004
04/01/2014  16:41:00     -502.232     -127.726      -25.220      195.580      152.906       88.774    38251.560    23380.309     7880.908       16.934        3.476      518.219       94.768        0.033      335.879        6.803      852.007
04/01/2014  16:42:00     -429.199     -141.211       -6.967      170.369      117.606       70.365    29025.597    13831.124     4951.266       12.599        2.390      451.833       66.293        0.022      335.845        6.747      851.987
04/01/2014  16:43:00     -254.793     -124.636        4.636      173.700      144.291       70.976    30171.538    20819.804     5037.650        6.824        2.801      283.643       70.729        0.062      335.978        6.967      851.981
04/01/2014  16:44:00     -206.743     -171.281       13.372      161.047      132.353       78.650    25936.158    17517.294     6185.753        6.094        2.482      268.477       76.969        0.082      336.234        7.396      852.022
04/01/2014  16:45:00     -486.131     -303.359      -14.509      272.466      195.327      109.638    74237.772    38152.694    12020.512       22.646        6.221      573.019      138.640        0.059      335.832        6.726      851.973
04/01/2014  16:46:00     -380.086     -209.931      -11.890      169.295      161.650       90.173    28660.745    26130.819     8131.211       12.579        3.146      434.208       83.263        0.037      336.043        7.077      851.974
04/01/2014  16:47:00     -169.284      -89.378        3.956      139.828      138.786       80.206    19551.945    19261.680     6432.960        4.094        2.262      191.430       70.923        0.137      336.304        7.513      851.954
04/01/2014  16:48:00     -224.278        1.512      -15.940      186.909      141.100       78.617    34935.094    19909.122     6180.673        5.578        3.051      224.283       83.074        0.137      336.129        7.223      851.947
04/01/2014  16:49:00     -299.250      -60.381       -5.784      203.069      145.457       83.821    41236.961    21157.596     7025.998        8.131        3.471      305.281       87.320        0.082      336.249        7.422      851.914
04/01/2014  16:50:00     -624.205     -174.179      -11.403      255.987      235.016       96.246    65529.115    55232.543     9263.282       27.504        6.501      648.051      107.381        0.027      335.890        6.821      851.901
04/01/2014  16:51:00     -563.744     -142.410       -5.570      228.944      148.657       95.863    52415.510    22098.828     9189.743       21.090        4.185      581.453       98.598        0.029      335.897        6.834      851.901
04/01/2014  16:52:00     -433.382      -52.458        5.460      172.425      193.960       92.599    29730.484    37620.559     8574.627       13.325        3.796      436.545       95.339        0.048      336.170        7.290      851.908
04/01/2014  16:53:00     -289.849     -143.795       -0.918      212.740      197.349       92.591    45258.123    38946.654     8573.127        9.872        4.639      323.557      102.688        0.101      336.287        7.484      851.939
04/01/2014  16:54:00     -291.044     -191.991       21.776      296.887      200.795      112.311    88141.802    40318.681    12613.750       13.153        7.054      348.665      154.671        0.197      336.035        7.063      851.975
04/01/2014  16:55:00     -195.096      -48.537       24.145      170.753      138.471       77.794    29156.471    19174.295     6051.958        4.768        2.719      201.043       71.978        0.128      336.231        7.390      851.897
04/01/2014  16:56:00     -113.501      -25.221       31.058      187.189      133.824       94.371    35039.815    17908.895     8905.922        3.816        3.093      116.270       82.338        0.501      336.272        7.461      851.882
04/01/2014  16:57:00     -219.132     -116.682        9.209      158.330      100.991       66.709    25068.414    10199.247     4450.122        5.071        1.986      248.261       73.326        0.087      336.234        7.396      851.869
04/01/2014  16:58:00     -436.774     -211.968       -0.509      242.536      208.395      116.560    58823.552    43428.523    13586.174       17.575        5.792      485.491      119.894        0.061      336.025        7.049      851.873
04/01/2014  16:59:00     -364.223     -214.608       -8.181      233.529      185.660      102.580    54535.690    34469.498    10522.727       13.913        4.976      422.746      117.514        0.077      336.036        7.066      851.898
04/01/2014  17:00:00     -377.255     -218.715      -15.636      252.788      158.565      101.490    63901.645    25142.990    10300.321       14.485        4.967      436.071      102.259        0.055      336.002        7.010      851.885
04/01/2014  17:01:00     -446.014     -288.512       -8.533      242.494      250.078      131.202    58803.176    62539.154    17214.003       21.037        6.928      531.195      123.383        0.054      335.748        6.584      851.954
04/01/2014  17:02:00     -337.585     -183.061       -6.136      202.289      141.157       85.111    40920.967    19925.403     7243.924       10.779        3.405      384.025       85.163        0.049      335.985        6.979      851.893
04/01/2014  17:03:00     -382.863     -193.161      -10.548      255.748      146.265      106.164    65407.073    21393.503    11270.747       14.102        4.904      428.830      127.591        0.089      336.008        7.018      851.963
04/01/2014  17:04:00     -363.119     -185.877        0.796      271.796      244.684      119.825    73872.891    59870.479    14357.989       15.722        7.405      407.929      139.888        0.118      335.906        6.849      851.927
04/01/2014  17:05:00     -459.058      -49.805      -20.246      238.348      150.043       74.828    56809.833    22512.934     5599.299       14.926        4.246      461.752       81.191        0.031      335.946        6.916      851.935
04/01/2014  17:06:00     -390.781      -93.640      -22.579      271.312      192.372      111.666    73610.088    37006.974    12469.234       14.251        6.154      401.843      137.217        0.117      335.848        6.752      851.882
04/01/2014  17:07:00     -598.004     -211.965      -19.384      259.916      191.322      110.692    67556.090    36604.204    12252.741       25.964        5.821      634.459      125.173        0.039      335.757        6.600      851.851
04/01/2014  17:08:00     -714.835     -126.970      -59.197      269.381      196.025      111.321    72566.167    38425.857    12392.431       32.697        6.169      726.024      123.182        0.029      335.633        6.393      851.847
04/01/2014  17:09:00     -470.674      -97.842      -12.228      236.200      221.745       92.217    55790.431    49171.012     8504.006       17.234        5.673      480.736      107.772        0.050      335.789        6.654      851.825
04/01/2014  17:10:00     -366.971      -77.184       -3.848      224.022      207.292       77.273    50185.846    42970.103     5971.069       11.986        4.956      375.000       81.023        0.047      335.913        6.862      851.824
04/01/2014  17:11:00     -235.107      -25.997       12.282      142.121      115.011       66.176    20198.413    13227.583     4379.306        4.695        1.890      236.540       71.185        0.091      336.227        7.385      851.849
04/01/2014  17:12:00     -306.985      -77.023       -8.813      161.215      142.042       77.637    25990.437    20175.914     6027.463        7.621        2.610      316.500       76.644        0.059      336.141        7.241      851.888
04/01/2014  17:13:00     -387.102      -54.935       11.602      198.063      172.194       92.430    39229.035    29650.839     8543.394       11.520        3.871      390.980       85.471        0.048      335.980        6.972      851.896
04/01/2014  17:14:00     -414.592     -210.113       10.310      243.453      247.242      124.887    59269.382    61128.720    15596.879       17.604        6.800      464.794      147.689        0.101      335.796        6.665      851.891
04/01/2014  17:15:00     -389.660     -124.640      -17.897      206.325      171.529       86.797    42570.132    29422.225     7533.774       12.359        3.976      409.109      103.792        0.064      335.947        6.916      851.877
04/01/2014  17:16:00     -274.880     -130.712        0.941      181.942      122.243       82.120    33102.855    14943.456     6743.695        7.371        2.740      304.376       65.445        0.046      336.100        7.172      851.902
04/01/2014  17:17:00     -249.294      -36.947       -4.002      193.094      119.079       75.746    37285.334    14179.859     5737.500        6.035        2.860      252.017       92.926        0.136      336.143        7.244      851.912
04/01/2014  17:18:00     -534.582     -111.402      -13.442      248.254      186.354      107.317    61630.087    34727.673    11517.036       20.310        5.394      546.066      125.266        0.053      335.746        6.583      851.883
04/01/2014  17:19:00     -566.827      -56.480      -23.002      294.004      151.166      105.291    86438.177    22851.164    11086.256       22.267        6.019      569.634      124.359        0.048      335.712        6.526      851.858
04/01/2014  17:20:00     -545.927     -206.656       -9.295      273.906      201.911      113.357    75024.739    40768.221    12849.720       23.471        6.432      583.732      135.072        0.054      335.713        6.526      851.875
04/01/2014  17:21:00     -412.240     -208.063       -7.690      256.428      189.392       96.101    65755.113    35869.268     9235.456       16.205        5.543      461.770      112.769        0.060      335.692        6.491      851.866
04/01/2014  17:22:00     -722.920     -215.374      -11.789      253.765      218.022      116.801    64396.714    47533.626    13642.575       34.733        6.279      754.320      130.024        0.030      335.508        6.186      851.851
04/01/2014  17:23:00     -520.779      -68.579      -25.878      305.435      194.284       99.885    93290.521    37746.366     9977.057       20.877        7.051      525.275      127.357        0.059      335.646        6.416      851.869
04/01/2014  17:24:00     -434.900      -68.938       -8.036      201.107      202.655       98.233    40443.932    41069.198     9649.700       14.254        4.558      440.329       96.375        0.048      335.640        6.406      851.849
04/01/2014  17:25:00     -298.025     -153.279       -1.660      214.972      169.799       92.486    46213.008    28831.684     8553.616        9.794        4.180      335.132      100.417        0.090      335.731        6.558      851.860
04/01/2014  17:26:00     -468.076     -148.765       -2.878      278.660      186.576      100.857    77651.226    34810.730    10172.112       18.191        6.132      491.147      105.019        0.046      335.527        6.218      851.846
04/01/2014  17:27:00     -295.215     -145.926        0.343      234.245      186.570       88.944    54870.848    34808.543     7910.979       10.300        4.880      329.312       97.484        0.088      335.715        6.530      851.856
04/01/2014  17:28:00     -500.450     -214.455        9.149      282.942      245.015      115.794    80055.946    60032.415    13408.299       22.498        7.675      544.465      142.440        0.068      335.551        6.258      851.846
04/01/2014  17:29:00     -346.022     -228.756       20.424      281.054      243.200      120.461    78991.122    59146.357    14510.912       16.253        7.632      414.802      130.785        0.099      335.505        6.180      851.832
04/01/2014  17:30:00     -502.269     -304.696      -19.675      243.427      218.159      122.576    59256.869    47593.248    15024.779       23.366        6.094      587.464      130.445        0.049      335.415        6.030      851.873
04/01/2014  17:31:00     -377.266     -196.366       -5.560      238.025      182.894      101.423    56656.076    33450.263    10286.652       14.064        5.020      425.310      123.279        0.084      335.420        6.040      851.902
04/01/2014  17:32:00     -520.469     -283.192      -19.518      288.297      230.011      112.007    83115.399    52905.011    12545.488       24.999        7.428      592.525      123.769        0.044      335.351        5.924      851.889
04/01/2014  17:33:00     -680.589      -81.780      -42.598      226.863      181.104      105.514    51466.665    32798.695    11133.275       28.353        4.770      685.485      117.998        0.030      335.323        5.877      851.899
04/01/2014  17:34:00     -419.189     -109.566        6.257      255.264      173.087      112.498    65159.902    29959.022    12655.803       14.775        5.389      433.271      133.743        0.095      335.462        6.108      851.915
04/01/2014  17:35:00     -314.819     -187.834      -14.213      202.945      156.328       99.183    41186.807    24438.462     9837.206       10.501        3.773      366.596       91.115        0.062      335.478        6.136      851.943
04/01/2014  17:36:00     -371.410      -98.253       -2.191      222.272      153.108       98.375    49404.790    23441.913     9677.625       11.505        4.126      384.186      103.524        0.073      335.438        6.068      851.948
04/01/2014  17:37:00     -320.190      -97.645       -6.548      199.757      177.478       90.275    39902.823    31498.445     8149.574        9.581        3.978      334.748       89.679        0.072      335.470        6.122      851.969
04/01/2014  17:38:00     -188.879     -126.266       18.334      192.023      162.313      104.510    36872.927    26345.416    10922.410        6.303        3.707      227.197      121.352        0.285      335.498        6.170      851.951
04/01/2014  17:39:00     -289.029      -66.683        0.680      231.521      155.236       85.845    53601.881    24098.187     7369.381        8.651        4.253      296.622       99.490        0.112      335.501        6.175      851.959
04/01/2014  17:40:00     -419.535     -214.110      -11.496      214.598      196.086       96.515    46052.280    38449.873     9315.195       15.788        4.691      471.013       94.274        0.040      335.364        5.946      851.975
04/01/2014  17:41:00     -314.383     -138.756        1.873      229.537      176.228      101.671    52687.375    31056.230    10336.989       10.607        4.704      343.642      110.809        0.104      335.361        5.940      851.952
04/01/2014  17:42:00     -350.938      -94.667       -8.245      215.110      128.877       78.664    46272.200    16609.203     6188.020       10.061        3.453      363.482       99.866        0.075      335.374        5.962      851.997
04/01/2014  17:43:00     -277.870     -113.301       19.518      164.797      173.865       80.484    27158.041    30228.892     6477.660        7.713        3.193      300.082       69.329        0.053      335.370        5.956      851.985
04/01/2014  17:44:00     -479.318     -125.910      -24.839      240.762      182.518      107.177    57966.365    33312.663    11486.981       17.447        5.138      495.580      122.325        0.061      335.295        5.832      852.026
04/01/2014  17:45:00     -433.498     -124.714      -16.870      279.060      170.350       94.764    77874.363    29019.000     8980.244       15.979        5.794      451.081      118.360        0.069      335.300        5.840      851.997
04/01/2014  17:46:00     -430.437     -110.330       -9.316      237.650      249.012      108.721    56477.747    62006.901    11820.334       16.389        6.515      444.352      110.333        0.062      335.212        5.693      852.001
04/01/2014  17:47:00     -582.811     -105.947      -12.264      233.262      195.475      104.617    54410.936    38210.627    10944.812       22.728        5.178      592.363      103.738        0.031      335.186        5.650      852.027
04/01/2014  17:48:00     -513.314     -218.573       -9.321      298.402      189.753      108.682    89043.993    36006.064    11811.755       22.408        6.843      557.911      123.744        0.049      335.177        5.635      852.026
04/01/2014  17:49:00     -464.059     -127.099       -8.216      316.963      185.351      107.311   100465.444    34355.008    11515.561       18.893        7.317      481.149      146.658        0.093      335.270        5.792      852.045
04/01/2014  17:50:00     -563.973     -243.544      -20.598      197.383      189.485      101.637    38960.216    35904.416    10330.015       23.148        4.260      614.312       99.493        0.026      335.128        5.553      852.055
04/01/2014  17:51:00     -335.061     -151.715        7.689      208.190      163.789       90.459    43343.149    26826.729     8182.805       10.683        3.918      367.809      104.264        0.080      335.224        5.713      852.055
04/01/2014  17:52:00     -257.536     -132.420       -6.299      197.400      148.620       90.295    38966.650    22087.811     8153.192        7.654        3.460      289.586      105.109        0.132      335.299        5.839      852.056
04/01/2014  17:53:00     -422.696     -123.038      -12.202      287.953      164.797       96.367    82917.067    27157.967     9286.638       15.664        5.968      440.239      106.315        0.058      335.258        5.770      852.050
04/01/2014  17:54:00     -622.736     -183.444      -27.780      202.174      165.679       91.859    40874.414    27449.404     8438.007       24.948        3.838      649.193       91.789        0.020      335.093        5.496      852.035
04/01/2014  17:55:00     -424.953      -85.491       -2.326      200.285      163.339       99.271    40113.941    26679.707     9854.709       13.226        3.832      433.467      102.327        0.056      335.178        5.636      852.038
04/01/2014  17:56:00     -293.297     -228.077       -3.144      250.402      180.736      108.565    62700.974    32665.545    11786.266       12.258        5.358      371.540      123.710        0.111      335.236        5.732      852.058
04/01/2014  17:57:00     -477.147     -286.651      -10.433      311.280      219.188      124.165    96894.981    48043.210    15417.038       23.512        8.018      556.631      162.631        0.085      335.120        5.541      852.025
04/01/2014  17:58:00     -255.432     -186.017       30.182      235.645      192.002      124.481    55528.698    36864.787    15495.571       10.430        5.394      315.987      149.958        0.225      335.233        5.728      852.086
04/01/2014  17:59:00     -221.397     -119.663       -2.226      227.126      152.689       95.454    51586.349    23313.824     9111.464        7.366        4.201      251.666      110.669        0.193      335.251        5.760      852.107
04/01/2014  18:00:00     -514.038     -231.580      -25.903      246.736      224.675      107.661    60878.825    50478.910    11590.873       22.072        6.147      563.795      127.571        0.051      335.094        5.498      852.119
04/01/2014  18:01:00     -319.342     -127.062       11.530      287.792      193.523      101.654    82824.040    37451.193    10333.517       12.441        6.530      343.691      127.298        0.137      335.208        5.687      852.124
04/01/2014  18:02:00     -440.206     -188.377      -37.202      158.751      148.517       76.839    25201.781    22057.224     5904.202       14.190        2.658      478.819       54.930        0.013      335.118        5.538      852.153
04/01/2014  18:03:00     -505.684      -39.582      -23.953      243.746      156.133       90.525    59411.903    24377.654     8194.750       17.490        4.599      507.230       95.543        0.035      335.120        5.541      852.169
04/01/2014  18:04:00     -559.184      -37.183      -20.420      178.597      129.898       84.250    31896.933    16873.542     7097.988       18.517        2.793      560.419       83.077        0.022      335.060        5.442      852.170
04/01/2014  18:05:00     -348.498      -79.393       18.571      183.751      164.314       82.695    33764.573    26998.936     6838.543        9.784        3.380      357.427       91.963        0.066      335.169        5.621      852.177
04/01/2014  18:06:00     -498.314     -103.034       -9.052      176.999      139.680       75.619    31328.495    19510.579     5718.245       15.777        2.828      508.855       78.593        0.024      335.123        5.545      852.193
04/01/2014  18:07:00     -298.438     -140.002       -6.950      223.419      161.970       86.606    49915.847    26234.218     7500.598        9.617        4.183      329.645      111.469        0.114      335.146        5.583      852.182
04/01/2014  18:08:00     -540.416     -110.360      -20.741      193.446      188.980       93.616    37421.532    35713.564     8764.023       19.326        4.095      551.569       90.473        0.027      335.073        5.462      852.207
04/01/2014  18:09:00     -396.880      -39.665       -8.786      181.272      121.964       76.261    32859.472    14875.217     5815.714       10.635        2.678      398.857       81.296        0.042      335.121        5.543      852.222
04/01/2014  18:10:00     -226.002      -98.371      -11.326      160.289      129.471       73.139    25692.488    16762.848     5349.341        5.433        2.390      246.483       83.262        0.114      335.194        5.664      852.202
04/01/2014  18:11:00     -297.450     -144.016        7.493      179.675      175.219       82.636    32283.005    30701.761     6828.777        8.953        3.491      330.480       83.721        0.064      335.160        5.608      852.221
04/01/2014  18:12:00     -369.233     -122.394      -16.545      163.411      123.017       69.409    26703.200    15133.132     4817.656        9.911        2.333      388.990       64.305        0.027      335.115        5.532      852.231
04/01/2014  18:13:00     -184.700     -143.521       10.560      189.769      141.492      101.932    36012.238    20020.047    10390.198        6.061        3.321      233.907      103.400        0.195      335.163        5.613      852.207
04/01/2014  18:14:00     -418.595      -33.677      -16.535      171.152      207.443       86.427    29293.013    43032.636     7469.632       12.820        3.990      419.948       70.707        0.028      335.124        5.547      852.224
04/01/2014  18:15:00     -304.631     -148.223        5.775      217.778      226.125      121.209    47427.113    51132.626    14691.628       11.400        5.663      338.777      133.014        0.154      335.098        5.504      852.191
04/01/2014  18:16:00     -334.114      -29.661       -3.108      160.847      170.639       81.841    25871.666    29117.526     6697.939        8.709        3.084      335.428       80.664        0.058      335.113        5.529      852.199
04/01/2014  18:17:00     -227.485     -136.449       13.194      197.243      204.803       99.030    38904.932    41944.456     9806.866        8.058        4.533      265.269      103.456        0.152      335.083        5.480      852.168
04/01/2014  18:18:00     -407.915      -58.769      -15.680      212.497      115.958       95.241    45155.116    13446.204     9070.825       11.887        3.384      412.127      112.805        0.075      335.075        5.467      852.215
04/01/2014  18:19:00     -368.098     -131.651       -6.072      219.903      157.636       87.017    48357.319    24849.034     7571.956       11.681        4.039      390.933       99.221        0.064      335.066        5.451      852.199
04/01/2014  18:20:00     -278.249      -83.938        2.444      173.244      150.154       87.636    30013.503    22546.234     7680.004        7.234        3.012      290.633       91.495        0.099      335.110        5.525      852.202
04/01/2014  18:21:00     -260.746     -135.791       23.888      207.857      188.502      104.000    43204.566    35532.818    10815.986        8.826        4.478      293.986      125.002        0.181      335.097        5.502      852.218
04/01/2014  18:22:00     -304.488     -126.253        6.646      274.014      194.896      111.637    75083.686    37984.641    12462.875       11.709        6.277      329.625      135.988        0.170      335.087        5.485      852.216
04/01/2014  18:23:00     -289.723     -102.298        6.558      222.844      135.037       95.157    49659.300    18235.113     9054.851        8.568        3.847      307.253      102.126        0.110      335.048        5.422      852.235
04/01/2014  18:24:00     -425.722     -216.541      -21.766      192.874      171.790       88.775    37200.273    29511.650     7881.078       15.158        3.730      477.629       98.280        0.042      334.984        5.315      852.275
04/01/2014  18:25:00     -372.400      -57.939      -23.357      205.622      168.413       81.710    42280.543    28362.972     6676.450       10.994        3.866      376.880      100.973        0.072      335.035        5.400      852.256
04/01/2014  18:26:00     -220.461      -60.748       -0.069      189.596      178.906       80.834    35946.590    32007.407     6534.122        6.338        3.724      228.677       84.939        0.138      335.132        5.561      852.235
04/01/2014  18:27:00     -423.724     -157.368      -16.335      301.544      211.343      114.668    90928.951    44665.964    13148.660       17.663        7.437      452.003      132.687        0.086      334.991        5.325      852.242
04/01/2014  18:28:00     -624.870     -152.567      -48.888      223.279      186.574      100.318    49853.298    34809.789    10063.677       25.541        4.736      643.226      106.283        0.027      334.876        5.136      852.244
04/01/2014  18:29:00     -306.856     -206.008        8.693      203.308      199.618       88.369    41334.296    39847.274     7809.133       11.282        4.450      369.594       98.169        0.071      334.936        5.236      852.258
04/01/2014  18:30:00     -330.655     -217.148      -26.282      194.058      149.869       73.676    37658.488    22460.703     5428.130       11.135        3.277      395.583       67.419        0.029      334.971        5.293      852.265
04/01/2014  18:31:00     -285.421       -7.395       -7.365      215.099      129.541       74.468    46267.582    16780.970     5545.553        7.507        3.430      285.516       90.552        0.101      335.043        5.414      852.262
04/01/2014  18:32:00     -379.291      -76.909       -5.156      232.662      161.219       71.703    54131.685    25991.630     5141.371       11.752        4.263      387.010       86.949        0.050      335.012        5.362      852.281
04/01/2014  18:33:00     -385.765      -75.791       -2.034      210.287      161.259       75.386    44220.828    26004.457     5682.997       11.522        3.795      393.140       91.655        0.054      334.947        5.255      852.276
04/01/2014  18:34:00     -390.011      -53.218       -4.631      164.981      146.954       80.771    27218.739    21595.618     6523.981       10.514        2.767      393.625       80.127        0.041      334.927        5.220      852.244
04/01/2014  18:35:00     -340.628     -100.878      -17.044      142.652      112.655       54.000    20349.507    12691.248     2916.018        8.122        1.798      355.251       51.420        0.021      334.980        5.308      852.240
04/01/2014  18:36:00     -462.211      -68.873      -24.951      170.799      150.992       85.226    29172.421    22798.735     7263.526       13.911        2.962      467.315       85.907        0.034      334.912        5.195      852.223
04/01/2014  18:37:00     -312.695      -38.993        0.996      178.919      146.289       80.506    32011.880    21400.423     6481.211        7.958        2.995      315.117       81.233        0.066      334.947        5.252      852.228
04/01/2014  18:38:00     -189.942       -3.044       19.170      190.929      148.252       81.707    36454.011    21978.693     6675.968        5.077        3.255      189.966       84.296        0.197      335.008        5.356      852.243
04/01/2014  18:39:00     -304.113      -20.694       -3.211      205.801      135.808       68.830    42353.864    18443.837     4737.527        7.922        3.277      304.816       72.838        0.057      334.923        5.213      852.246
04/01/2014  18:40:00     -351.757        6.896        1.406      197.195      124.772       83.255    38885.777    15568.124     6931.390        9.257        3.069      351.825       94.709        0.072      334.852        5.095      852.223
04/01/2014  18:41:00     -328.412      -90.151       -2.125      180.497      141.472       76.345    32579.310    20014.238     5828.593        8.719        2.921      340.561       81.999        0.058      334.876        5.136      852.185
04/01/2014  18:42:00     -378.241        7.047      -22.165      234.113      154.603       77.390    54808.861    23902.202     5989.267       11.414        4.235      378.307       97.132        0.066      334.872        5.129      852.160
04/01/2014  18:43:00     -302.067      -52.352       15.089      186.363      118.093       67.400    34731.105    13945.971     4542.703        7.371        2.661      306.570       83.458        0.074      334.930        5.226      852.142
04/01/2014  18:44:00     -376.203      -75.975      -26.292      113.891      102.194       59.709    12971.152    10443.704     3565.177        8.748        1.349      383.798       57.197        0.022      334.906        5.184      852.136
04/01/2014  18:45:00     -175.954      -39.252       -1.445      136.711       95.986       67.341    18690.032     9213.300     4534.845        3.246        1.622      180.279       52.561        0.085      334.938        5.238      852.103
04/01/2014  18:46:00     -196.524      -78.718       -2.958      128.925      140.346       74.811    16621.770    19696.969     5596.747        4.336        2.096      211.703       76.605        0.131      334.929        5.223      852.076
04/01/2014  18:47:00     -439.613      -54.711      -42.928      222.433      117.355       69.928    49476.572    13772.185     4889.860       13.310        3.407      443.005       85.178        0.037      334.856        5.102      852.045
04/01/2014  18:48:00     -158.695      -58.103       22.314      224.738      165.509      104.110    50506.993    27393.327    10838.923        5.888        4.437      168.998      110.181        0.425      334.929        5.224      851.982
04/01/2014  18:49:00     -297.576      -60.236       -7.977      204.939      154.865       84.480    42000.102    23983.092     7136.944        8.267        3.656      303.611       92.621        0.093      334.864        5.115      851.978
04/01/2014  18:50:00     -343.610      -72.938      -14.740      263.080      178.761       98.921    69210.874    31955.559     9785.291       11.726        5.548      351.266      125.048        0.127      334.843        5.079      851.953
04/01/2014  18:51:00     -453.601      -28.884      -16.640      215.148      152.205       80.671    46288.552    23166.401     6507.878       14.140        3.798      454.519       82.996        0.033      334.804        5.014      851.971
04/01/2014  18:52:00     -239.989     -115.165      -10.573      193.290      134.709       85.207    37361.097    18146.637     7260.263        6.686        3.138      266.191       99.974        0.141      334.888        5.154      851.936
04/01/2014  18:53:00     -183.285      -72.849       17.188      137.764      102.386       67.098    18978.904    10482.904     4502.134        3.657        1.698      197.232       74.646        0.143      334.911        5.195      851.945
04/01/2014  18:54:00     -166.313      -32.222       -1.271      151.552       96.383       64.862    22967.897     9289.658     4207.027        3.257        1.823      169.406       76.190        0.202      334.919        5.207      851.937
04/01/2014  18:55:00     -373.522       42.978      -13.587      194.661      141.853       91.860    37892.778    20122.313     8438.351       10.399        3.323      375.986      110.774        0.087      334.843        5.080      851.925
04/01/2014  18:56:00     -457.977      -44.668      -20.871      164.121      155.007       94.885    26935.841    24027.020     9003.071       13.606        2.998      460.151       90.126        0.038      334.733        4.898      851.950
04/01/2014  18:57:00     -487.425        2.556      -19.150      186.157      179.998       86.767    34654.565    32399.415     7528.502       15.625        3.729      487.432       98.152        0.041      334.707        4.853      851.949
04/01/2014  18:58:00     -430.602     -107.062       -3.553      197.156      140.019       77.536    38870.463    19605.404     6011.831       13.068        3.224      443.712       83.069        0.035      334.709        4.857      851.936
04/01/2014  18:59:00     -399.306      -74.328      -19.901      132.272       95.000       65.728    17495.760     9025.021     4320.155        9.810        1.542      406.165       65.389        0.026      334.709        4.856      851.960
04/01/2014  19:00:00     -161.359      -40.042       21.431      133.139      150.043       74.348    17725.922    22512.847     5527.663        3.692        2.288      166.253       71.634        0.186      334.767        4.954      851.943
04/01/2014  19:01:00     -501.903     -113.087      -14.103      173.416      157.503       81.752    30073.087    24807.164     6683.322       16.322        3.078      514.486       75.012        0.021      334.669        4.790      851.955
04/01/2014  19:02:00     -388.296      -98.247       -5.913      141.390      144.450       72.934    19991.151    20865.861     5319.350       10.331        2.309      400.532       72.320        0.033      334.682        4.812      851.944
04/01/2014  19:03:00     -472.742      -12.269      -46.986      185.955      130.103       68.412    34579.170    16926.857     4680.233       14.100        2.809      472.901       65.556        0.019      334.638        4.739      851.966
04/01/2014  19:04:00     -392.086     -143.313       -6.811      164.194      127.672       62.997    26959.695    16300.113     3968.583       11.076        2.361      417.457       66.342        0.025      334.666        4.786      851.956
04/01/2014  19:05:00     -354.414      -21.042      -11.415      164.985      139.719       76.393    27220.107    19521.267     5835.876        8.937        2.629      355.038       84.482        0.057      334.665        4.783      851.958
04/01/2014  19:06:00     -308.152     -109.379      -12.768      115.881      102.044       69.785    13428.453    10413.065     4869.908        6.789        1.436      326.988       66.757        0.042      334.664        4.782      851.963
04/01/2014  19:07:00     -355.248     -100.162       -8.053      187.888      172.732       80.450    35302.022    29836.350     6472.277       10.394        3.581      369.098       80.371        0.047      334.638        4.737      851.950
04/01/2014  19:08:00     -302.176      -81.748       -8.645      141.962      145.977       59.650    20153.293    21309.300     3558.170        7.154        2.251      313.039       61.135        0.038      334.649        4.757      851.966
04/01/2014  19:09:00     -414.746     -106.284      -25.949      197.716      126.543       89.081    39091.779    16013.196     7935.381       12.350        3.152      428.148       95.663        0.050      334.646        4.752      851.947
04/01/2014  19:10:00     -351.164      -46.507      -20.589      196.429      132.789       80.850    38584.466    17632.978     6536.800        9.432        3.138      354.231       94.446        0.071      334.647        4.753      851.944
04/01/2014  19:11:00     -433.841      -91.880       -1.448      174.678      147.359       85.554    30512.431    21714.690     7319.538       12.809        2.977      443.463       80.711        0.033      334.583        4.648      851.933
04/01/2014  19:12:00     -436.812      -96.754      -26.320      203.267      161.064       73.941    41317.428    25941.587     5467.256       13.678        3.636      447.399       75.863        0.029      334.606        4.685      851.960
04/01/2014  19:13:00     -366.360      -45.288      -14.892      174.386      149.280       67.749    30410.540    22284.663     4589.986        9.688        2.864      369.148       79.032        0.046      334.562        4.611      851.925
04/01/2014  19:14:00     -271.119      -48.622       -8.197      199.365      158.662       81.090    39746.476    25173.611     6575.663        7.370        3.575      275.445       89.907        0.107      334.623        4.714      851.927
04/01/2014  19:15:00     -371.315     -109.499      -21.627      192.856      130.945       70.121    37193.548    17146.633     4916.945       10.478        2.963      387.124       91.874        0.056      334.617        4.703      851.953
04/01/2014  19:16:00     -312.853        6.762      -14.257      115.818      103.366       55.063    13413.834    10684.604     3031.937        6.262        1.357      312.926       53.373        0.029      334.644        4.749      851.964
04/01/2014  19:17:00     -311.571      -36.752      -18.921      131.541      128.974       63.784    17303.075    16634.399     4068.438        6.839        1.900      313.731       57.693        0.034      334.642        4.745      851.949
04/01/2014  19:18:00     -472.685     -102.238       -7.887      181.633      173.432       78.034    32990.383    30078.655     6089.326       15.154        3.458      483.615       85.157        0.031      334.576        4.635      851.938
04/01/2014  19:19:00     -398.785      -73.505      -13.958      175.278      121.783       73.218    30722.288    14831.021     5360.818       10.776        2.546      405.503       73.407        0.033      334.588        4.656      851.964
04/01/2014  19:20:00     -177.320     -132.656        9.440      172.401      146.279       65.014    29722.001    21397.530     4226.875        5.223        2.767      221.449       81.600        0.136      334.642        4.745      851.969
04/01/2014  19:21:00     -174.379      -31.241      -18.941      182.248       95.889       59.981    33214.414     9194.711     3597.742        3.887        2.300      177.155       69.762        0.155      334.682        4.813      851.971
04/01/2014  19:22:00     -432.718      -62.257      -29.128      144.635      141.258       69.429    20919.363    19953.883     4820.327       11.882        2.285      437.174       59.656        0.019      334.615        4.700      851.970
04/01/2014  19:23:00     -303.731      -82.260        2.018      181.502      142.364       78.977    32942.939    20267.475     6237.322        7.922        2.972      314.673       80.405        0.065      334.620        4.708      851.980
04/01/2014  19:24:00     -469.072       -3.180      -17.913      234.503      124.550       93.828    54991.534    15512.682     8803.652       14.982        3.965      469.083      117.320        0.063      334.575        4.633      851.996
04/01/2014  19:25:00     -540.126     -104.063      -39.203      170.683      139.034       74.065    29132.750    19330.515     5485.567       17.901        2.697      550.059       62.109        0.013      334.562        4.612      851.996
04/01/2014  19:26:00     -381.334      -63.091      -10.473      126.817      125.107       70.101    16082.430    15651.836     4914.162        9.307        1.832      386.518       74.133        0.037      334.573        4.631      852.004
04/01/2014  19:27:00     -421.202      -68.804      -20.839      147.331      137.145       80.686    21706.354    18808.844     6510.186       11.479        2.351      426.784       90.460        0.045      334.589        4.656      852.007
04/01/2014  19:28:00     -268.583      -61.297      -11.428      149.751      111.126       61.103    22425.353    12348.939     3733.563        5.726        1.925      275.489       67.986        0.061      334.631        4.726      852.021
04/01/2014  19:29:00     -392.927        5.806      -28.571      172.230      141.708       74.767    29663.068    20081.295     5590.116       10.528        2.767      392.969       77.093        0.038      334.577        4.637      852.055
04/01/2014  19:30:00     -486.747     -148.041      -40.631      193.545      157.514       72.797    37459.546    24810.710     5299.467       16.402        3.378      508.762       73.553        0.021      334.604        4.681      852.066
04/01/2014  19:31:00     -173.155     -121.338       21.929      160.587      133.588       79.875    25788.259    17845.777     6380.005        4.759        2.501      211.437       87.017        0.169      334.661        4.778      852.079
04/01/2014  19:32:00     -165.137      -81.763        8.207      147.261      101.982       71.831    21685.769    10400.373     5159.741        3.563        1.862      184.270       85.140        0.213      334.652        4.763      852.097
04/01/2014  19:33:00     -363.922      -10.561      -19.189      141.679      130.017       71.826    20072.878    16904.346     5158.995        8.752        2.107      364.075       68.389        0.035      334.617        4.702      852.122
04/01/2014  19:34:00     -294.345      -80.994       -7.123      130.632      122.045       65.690    17064.621    14895.104     4315.201        6.475        1.814      305.285       74.038        0.059      334.611        4.693      852.132
04/01/2014  19:35:00     -238.214      -30.091        6.098      157.990       92.971       68.676    24960.980     8643.627     4716.414        4.800        1.916      240.107       71.011        0.087      334.629        4.725      852.137
04/01/2014  19:36:00     -232.915      -33.772       -6.762      113.568       78.794       51.395    12897.641     6208.439     2641.488        3.859        1.087      235.351       55.985        0.057      334.619        4.707      852.137
04/01/2014  19:37:00     -313.876      -39.249      -23.871      107.378      144.465       57.222    11530.027    20870.267     3274.396        6.814        1.784      316.321       57.688        0.033      334.588        4.656      852.153
04/01/2014  19:38:00     -200.217      -25.796        2.158      142.852       72.423       58.684    20406.807     5245.124     3443.836        3.492        1.455      201.872       76.996        0.145      334.604        4.683      852.172
04/01/2014  19:39:00     -278.779      -64.524       -8.528      221.276      134.156       62.527    48963.010    17997.745     3909.670        7.640        3.544      286.148       87.746        0.094      334.595        4.668      852.160
04/01/2014  19:40:00     -303.574      -61.623      -16.387      146.117      118.147       63.848    21350.201    13958.638     4076.535        6.780        1.969      309.765       76.270        0.061      334.594        4.666      852.125
04/01/2014  19:41:00     -392.405      -33.432       -9.331      167.018      102.897       73.437    27894.856    10587.873     5392.921        9.952        2.194      393.827       82.345        0.044      334.550        4.592      852.140
04/01/2014  19:42:00     -371.188      -72.006      -16.225      172.790      124.001       64.483    29856.438    15376.162     4158.011        9.630        2.470      378.107       64.344        0.029      334.555        4.601      852.139
04/01/2014  19:43:00     -462.192     -192.383      -24.477      161.895      105.566       75.981    26209.855    11144.076     5773.092       14.717        2.156      500.633       68.721        0.019      334.547        4.586      852.126
04/01/2014  19:44:00     -367.426     -123.555      -19.224      158.039      136.998       66.226    24976.304    18768.329     4385.904        9.937        2.407      387.644       66.650        0.030      334.568        4.623      852.144
04/01/2014  19:45:00     -349.954      -37.615      -18.204      166.946       98.740       62.055    27870.820     9749.508     3850.824        8.283        2.074      351.970       64.227        0.033      334.571        4.627      852.134
04/01/2014  19:46:00     -288.810      -76.077       -7.773      112.078       98.971       61.465    12561.516     9795.197     3777.949        5.769        1.307      298.662       59.652        0.040      334.583        4.646      852.131
04/01/2014  19:47:00     -241.794      -85.494       -4.362      104.668       77.714       41.828    10955.432     6039.532     1749.591        4.226        0.937      256.464       43.017        0.028      334.573        4.629      852.153
04/01/2014  19:48:00     -159.264      -35.156       -7.681       45.242       46.581       19.373     2046.881     2169.794      375.318        1.562        0.230      163.098       17.173        0.011      334.598        4.673      852.147
04/01/2014  19:49:00     -147.480      -70.563       -0.214       66.093       66.790       34.896     4368.344     4460.868     1217.715        1.839        0.502      163.491       28.944        0.031      334.604        4.685      852.130
04/01/2014  19:50:00      -40.904       11.785       35.570       87.402       72.470       63.295     7639.039     5251.934     4006.309        0.998        0.845       42.568       49.514        1.353      334.639        4.744      852.137
04/01/2014  19:51:00     -198.210      -39.569      -13.762      113.182       83.111       47.964    12810.056     6907.439     2300.532        3.153        1.101      202.121       53.514        0.070      334.599        4.675      852.145
04/01/2014  19:52:00     -194.178      -33.834       -3.984      123.026       98.616       53.709    15135.510     9725.088     2884.634        3.330        1.387      197.104       58.128        0.087      334.624        4.716      852.144
04/01/2014  19:53:00     -190.574      -28.486        3.058      151.265      103.001       65.099    22881.222    10609.240     4237.924        3.743        1.886      192.691       75.977        0.155      334.581        4.646      852.144
04/01/2014  19:54:00     -446.223     -107.150      -16.563      148.770      139.157       59.053    22132.631    19364.725     3487.290       12.792        2.249      458.907       59.676        0.017      334.554        4.599      852.152
04/01/2014  19:55:00     -246.046      -40.186       -6.201      106.935       85.389       50.030    11435.060     7291.217     2502.966        4.171        1.061      249.306       42.394        0.029      334.563        4.615      852.174
04/01/2014  19:56:00     -374.719       14.308      -14.368      194.518      139.477       73.662    37837.177    19453.824     5426.132       10.176        3.136      374.992       68.602        0.033      334.552        4.596      852.203
04/01/2014  19:57:00     -385.131      -82.191      -40.394      145.052      162.084       62.467    21039.939    26271.300     3902.135       10.395        2.561      393.804       71.872        0.033      334.551        4.594      852.216
04/01/2014  19:58:00     -215.948      -78.785        7.228      144.593      119.851       65.311    20907.129    14364.186     4265.547        4.621        1.977      229.871       74.427        0.105      334.597        4.670      852.228
04/01/2014  19:59:00     -362.785      -88.685      -15.236      106.247       92.187       54.059    11288.433     8498.494     2922.410        8.121        1.135      373.468       49.400        0.017      334.537        4.569      852.226
04/01/2014  20:00:00     -247.794      -37.170       -3.964       88.297      114.367       44.206     7796.402    13079.903     1954.188        4.281        1.142      250.566       43.057        0.030      334.504        4.517      852.243
04/01/2014  20:01:00     -223.426      -48.281        7.341      118.218       96.116       50.444    13975.391     9238.334     2544.640        3.903        1.288      228.583       53.715        0.055      334.526        4.552      852.259
04/01/2014  20:02:00     -476.886      -66.620      -10.865      169.976      137.558       73.355    28891.690    18922.139     5380.981       14.257        2.660      481.517       82.402        0.029      334.511        4.527      852.271
04/01/2014  20:03:00     -245.853      -88.492      -17.733      140.966      105.822       61.946    19871.283    11198.314     3837.301        5.174        1.745      261.294       61.271        0.055      334.541        4.576      852.292
04/01/2014  20:04:00     -225.186      -54.952        6.529      128.276       99.828       52.499    16454.654     9965.615     2756.145        4.147        1.459      231.794       56.987        0.060      334.541        4.579      852.324
04/01/2014  20:05:00     -201.569      -63.537        3.248      127.243       88.365       46.946    16190.779     7808.312     2203.904        3.544        1.310      211.346       55.936        0.070      334.533        4.565      852.343
04/01/2014  20:06:00     -270.958      -92.427       -5.417      127.605       76.713       47.081    16283.111     5884.950     2216.637        5.318        1.219      286.288       51.509        0.032      334.512        4.531      852.348
04/01/2014  20:07:00     -146.082       -6.108       -6.635       68.369       67.068       43.855     4674.323     4498.105     1923.248        1.626        0.555      146.210       38.570        0.070      334.519        4.543      852.350
04/01/2014  20:08:00      -86.532      -27.167       14.509       80.760       64.212       44.163     6522.209     4123.134     1950.330        1.051        0.630       90.697       32.906        0.132      334.570        4.628      852.338
04/01/2014  20:09:00     -138.239      -61.848       10.098       96.909       72.633       47.199     9391.334     5275.518     2227.718        1.996        0.845      151.444       43.078        0.081      334.518        4.542      852.333
04/01/2014  20:10:00     -309.705      -90.897      -12.346      147.860      113.043       61.024    21862.593    12778.754     3723.916        7.134        1.918      322.768       68.765        0.045      334.507        4.520      852.331
04/01/2014  20:11:00     -346.008     -109.712      -19.147      129.655      104.157       69.304    16810.488    10848.673     4803.091        8.229        1.623      362.985       50.928        0.020      334.515        4.534      852.320
04/01/2014  20:12:00     -360.191     -160.355      -23.060      134.617      122.933       67.995    18121.743    15112.493     4623.297        9.691        1.893      394.273       62.156        0.025      334.517        4.538      852.314
04/01/2014  20:13:00     -308.121     -111.783       -8.392      120.976       99.456       58.593    14635.149     9891.573     3433.181        6.773        1.398      327.771       59.863        0.033      334.508        4.522      852.324
04/01/2014  20:14:00     -241.657      -71.817        1.087      149.586       91.345       51.973    22376.012     8343.873     2701.236        4.848        1.671      252.102       63.316        0.063      334.535        4.568      852.318
04/01/2014  20:15:00     -294.215      -95.190      -14.239      142.539      108.421       68.628    20317.415    11755.214     4709.763        6.630        1.839      309.231       63.969        0.043      334.516        4.538      852.327
04/01/2014  20:16:00     -257.978      -22.821      -10.810      152.877       69.198       54.135    23371.431     4788.295     2930.619        4.913        1.555      258.985       70.415        0.074      334.521        4.543      852.344
04/01/2014  20:17:00     -149.879      -29.893      -12.868       92.718       55.235       34.519     8596.692     3050.893     1191.568        1.818        0.642      152.831       34.522        0.051      334.531        4.561      852.352
04/01/2014  20:18:00     -264.850       11.447      -17.863      166.664       90.803       61.707    27776.773     8245.207     3807.707        5.520        1.991      265.097       76.344        0.083      334.522        4.546      852.365
04/01/2014  20:19:00     -189.496       -5.753       -3.470      167.102      101.822       56.173    27923.156    10367.689     3155.404        3.869        2.072      189.584       78.186        0.170      334.530        4.560      852.380
04/01/2014  20:20:00     -234.820      -56.741        3.140      128.333      107.278       53.140    16469.302    11508.607     2823.884        4.458        1.540      241.578       54.125        0.050      334.532        4.563      852.417
04/01/2014  20:21:00     -166.228      -37.078       -3.097       81.083       91.012       43.631     6574.451     8283.182     1903.683        2.289        0.838      170.313       40.645        0.057      334.555        4.600      852.443
04/01/2014  20:22:00     -266.860     -123.175      -16.735      113.325      110.584       58.051    12842.543    12228.890     3369.976        5.755        1.422      293.915       52.628        0.032      334.510        4.526      852.482
04/01/2014  20:23:00     -253.780     -101.183      -10.288      129.315       80.722       43.282    16722.303     6516.103     1873.324        4.992        1.256      273.207       56.538        0.043      334.523        4.548      852.508
04/01/2014  20:24:00     -179.817      -52.406       -8.493       75.093       86.693       38.170     5638.947     7515.645     1456.932        2.488        0.731      187.298       37.866        0.041      334.514        4.533      852.533
04/01/2014  20:25:00     -124.521      -43.335        5.563      107.218       85.416       44.420    11495.658     7295.848     1973.108        1.909        1.038      131.846       48.388        0.135      334.540        4.576      852.551
04/01/2014  20:26:00     -189.969      -56.410       -2.805       92.285       78.382       55.550     8516.483     6143.804     3085.849        2.851        0.887      198.168       49.146        0.062      334.542        4.579      852.562
04/01/2014  20:27:00     -101.909      -74.813        6.007       80.493       56.280       39.945     6479.114     3167.487     1595.607        1.363        0.562      126.422       41.237        0.106      334.552        4.597      852.586
04/01/2014  20:28:00     -167.837      -43.421       -9.037      118.377       68.300       37.883    14013.180     4664.829     1435.121        2.512        1.006      173.363       31.495        0.033      334.595        4.667      852.596
04/01/2014  20:29:00     -307.267       -4.544      -30.968       88.316      100.241       48.424     7799.632    10048.345     2344.915        5.779        1.010      307.300       44.762        0.021      334.522        4.545      852.626
04/01/2014  20:30:00     -166.912      -25.151       -6.056       88.098       72.824       43.664     7761.193     5303.377     1906.565        2.175        0.749      168.796       47.541        0.079      334.551        4.595      852.637
04/01/2014  20:31:00     -149.793        6.425       20.122       89.753       62.118       51.945     8055.522     3858.588     2698.261        1.875        0.731      149.931       53.170        0.126      334.553        4.598      852.653
04/01/2014  20:32:00     -104.598      -19.538        3.057       82.390       63.076       45.818     6788.165     3978.555     2099.294        1.210        0.643      106.407       34.967        0.108      334.585        4.654      852.667
04/01/2014  20:33:00     -157.762      -46.799       -0.435      108.950       66.634       40.458    11870.005     4440.124     1636.830        2.251        0.897      164.557       44.469        0.073      334.562        4.614      852.689
04/01/2014  20:34:00     -313.394      -93.210      -11.908      124.052       96.475       57.101    15388.830     9307.353     3260.554        6.750        1.398      326.961       67.250        0.042      334.525        4.552      852.695
04/01/2014  20:35:00     -231.732      -54.838       -9.675       98.811      101.653       46.115     9763.552    10333.255     2126.635        3.951        1.111      238.132       38.187        0.026      334.515        4.533      852.702
04/01/2014  20:36:00     -309.511     -157.677      -16.176      121.972       84.640       60.419    14877.187     7163.863     3650.439        7.330        1.285      347.360       58.874        0.029      334.513        4.533      852.698
04/01/2014  20:37:00     -190.771      -25.948       -1.744       78.853       54.959       44.679     6217.785     3020.534     1996.242        2.415        0.562      192.527       41.056        0.045      334.493        4.499      852.705
04/01/2014  20:38:00     -292.931      -62.180       -5.453      134.144      100.831       53.632    17994.650    10166.819     2876.342        6.037        1.552      299.458       45.171        0.023      334.483        4.483      852.709
04/01/2014  20:39:00     -213.632      -95.407        3.550      108.720      100.593       49.521    11820.008    10119.049     2452.283        3.957        1.220      233.969       46.295        0.039      334.541        4.577      852.716
04/01/2014  20:40:00     -203.817      -98.756       -4.516      147.936       69.070       47.404    21885.203     4770.668     2247.152        4.010        1.445      226.482       62.793        0.077      334.545        4.586      852.743
04/01/2014  20:41:00     -235.057      -76.169      -11.837      133.488       95.814       54.038    17818.938     9180.402     2920.073        4.555        1.496      247.090       63.884        0.067      334.498        4.508      852.750
04/01/2014  20:42:00     -194.122      -25.206      -10.592       87.553       58.640       39.763     7665.467     3438.618     1581.085        2.556        0.634      195.752       46.225        0.056      334.480        4.478      852.766
04/01/2014  20:43:00     -160.603       41.168       -2.366      123.531       68.881       49.144    15259.934     4744.571     2415.101        2.495        1.121      165.795       56.798        0.117      334.475        4.471      852.769
04/01/2014  20:44:00     -262.287      -22.392      -25.779       67.027       90.796       35.325     4492.671     8243.826     1247.873        4.197        0.699      263.241       31.387        0.014      334.485        4.486      852.788
04/01/2014  20:45:00     -149.039      -57.633       -6.238       67.467       63.956       42.281     4551.782     4090.345     1787.716        1.800        0.521      159.794       38.253        0.057      334.540        4.578      852.825
04/01/2014  20:46:00     -201.732      -87.596        5.245      112.850       75.468       40.443    12735.167     5695.482     1635.597        3.423        1.003      219.929       50.499        0.053      334.490        4.494      852.842
04/01/2014  20:47:00     -205.353        8.346      -16.481      104.066       81.415       45.440    10829.808     6628.420     2064.813        3.101        0.976      205.523       46.314        0.051      334.458        4.442      852.853
04/01/2014  20:48:00     -167.776       -3.583      -20.643       94.148       78.531       43.647     8863.913     6167.146     1905.102        2.276        0.847      167.814       45.283        0.073      334.469        4.460      852.871
04/01/2014  20:49:00     -161.006       -9.459       -6.560       79.686       42.949       35.640     6349.819     1844.580     1270.215        1.776        0.473      161.284       33.179        0.042      334.492        4.499      852.883
04/01/2014  20:50:00     -141.487      -79.995      -11.537       65.833       70.662       33.854     4334.014     4993.144     1146.079        1.851        0.524      162.535       21.574        0.018      334.506        4.522      852.903
04/01/2014  20:51:00     -294.837      -71.536      -20.562      117.692       89.152       47.042    13851.440     7948.058     2212.937        5.824        1.201      303.391       46.962        0.024      334.508        4.523      852.928
04/01/2014  20:52:00     -199.059      -20.878       -2.193       94.020       55.605       44.086     8839.761     3091.969     1943.545        2.697        0.694      200.151       49.999        0.062      334.515        4.537      852.957
04/01/2014  20:53:00     -226.190      -86.770       -1.723      101.324      103.390       44.191    10266.457    10689.395     1952.816        4.080        1.145      242.262       44.527        0.034      334.526        4.553      852.966
04/01/2014  20:54:00     -228.156      -42.459      -12.313       73.483       49.945       41.927     5399.734     2494.515     1757.848        3.183        0.483      232.073       39.359        0.029      334.515        4.533      852.973
04/01/2014  20:55:00      -34.999       -9.834       -0.024       72.724       37.494       25.248     5288.798     1405.806      637.487        0.433        0.367       36.354       27.379        0.567      334.533        4.568      852.973
04/01/2014  20:56:00      -23.832      -45.431        4.164       49.168       52.871       22.916     2417.505     2795.311      525.144        0.419        0.287       51.302       14.147        0.076      334.586        4.655      852.982
04/01/2014  20:57:00      -24.381      -11.778        1.477       77.871       30.966       20.552     6063.885      958.907      422.371        0.409        0.372       27.076       26.319        0.945      334.553        4.600      852.990
04/01/2014  20:58:00      -64.786      -49.424        2.505       51.445       28.020       30.890     2646.620      785.128      954.168        0.552        0.219       81.486       31.292        0.147      334.608        4.693      853.013
04/01/2014  20:59:00     -133.484      -42.892      -11.320       87.169       77.185       28.667     7598.468     5957.499      821.778        1.708        0.719      140.206       31.727        0.051      334.587        4.656      853.038
04/01/2014  21:00:00      -59.533      -15.622        6.554       45.853       44.015       25.463     2102.523     1937.318      648.356        0.426        0.234       61.548       24.337        0.156      334.549        4.596      853.062
04/01/2014  21:01:00     -170.389      -13.113       -8.016      128.831       66.670       48.790    16597.352     4444.886     2380.430        2.634        1.171      170.892       52.321        0.094      334.522        4.548      853.082
04/01/2014  21:02:00     -249.826        6.958      -10.693      117.581       77.664       51.191    13825.287     6031.712     2620.537        4.252        1.124      249.923       53.846        0.046      334.545        4.584      853.095
04/01/2014  21:03:00     -122.116      -56.463       14.275       89.527       77.613       37.403     8015.029     6023.812     1399.022        1.687        0.772      134.538       41.922        0.097      334.565        4.619      853.118
04/01/2014  21:04:00     -173.112      -30.013       -9.921       90.678      115.275       38.106     8222.459    13288.371     1452.078        2.696        1.148      175.694       37.116        0.045      334.506        4.521      853.129
04/01/2014  21:05:00     -199.709       15.823      -18.271      106.192      109.588       49.919    11276.714    12009.593     2491.897        3.312        1.289      200.335       56.020        0.078      334.487        4.489      853.126
04/01/2014  21:06:00      -49.720       12.122       -5.884       40.735       35.616       20.704     1659.328     1268.504      428.664        0.300        0.168       51.177       15.868        0.096      334.459        4.447      853.148
04/01/2014  21:07:00     -144.000      -15.025      -11.038       59.268       49.933       27.837     3512.745     2493.284      774.901        1.393        0.339      144.782       25.042        0.030      334.476        4.474      853.163
04/01/2014  21:08:00     -162.342      -29.899       -1.514       75.664       76.014       42.735     5724.998     5778.107     1826.299        2.029        0.666      165.072       38.686        0.055      334.434        4.403      853.184
04/01/2014  21:09:00      -96.571       20.733       -1.379       71.008       42.703       31.835     5042.065     1823.568     1013.449        0.882        0.394       98.771       31.336        0.101      334.411        4.366      853.191
04/01/2014  21:10:00      -46.884       62.300       -4.369       54.259       62.471       28.992     2944.017     3902.632      840.564        0.689        0.384       77.971       35.720        0.210      334.427        4.393      853.199
04/01/2014  21:11:00      -56.904        1.075       -8.960       39.185       32.114       19.923     1535.480     1031.294      396.919        0.314        0.148       56.914        8.270        0.021      334.420        4.384      853.216
04/01/2014  21:12:00      -53.824       34.335       -9.069       35.864       29.768       27.678     1286.194      886.122      766.049        0.355        0.147       63.843       15.463        0.059      334.392        4.335      853.229
04/01/2014  21:13:00     -120.247        7.359       -5.266       66.840       38.932       28.213     4467.611     1515.698      795.975        1.066        0.339      120.472       26.120        0.047      334.406        4.358      853.240
04/01/2014  21:14:00     -114.371       -4.375      -10.112       41.934       40.126       21.176     1758.425     1610.080      448.420        0.851        0.191      114.454       18.613        0.026      334.428        4.396      853.264
04/01/2014  21:15:00     -106.873      -36.987       -5.872       33.445       37.491       21.586     1118.574     1405.567      465.944        0.791        0.150      113.092       17.615        0.024      334.525        4.554      853.281
04/01/2014  21:16:00      -38.157      -95.341        6.578       60.618       59.940       30.822     3674.497     3592.863      949.992        0.940        0.411      102.693       30.602        0.089      334.553        4.601      853.292
04/01/2014  21:17:00       -5.163      -44.395       17.567       29.354       47.600       26.815      861.632     2265.750      719.064        0.308        0.192       44.694       21.854        0.239      334.621        4.714      853.286
04/01/2014  21:18:00       35.768       44.419       10.335       43.074       31.830       22.068     1855.339     1013.170      486.997        0.336        0.168       57.030       16.239        0.081      334.501        4.516      853.296
04/01/2014  21:19:00       18.802       69.353        3.675       37.373       64.883       31.247     1396.773     4209.825      976.405        0.588        0.329       71.856       37.552        0.273      334.416        4.376      853.307
04/01/2014  21:20:00       44.009       31.179       13.164       21.163       45.216       33.871      447.875     2044.466     1147.250        0.336        0.182       53.935       20.208        0.140      334.406        4.358      853.311
04/01/2014  21:21:00       82.357       40.881       27.763       36.505       34.392       31.255     1332.616     1182.777      976.876        0.636        0.175       91.945       19.058        0.043      334.462        4.450      853.309
04/01/2014  21:22:00      127.281       88.977       20.998       71.641       39.477       44.492     5132.485     1558.447     1979.518        1.661        0.434      155.297       25.195        0.026      334.380        4.313      853.300
04/01/2014  21:23:00       40.789      116.350      -10.514       55.036       76.965       36.908     3028.968     5923.596     1362.172        1.281        0.516      123.293       40.132        0.106      334.370        4.297      853.304
04/01/2014  21:24:00       42.481      143.564      -20.476       48.840       56.177       28.654     2385.315     3155.804      821.054        1.460        0.318      149.717       31.609        0.045      334.393        4.337      853.319
04/01/2014  21:25:00      -50.942       90.410       -9.244       62.575       38.960       27.659     3915.674     1517.894      765.000        0.853        0.310      103.774       19.258        0.034      334.423        4.387      853.349
04/01/2014  21:26:00      -28.466       35.930        2.192       23.762       52.776       17.448      564.632     2785.354      304.427        0.288        0.183       45.840       23.200        0.256      334.425        4.389      853.361
04/01/2014  21:27:00       44.666       89.405       -0.073       73.820       75.541       23.980     5449.335     5706.508      575.043        1.086        0.587       99.942       32.898        0.108      334.423        4.387      853.367
04/01/2014  21:28:00       85.953      136.203      -16.266       62.071       64.015       39.746     3852.844     4097.888     1579.712        1.787        0.477      161.056       15.334        0.009      334.393        4.336      853.339
04/01/2014  21:29:00       50.635       64.471        0.531       29.952       28.018       25.871      897.115      784.989      669.285        0.454        0.118       81.978       15.961        0.038      334.380        4.315      853.343
04/01/2014  21:30:00      129.809       78.037        8.005       44.712       29.152       23.416     1999.153      849.823      548.295        1.320        0.170      151.460       11.041        0.005      334.348        4.261      853.349
04/01/2014  21:31:00       62.548       23.322       10.095       43.490       36.971       25.182     1891.414     1366.827      634.139        0.422        0.195       66.754       16.145        0.058      334.303        4.190      853.353
04/01/2014  21:32:00       40.129       23.306       -0.874       22.720       21.438       16.593      516.208      459.577      275.311        0.170        0.063       46.406       10.475        0.051      334.326        4.225      853.357
04/01/2014  21:33:00       34.550       54.917        2.111       21.250       33.866       16.832      451.575     1146.932      283.306        0.305        0.094       64.881       18.128        0.078      334.328        4.227      853.359
04/01/2014  21:34:00       46.906       58.831       -1.677       31.350       38.064       19.742      982.832     1448.864      389.746        0.424        0.141       75.242       22.311        0.088      334.334        4.237      853.362
04/01/2014  21:35:00       68.802       26.215        7.304       36.716       20.800       19.613     1348.050      432.655      384.682        0.382        0.108       73.627       20.417        0.077      334.318        4.211      853.370
04/01/2014  21:36:00       24.238       21.617       -3.960       20.448       16.217       16.094      418.138      262.982      259.002        0.101        0.047       32.477       10.360        0.102      334.259        4.116      853.373
04/01/2014  21:37:00       30.736       23.683       -5.356       16.976       13.367       10.497      288.179      178.681      110.196        0.106        0.029       38.802        3.332        0.007      334.249        4.098      853.365
04/01/2014  21:38:00       19.361       11.103        2.078       11.223        8.238       11.841      125.965       67.859      140.204        0.042        0.017       22.319        7.956        0.127      334.256        4.109      853.376
04/01/2014  21:39:00       12.895       45.063       -3.236       22.448       18.516       12.077      503.929      342.840      145.843        0.160        0.050       46.872        6.075        0.017      334.266        4.127      853.380
04/01/2014  21:40:00       21.100       78.836      -13.936       10.531       14.367        8.195      110.900      206.414       67.150        0.362        0.019       81.611        4.101        0.003      334.285        4.158      853.383
04/01/2014  21:41:00       16.725       93.985      -17.104       17.726       21.437       11.562      314.215      459.526      133.671        0.516        0.045       95.462       10.970        0.013      334.308        4.197      853.392
04/01/2014  21:42:00      -75.219       34.673      -17.591       26.877       29.736       18.634      722.373      884.216      347.234        0.456        0.098       82.826       16.149        0.038      334.343        4.253      853.393
04/01/2014  21:43:00      -79.194      -15.534      -13.538       17.146       20.328       16.865      293.986      413.232      284.420        0.384        0.050       80.703        7.540        0.009      334.386        4.324      853.393
04/01/2014  21:44:00      -82.584       49.600      -21.985       27.890       17.330       15.204      777.852      300.321      231.152        0.554        0.065       96.334        7.406        0.006      334.349        4.263      853.401
04/01/2014  21:45:00      -25.603       64.954      -20.373       42.329       24.636       15.073     1791.782      606.934      227.197        0.396        0.131       69.818       19.651        0.079      334.434        4.407      853.404
04/01/2014  21:46:00        7.044       -3.856        1.219       16.129       12.435        8.929      260.138      154.620       79.723        0.028        0.025        8.030        4.583        0.326      334.408        4.363      853.394
04/01/2014  21:47:00      -45.633      -35.891       -4.034       30.140       27.680       15.947      908.394      766.202      254.294        0.266        0.096       58.056       13.017        0.050      334.432        4.402      853.394
04/01/2014  21:48:00      -42.023      -50.675       -2.713       27.917       22.136       17.294      779.350      489.995      299.072        0.295        0.078       65.832       13.224        0.040      334.466        4.457      853.396
04/01/2014  21:49:00      -96.149      -41.836        0.075       39.933       28.346       20.310     1594.644      803.479      412.479        0.690        0.141      104.857       16.456        0.025      334.386        4.326      853.395
04/01/2014  21:50:00     -170.174      -79.666        0.523       70.953       39.751       27.627     5034.298     1580.105      763.272        2.134        0.369      187.899       29.970        0.025      334.156        3.940      853.396
04/01/2014  21:51:00     -136.312      -10.208       -6.213       49.450       49.326       28.760     2445.338     2433.090      827.153        1.221        0.285      136.693       26.364        0.037      334.149        3.930      853.400
04/01/2014  21:52:00      -88.455       -4.543       -9.788       31.741       28.864       14.410     1007.479      833.144      207.655        0.499        0.102       88.571        9.382        0.011      334.128        3.896      853.394
04/01/2014  21:53:00     -139.677      -25.992       -8.839       38.638       45.079       19.543     1492.921     2032.077      381.925        1.208        0.195      142.075       14.248        0.010      334.165        3.958      853.397
04/01/2014  21:54:00     -178.752      -71.000       -5.892       47.803       41.367       30.481     2285.101     1711.214      929.115        2.098        0.246      192.336       26.012        0.018      334.115        3.873      853.405
04/01/2014  21:55:00     -127.081      -92.227        3.565      105.236       75.703       55.620    11074.559     5730.949     3093.568        2.228        0.995      157.020       57.434        0.134      334.174        3.970      853.399
04/01/2014  21:56:00     -136.342      -76.066       -1.497       90.662       79.402       36.796     8219.587     6304.755     1353.916        2.012        0.794      156.125       41.436        0.070      334.203        4.019      853.390
04/01/2014  21:57:00     -145.605       -2.006      -19.186       39.490       35.607       21.517     1559.489     1267.880      462.969        1.243        0.165      145.619       19.662        0.018      334.254        4.105      853.406
04/01/2014  21:58:00     -106.773        6.162       -0.476       57.952       39.888       24.857     3358.385     1591.083      617.846        0.850        0.278      106.950       26.032        0.059      334.147        3.928      853.412
04/01/2014  21:59:00     -217.948       22.005      -18.991       47.076       35.238       21.071     2216.116     1241.689      443.968        2.612        0.195      219.056       16.565        0.006      334.036        3.740      853.411
04/01/2014  22:00:00     -186.653       15.270      -24.199       30.251       40.506       20.863      915.116     1640.717      435.279        1.932        0.150      187.277       20.752        0.012      334.033        3.740      853.413
04/01/2014  22:01:00     -153.258      -15.877      -22.867       44.998       40.420       24.197     2024.859     1633.761      585.511        1.425        0.212      154.078       24.032        0.024      334.088        3.829      853.409
04/01/2014  22:02:00     -105.492      -37.657       11.602       99.832       51.629       39.981     9966.468     2665.536     1598.449        1.345        0.712      112.011       48.355        0.186      334.150        3.931      853.402
04/01/2014  22:03:00      -60.213      -31.275        9.164       56.119       45.390       29.646     3149.355     2060.258      878.867        0.539        0.304       67.851       34.471        0.258      334.182        3.986      853.400
04/01/2014  22:04:00      -64.049      -11.374      -17.404       28.569       29.985       17.128      816.206      899.114      293.365        0.327        0.100       65.051       13.586        0.044      334.120        3.884      853.409
04/01/2014  22:05:00      -58.508      -14.837        3.766       23.770       29.836       17.013      565.012      890.183      289.442        0.270        0.087       60.360       16.301        0.073      334.108        3.863      853.411
04/01/2014  22:06:00       -8.680       51.377       -5.311       32.005       30.021       22.683     1024.299      901.254      514.534        0.259        0.122       52.105       24.228        0.216      334.023        3.724      853.422
04/01/2014  22:07:00      -14.140      147.789      -17.694       20.295       26.636       16.035      411.904      709.494      257.113        1.187        0.069      148.464       13.448        0.008      333.992        3.671      853.436
04/01/2014  22:08:00      -50.939       71.290      -13.033       39.623       50.493       21.119     1570.005     2549.547      446.019        0.621        0.228       87.619       17.540        0.040      334.026        3.728      853.443
04/01/2014  22:09:00      -70.838       20.313      -14.384       22.497       26.157       15.204      506.106      684.170      231.155        0.353        0.071       73.693        9.098        0.015      333.977        3.646      853.453
04/01/2014  22:10:00      -76.813       30.270      -12.694       26.013       37.640       20.799      676.674     1416.781      432.613        0.475        0.126       82.562       17.713        0.046      334.018        3.713      853.462
04/01/2014  22:11:00      -64.372       56.946      -16.694       37.537       33.442       25.999     1409.022     1118.399      675.942        0.543        0.160       85.945       20.727        0.058      334.001        3.686      853.471
04/01/2014  22:12:00      -63.598       31.361       -7.713       28.857       23.736       14.522      832.738      563.388      210.896        0.335        0.080       70.910       17.596        0.062      334.046        3.760      853.484
04/01/2014  22:13:00      -50.168       45.041      -10.629       27.691       17.883       15.374      766.809      319.806      236.367        0.299        0.066       67.420       14.711        0.048      334.052        3.769      853.481
04/01/2014  22:14:00      -49.800       35.721      -23.946       23.818       21.767       14.286      567.296      473.783      204.103        0.279        0.062       61.286       11.191        0.033      334.131        3.902      853.491
04/01/2014  22:15:00      -10.631       32.512       -1.033       17.412       26.096       13.968      303.190      680.993      195.102        0.117        0.059       34.206       12.236        0.128      333.993        3.672      853.501
04/01/2014  22:16:00       14.020       21.038        0.729       18.192       11.954       11.817      330.948      142.899      139.648        0.063        0.031       25.281       11.680        0.213      334.007        3.696      853.495
04/01/2014  22:17:00       15.988       47.816      -11.308       11.423       18.290        9.702      130.486      334.530       94.119        0.161        0.028       50.418       10.321        0.042      333.949        3.601      853.499
04/01/2014  22:18:00       34.391       71.175       -6.807       20.858       27.030       19.984      435.061      730.636      399.374        0.393        0.078       79.048       14.939        0.036      333.873        3.475      853.508
04/01/2014  22:19:00       46.341       78.257      -18.255       34.917       38.382       23.568     1219.230     1473.151      555.445        0.593        0.162       90.949       21.488        0.056      333.880        3.484      853.499
04/01/2014  22:20:00       19.087       99.050      -20.173       29.792       38.777       20.992      887.543     1503.628      440.655        0.671        0.142      100.872       21.334        0.045      333.964        3.624      853.495
04/01/2014  22:21:00      -62.574        2.840       -2.515       33.564       37.163       20.188     1126.525     1381.073      407.546        0.342        0.146       62.638       15.756        0.063      333.966        3.629      853.515
04/01/2014  22:22:00      -39.824       45.800       -5.368        9.086       19.665       10.562       82.557      386.713      111.562        0.215        0.029       60.693        9.169        0.023      333.923        3.558      853.539
04/01/2014  22:23:00       22.348       51.911        0.383       32.137       34.915       18.867     1032.780     1219.092      355.982        0.290        0.130       56.517       19.960        0.125      333.899        3.516      853.549
04/01/2014  22:24:00       28.521       75.127       -2.900       23.153       32.360       22.185      536.081     1047.189      492.170        0.427        0.104       80.359       18.647        0.054      333.793        3.340      853.559
04/01/2014  22:25:00       43.253       25.468        4.923       32.617       21.891       18.678     1063.885      479.203      348.884        0.222        0.095       50.195        7.852        0.024      333.770        3.303      853.562
04/01/2014  22:26:00        9.556        3.377       -1.289       17.413       17.257       16.189      303.197      297.804      262.086        0.048        0.043       10.135        9.031        0.794      333.790        3.336      853.572
04/01/2014  22:27:00       24.164      104.425      -13.585       36.592       46.055       22.820     1338.942     2121.062      520.741        0.783        0.199      107.184       21.514        0.040      333.739        3.251      853.586
04/01/2014  22:28:00       -3.963       88.885      -21.229        9.669       23.956        8.311       93.496      573.907       69.080        0.455        0.037       88.974        7.989        0.008      333.826        3.394      853.599
04/01/2014  22:29:00      -51.980       33.691       -8.495       42.177       40.139       20.159     1778.857     1611.112      406.380        0.385        0.190       61.943       16.027        0.067      333.881        3.486      853.602
04/01/2014  22:30:00      -68.353       34.280       -5.029       26.130       27.872       18.451      682.789      776.825      340.449        0.384        0.090       76.467       14.308        0.035      333.766        3.296      853.610
04/01/2014  22:31:00      -46.154       20.095       -8.710       30.464       17.022       16.827      928.075      289.764      283.143        0.206        0.075       50.338       17.411        0.120      333.776        3.312      853.607
04/01/2014  22:32:00        2.464       69.938       -9.632       50.391       38.937       22.965     2539.244     1516.054      527.379        0.479        0.229       69.981       22.597        0.104      333.840        3.419      853.602
04/01/2014  22:33:00       39.189       41.965        2.670       22.828       18.595       22.035      521.123      345.777      485.559        0.233        0.068       57.418       14.724        0.066      333.757        3.282      853.599
04/01/2014  22:34:00       43.391       58.902        2.252       33.410       48.244       25.533     1116.247     2327.436      651.943        0.473        0.205       73.159       26.515        0.131      333.703        3.192      853.600
04/01/2014  22:35:00        2.477       17.890        0.798       27.048       33.530       29.426      731.610     1124.275      865.890        0.152        0.136       18.061       19.651        1.184      333.702        3.191      853.606
04/01/2014  22:36:00      -65.519       56.139      -16.372       47.548       43.597       24.566     2260.825     1900.684      603.477        0.624        0.238       86.281       31.678        0.135      333.776        3.314      853.600
04/01/2014  22:37:00      -97.688      146.838      -26.477       41.455       72.796       35.448     1718.550     5299.241     1256.559        2.004        0.414      176.364       35.565        0.041      333.718        3.214      853.614
04/01/2014  22:38:00      -33.853       96.415       -6.415       46.899       51.559       31.624     2199.529     2658.297     1000.052        0.817        0.293      102.185       32.823        0.103      333.788        3.331      853.618
04/01/2014  22:39:00      -11.610      155.727      -17.776       35.272       66.728       30.242     1244.096     4452.692      914.563        1.566        0.331      156.159       33.267        0.045      333.809        3.367      853.613
04/01/2014  22:40:00      -38.355      164.206      -16.665       34.721       45.994       26.438     1205.523     2115.452      698.950        1.637        0.201      168.626       17.793        0.011      333.741        3.255      853.605
04/01/2014  22:41:00      -29.595      242.541      -28.538       27.370       51.933       19.578      749.106     2697.019      383.300        3.217        0.191      244.340       15.946        0.004      333.707        3.194      853.595
04/01/2014  22:42:00       -8.535      165.291      -25.021       35.086       52.366       21.667     1231.037     2742.239      469.475        1.623        0.222      165.512       22.775        0.019      333.765        3.293      853.593
04/01/2014  22:43:00      -62.235      181.642      -17.445       62.490       61.531       37.128     3904.948     3786.111     1378.474        2.312        0.453      192.008       33.854        0.031      333.721        3.219      853.597
04/01/2014  22:44:00      -49.342      250.530      -29.783       46.368       57.942       30.721     2149.977     3357.302      943.805        3.627        0.323      255.343       28.827        0.013      333.658        3.113      853.584
04/01/2014  22:45:00      -49.110      246.095      -25.386       44.282       58.608       33.764     1960.936     3434.909     1140.010        3.508        0.327      250.947       27.481        0.012      333.633        3.072      853.587
04/01/2014  22:46:00      -62.726      168.246      -46.803       50.095       99.006       31.709     2509.554     9802.215     1005.433        2.387        0.666      179.559       21.601        0.014      333.683        3.157      853.583
04/01/2014  22:47:00      -69.250      155.297      -25.381       37.433       61.679       31.738     1401.243     3804.333     1007.295        1.788        0.311      170.038       27.616        0.026      333.663        3.125      853.594
04/01/2014  22:48:00      -60.709      202.952      -35.327       71.507       87.573       34.218     5113.197     7669.020     1170.857        3.004        0.698      211.838       31.646        0.022      333.668        3.130      853.595
04/01/2014  22:49:00       -8.491      214.979      -18.563       52.337       94.197       37.557     2739.161     8873.112     1410.546        2.983        0.651      215.147       44.912        0.044      333.602        3.022      853.581
04/01/2014  22:50:00      -14.497      188.086      -21.771       59.261       59.711       34.900     3511.842     3565.346     1218.010        2.218        0.415      188.644       30.742        0.027      333.576        2.979      853.580
04/01/2014  22:51:00       34.145      205.407      -29.944       38.857       48.439       35.000     1509.854     2346.316     1224.987        2.467        0.254      208.225       29.561        0.020      333.513        2.875      853.593
04/01/2014  22:52:00       30.069      124.840      -10.840       36.775       45.033       29.765     1352.397     2027.941      885.935        1.044        0.213      128.410       29.000        0.051      333.520        2.886      853.599
04/01/2014  22:53:00        8.924       70.651       -5.895       30.280       35.582       17.897      916.905     1266.101      320.292        0.380        0.125       71.213       17.132        0.058      333.468        2.801      853.602
04/01/2014  22:54:00       82.208       62.648       -6.588       27.351       18.718       20.582      748.076      350.376      423.636        0.612        0.076      103.358       12.997        0.016      333.508        2.867      853.613
04/01/2014  22:55:00       83.666       52.265       12.497       22.419       20.949       25.730      502.612      438.845      662.032        0.575        0.080       98.649        6.373        0.004      333.504        2.861      853.626
04/01/2014  22:56:00       60.036       54.067       -0.353       37.470       30.432       22.211     1403.998      926.101      493.330        0.467        0.141       80.793       13.484        0.028      333.393        2.678      853.637
04/01/2014  22:57:00        0.938       14.633      -15.553       11.222       24.746       14.048      125.939      612.341      197.355        0.070        0.047       14.664       11.164        0.580      333.389        2.673      853.646
04/01/2014  22:58:00       12.926       40.810       -0.804       27.184       52.171       30.719      738.969     2721.856      943.661        0.312        0.220       42.808       27.980        0.427      333.413        2.711      853.661
04/01/2014  22:59:00       23.902      160.885      -18.905       51.458       66.319       32.330     2647.921     4398.152     1045.236        1.745        0.405      162.651       24.955        0.024      333.403        2.693      853.673
04/01/2014  23:00:00      -16.745      153.551      -25.264       59.046      102.205       33.531     3486.434    10445.783     1124.300        1.977        0.753      154.462       40.260        0.068      333.474        2.811      853.675
04/01/2014  23:01:00       46.274      135.029      -18.912       54.411       58.305       42.589     2960.587     3399.501     1813.831        1.445        0.409      142.738       35.383        0.061      333.448        2.767      853.687
04/01/2014  23:02:00      -24.269      159.762      -20.982       35.325       33.750       22.599     1247.839     1139.054      510.725        1.472        0.145      161.595       13.398        0.007      333.540        2.922      853.702
04/01/2014  23:03:00       35.589      128.551      -16.354       49.053       77.980       38.637     2406.212     6080.896     1492.802        1.402        0.499      133.386       41.598        0.097      333.503        2.860      853.695
04/01/2014  23:04:00       14.961      101.918      -12.952       38.350       60.952       34.402     1470.749     3715.182     1183.500        0.857        0.318      103.010       37.613        0.133      333.469        2.803      853.686
04/01/2014  23:05:00        7.020      103.229      -11.508       51.352       73.183       27.800     2637.052     5355.806      772.839        0.980        0.438      103.467       33.258        0.103      333.521        2.890      853.693
04/01/2014  23:06:00       13.642      121.059       -4.537       63.044       74.643       49.488     3974.516     5571.562     2449.021        1.343        0.600      121.826       56.296        0.214      333.528        2.901      853.694
04/01/2014  23:07:00       10.246      133.723       -4.411       81.297       56.720       40.502     6609.245     3217.144     1640.432        1.473        0.573      134.114       38.040        0.080      333.547        2.931      853.697
04/01/2014  23:08:00      -23.354      133.731      -12.889       67.820       60.957       35.823     4599.496     3715.806     1283.264        1.410        0.480      135.755       24.374        0.032      333.549        2.935      853.700
04/01/2014  23:09:00      -38.235      110.017      -11.111       37.252       52.057       26.245     1387.690     2709.892      688.812        0.924        0.239      116.472       27.961        0.058      333.586        2.998      853.707
04/01/2014  23:10:00      -34.794      212.991      -25.681       42.234       74.271       33.350     1783.706     5516.132     1112.244        2.782        0.421      215.815       32.999        0.023      333.565        2.960      853.715
04/01/2014  23:11:00      -18.540      235.614      -36.793       49.713       44.355       29.310     2471.376     1967.376      859.075        3.125        0.265      236.342       22.806        0.009      333.577        2.981      853.706
04/01/2014  23:12:00      -51.634      198.391      -21.352       62.086       87.538       31.621     3854.627     7662.838      999.887        2.750        0.626      205.000       26.131        0.016      333.573        2.974      853.706
04/01/2014  23:13:00      -33.925      198.642      -26.239       41.229       49.352       27.020     1699.845     2435.667      730.085        2.308        0.243      201.518       19.554        0.009      333.571        2.971      853.701
04/01/2014  23:14:00        1.380      213.375      -30.130       38.751       78.035       23.475     1501.633     6089.413      551.055        2.729        0.407      213.379        7.846        0.001      333.526        2.894      853.708
04/01/2014  23:15:00       24.934      219.572      -30.955       44.251      123.194       40.648     1958.147    15176.672     1652.279        3.429        0.939      220.983       57.111        0.067      333.516        2.877      853.722
04/01/2014  23:16:00       22.979      165.422       -7.747       57.598       89.645       55.310     3317.507     8036.196     3059.190        2.118        0.721      167.010       57.112        0.117      333.468        2.798      853.729
04/01/2014  23:17:00       48.286      134.099       -9.416       61.891      109.020       48.568     3830.552    11885.361     2358.893        1.924        0.904      142.528       62.919        0.195      333.423        2.727      853.732
04/01/2014  23:18:00       34.673      152.110      -12.143       44.673       62.565       47.147     1995.664     3914.423     2222.878        1.631        0.407      156.012       46.790        0.090      333.426        2.732      853.742
04/01/2014  23:19:00       34.583      167.354      -19.295       47.778       85.816       34.508     2282.707     7364.375     1190.820        2.020        0.542      170.890       38.956        0.052      333.427        2.733      853.769
04/01/2014  23:20:00       -4.215      117.156      -10.761       37.388       59.354       25.022     1397.829     3522.852      626.100        0.970        0.277      117.232       19.624        0.028      333.420        2.721      853.772
04/01/2014  23:21:00       10.146      129.544      -22.870       37.408       46.434       29.556     1399.326     2156.073      873.547        1.092        0.221      129.940       28.865        0.049      333.439        2.754      853.781
04/01/2014  23:22:00       25.971      131.112      -11.298       41.341       45.801       33.531     1709.063     2097.741     1124.323        1.146        0.247      133.659       27.361        0.042      333.389        2.673      853.786
04/01/2014  23:23:00        0.446      124.914      -15.695       45.225       40.673       26.174     2045.324     1654.330      685.097        1.012        0.219      124.914       24.408        0.038      333.415        2.713      853.790
04/01/2014  23:24:00      -19.169      121.762      -17.100       31.687       55.315       22.791     1004.063     3059.745      519.424        1.003        0.229      123.261       26.918        0.048      333.420        2.722      853.785
04/01/2014  23:25:00        3.371      141.025      -19.686       52.127       74.629       29.672     2717.187     5569.489      880.413        1.473        0.458      141.065       33.986        0.058      333.372        2.643      853.771
04/01/2014  23:26:00       -0.733      165.907      -13.762       52.386       51.697       26.866     2744.305     2672.529      721.795        1.693        0.307      165.908       25.972        0.025      333.411        2.709      853.762
04/01/2014  23:27:00      -16.535      184.892      -27.833       54.906       96.837       34.711     3014.684     9377.482     1204.858        2.441        0.680      185.630       39.974        0.046      333.451        2.773      853.752
04/01/2014  23:28:00      -36.148      108.650      -15.156       68.886       79.252       34.890     4745.237     6280.919     1217.341        1.279        0.612      114.505       40.266        0.124      333.398        2.688      853.751
04/01/2014  23:29:00      -18.991       73.315       -3.135       40.605       33.907       35.795     1648.773     1149.701     1281.274        0.491        0.204       75.734       17.679        0.054      333.409        2.705      853.748
04/01/2014  23:30:00       -5.168       95.845       -2.638       41.702       55.214       26.887     1739.018     3048.627      722.884        0.736        0.276       95.984       26.823        0.078      333.402        2.693      853.746
04/01/2014  23:31:00      -39.947      202.949      -12.575       41.196       58.378       26.033     1697.122     3408.009      677.716        2.436        0.289      206.843       22.029        0.011      333.335        2.579      853.749
04/01/2014  23:32:00     -110.520      103.644      -26.516       38.917       64.355       30.827     1514.564     4141.512      950.291        1.513        0.330      151.515       27.957        0.034      333.416        2.716      853.760
04/01/2014  23:33:00      -52.524      178.438      -13.298       56.541       53.848       37.191     3196.872     2899.642     1383.185        2.113        0.374      186.008       28.324        0.023      333.379        2.653      853.769
04/01/2014  23:34:00      -54.736       62.432        6.655       68.110       54.337       33.625     4638.977     2952.531     1130.651        0.783        0.436       83.029       35.487        0.183      333.407        2.701      853.778
04/01/2014  23:35:00      -49.784       53.284       -3.772       39.524       45.143       31.484     1562.146     2037.882      991.253        0.496        0.230       72.922       20.840        0.082      333.469        2.802      853.789
04/01/2014  23:36:00     -109.052      -23.430      -16.485       38.963       32.795       28.997     1518.140     1075.498      840.803        0.807        0.172      111.540       15.623        0.020      333.474        2.811      853.780
04/01/2014  23:37:00      -57.080       21.965       -5.506       41.951       35.261       19.570     1759.847     1243.332      382.973        0.358        0.169       61.160       11.232        0.034      333.350        2.608      853.778
04/01/2014  23:38:00      -48.019      145.025      -19.594       40.039       93.406       24.264     1603.134     8724.729      588.758        1.732        0.546      152.768       27.360        0.032      333.362        2.626      853.779
04/01/2014  23:39:00      -96.416       74.520      -15.586       40.941       53.462       34.847     1676.162     2858.218     1214.294        1.042        0.287      121.857       31.950        0.069      333.331        2.574      853.774
04/01/2014  23:40:00     -206.936      110.479      -30.570       74.612       61.897       34.398     5566.977     3831.261     1183.242        3.327        0.529      234.581       31.220        0.018      333.232        2.407      853.782
04/01/2014  23:41:00      -92.832      133.689      -28.145       55.912       63.069       34.887     3126.152     3977.643     1217.093        1.780        0.416      162.759       29.603        0.033      333.206        2.369      853.792
04/01/2014  23:42:00      -91.924      138.510      -16.593       68.458       59.727       40.488     4686.551     3567.258     1639.312        1.890        0.495      166.238       39.565        0.057      333.193        2.345      853.795
04/01/2014  23:43:00      -51.872       52.329        1.382       46.302       61.730       27.973     2143.847     3810.614      782.463        0.608        0.337       73.682       26.396        0.128      333.262        2.460      853.791
04/01/2014  23:44:00      -69.916      111.743       -5.212       42.020       45.535       31.204     1765.660     2073.392      973.709        1.111        0.241      131.813       30.407        0.053      333.213        2.379      853.797
04/01/2014  23:45:00     -114.946      158.027      -21.031       43.704       89.744       38.195     1910.023     8053.906     1458.856        2.502        0.571      195.410       30.483        0.024      333.121        2.226      853.814
04/01/2014  23:46:00     -110.541       90.112      -16.952       55.255       65.914       33.214     3053.091     4344.620     1103.168        1.456        0.425      142.616       23.097        0.026      333.098        2.192      853.838
04/01/2014  23:47:00      -83.931       79.132       -4.146       73.772      123.936       56.294     5442.378    15360.179     3169.025        1.864        1.199      115.353       44.919        0.152      333.106        2.203      853.850
04/01/2014  23:48:00     -132.174      147.579      -24.871       49.011       94.977       41.666     2402.121     9020.586     1736.035        2.651        0.658      198.115       43.333        0.048      332.978        1.989      853.869
04/01/2014  23:49:00     -127.475      141.250      -18.197       53.055      116.454       40.059     2814.810    13561.618     1604.734        2.725        0.899      190.266       52.167        0.075      332.999        2.027      853.883
04/01/2014  23:50:00     -102.544       64.414       -5.627       54.969       49.311       28.922     3021.620     2431.537      836.473        1.049        0.314      121.097       14.027        0.013      333.014        2.051      853.907
04/01/2014  23:51:00      -66.788      110.645      -15.440       39.273       49.208       28.395     1542.354     2421.470      806.301        1.085        0.239      129.240       22.141        0.029      333.035        2.086      853.923
04/01/2014  23:52:00      -56.342       91.125       -6.269       61.517       84.693       31.468     3784.294     7172.885      990.218        1.173        0.597      107.136       28.953        0.073      333.087        2.172      853.938
04/01/2014  23:53:00     -108.720      101.157      -24.859       63.843       46.570       30.696     4075.948     2168.782      942.215        1.493        0.359      148.502       19.847        0.018      333.031        2.080      853.960
04/01/2014  23:54:00     -118.634       93.722      -18.368       83.686       58.232       37.582     7003.373     3390.928     1412.412        1.750        0.590      151.188       29.888        0.039      333.010        2.043      853.984
04/01/2014  23:55:00     -137.359       78.130      -25.676       59.572       42.192       30.948     3548.822     1780.187      957.789        1.596        0.314      158.025       25.740        0.027      332.998        2.024      853.990
04/01/2014  23:56:00     -119.747       80.660      -30.880       35.337       49.752       23.958     1248.698     2475.310      573.978        1.305        0.215      144.379       22.682        0.025      333.021        2.064      853.990
04/01/2014  23:57:00      -99.224       84.842      -20.564       52.322       61.720       29.945     2737.607     3809.358      896.703        1.245        0.372      130.551       31.143        0.057      333.039        2.093      853.995
04/01/2014  23:58:00     -101.555       77.028      -20.225       53.384       60.280       32.667     2849.810     3633.727     1067.130        1.210        0.378      127.462       30.132        0.056      333.079        2.158      854.005
04/01/2014  23:59:00      -53.186       75.516        1.253       52.690       55.046       34.120     2776.192     3030.043     1164.169        0.775        0.349       92.366       26.172        0.080      333.105        2.202      854.004
